Detalle de ayer:

8/4/20
Time         Wind Dir  Wind Gust   Humidity       Temp   Tot Rain Wind Chill Heat Index  Dew Point   Barom SL Temp Out H Temp Out L  DailyRain   HourRain   24HrRain   RainRate   Wind Run   Deg Heat   Deg Cool  MonthRain
                          km/hr          %         C         mm         C         C         C         mb         C         C         mm         mm         mm      mm/hr         km         C         C         mm
0:00              270        6.4         87       15.2      160.4       15.2       18.1       13.0     1021.3       15.2       15.2        0.0        0.0        0.0       0.00       74.5       1.39       0.15       11.0
0:02              270        6.4         87       15.2      160.4       15.2       18.1       13.0     1021.2       15.2       15.2        0.0        0.0        0.0       0.00        0.1       0.03       0.00       11.0
0:04              270        6.4         87       15.1      160.4       15.1       18.0       13.0     1021.3       15.2       15.1        0.0        0.0        0.0       0.00        0.2       0.03       0.00       11.0
0:06              270        6.4         88       15.1      160.4       15.1       18.1       13.1     1021.3       15.2       15.1        0.0        0.0        0.0       0.00        0.4       0.03       0.00       11.0
0:08              270        6.4         88       15.1      160.4       15.1       18.1       13.1     1021.3       15.2       15.1        0.0        0.0        0.0       0.00        0.4       0.03       0.00       11.0
0:10              270        6.4         88       15.1      160.4       15.1       18.0       13.1     1021.3       15.2       15.1        0.0        0.0        0.0       0.00        0.5       0.03       0.00       11.0
0:12              270        9.7         88       15.1      160.4       13.4       18.0       13.1     1021.4       15.2       15.1        0.0        0.0        0.0       0.00        0.8       0.03       0.00       11.0
0:14              270        9.7         88       15.0      160.4       15.0       18.0       13.0     1021.3       15.2       15.0        0.0        0.0        0.0       0.00        1.0       0.03       0.00       11.0
0:16              270        6.4         88       15.0      160.4       15.0       18.0       13.0     1021.4       15.2       15.0        0.0        0.0        0.0       0.00        1.3       0.06       0.00       11.0
0:18              270       12.9         88       14.9      160.4       14.9       17.9       13.0     1021.3       15.2       14.9        0.0        0.0        0.0       0.00        1.5       0.06       0.00       11.0
0:20              270       14.5         88       14.9      160.4       13.2       17.9       12.9     1021.3       15.2       14.9        0.0        0.0        0.0       0.00        1.9       0.06       0.00       11.0
0:22              270       11.3         88       14.9      160.4       13.2       17.9       12.9     1021.4       15.2       14.9        0.0        0.0        0.0       0.00        2.2       0.06       0.00       11.0
0:24              270       12.9         88       14.8      160.4       12.5       17.8       12.9     1021.3       15.2       14.8        0.0        0.0        0.0       0.00        2.6       0.06       0.00       11.0
0:26              270       11.3         88       14.8      160.4       14.8       17.7       12.8     1021.4       15.2       14.8        0.0        0.0        0.0       0.00        2.9       0.06       0.00       11.0
0:28              270       14.5         88       14.7      160.4       11.0       17.7       12.8     1021.4       15.2       14.7        0.0        0.0        0.0       0.00        3.2       0.06       0.00       11.0
0:30              270       12.9         88       14.7      160.4       14.7       17.6       12.7     1021.3       15.2       14.7        0.0        0.0        0.0       0.00        3.6       0.06       0.00       11.0
0:32              270       19.3         88       14.6      160.4       12.2       17.5       12.6     1021.3       15.2       14.6        0.0        0.0        0.0       0.00        3.9       0.10       0.00       11.0
0:34              270       12.9         88       14.5      160.4       12.8       17.5       12.5     1021.3       15.2       14.5        0.0        0.0        0.0       0.00        4.3       0.10       0.00       11.0
0:36              270       16.1         88       14.4      160.4       11.4       17.4       12.5     1021.3       15.2       14.4        0.0        0.0        0.0       0.00        4.7       0.10       0.00       11.0
0:38              270       11.3         88       14.4      160.4       12.7       17.4       12.4     1021.3       15.2       14.4        0.0        0.0        0.0       0.00        5.1       0.10       0.00       11.0
0:40              270       11.3         88       14.3      160.4       14.3       17.3       12.4     1021.2       15.2       14.3        0.0        0.0        0.0       0.00        5.4       0.10       0.00       11.0
0:42              270       11.3         89       14.3      160.4       14.3       17.3       12.5     1021.3       15.2       14.3        0.0        0.0        0.0       0.00        5.7       0.10       0.00       11.0
0:44              270       14.5         89       14.3      160.4       11.2       17.3       12.5     1021.3       15.2       14.2        0.0        0.0        0.0       0.00        6.1       0.10       0.00       11.0
0:46              270       14.5         89       14.2      160.4       10.4       17.3       12.4     1021.3       15.2       14.2        0.0        0.0        0.0       0.00        6.5       0.13       0.00       11.0
0:48              270       14.5         89       14.2      160.4       11.0       17.2       12.4     1021.2       15.2       14.2        0.0        0.0        0.0       0.00        6.9       0.13       0.00       11.0
0:50              270       16.1         89       14.1      160.4       11.7       17.2       12.3     1021.1       15.2       14.1        0.0        0.0        0.0       0.00        7.3       0.13       0.00       11.0
0:52              270        9.7         89       14.1      160.4       14.1       17.1       12.3     1021.1       15.2       14.1        0.0        0.0        0.0       0.00        7.6       0.13       0.00       11.0
0:54              270        6.4         89       14.1      160.4       14.1       17.1       12.3     1021.1       15.2       14.1        0.0        0.0        0.0       0.00        7.8       0.13       0.00       11.0
0:56              270        9.7         90       14.1      160.4       12.3       17.2       12.4     1021.1       15.2       14.1        0.0        0.0        0.0       0.00        8.1       0.13       0.00       11.0
0:58              270       17.7         90       14.1      160.4       10.2       17.2       12.4     1021.1       15.2       14.1        0.0        0.0        0.0       0.00        8.5       0.13       0.00       11.0
1:00              270       11.3         90       14.1      160.4       11.6       17.2       12.4     1021.1       15.2       14.1        0.0        0.0        0.0       0.00        8.9       0.13       0.00       11.0
1:02              270       16.1         90       14.0      160.4       11.6       17.1       12.4     1021.1       15.2       14.0        0.0        0.0        0.0       0.00        9.2       0.18       0.00       11.0
1:03              270       14.5         90       14.0      160.4       14.0       17.1       12.4     1021.0       15.2       14.0        0.0        0.0        0.0       0.00        9.5       0.18       0.00       11.0
1:06              270       16.1         90       13.9      160.4       10.1       17.1       12.3     1021.0       15.2       13.9        0.0        0.0        0.0       0.00        9.9       0.18       0.00       11.0
1:08              270       11.3         90       13.9      160.4       13.9       17.1       12.3     1021.1       15.2       13.9        0.0        0.0        0.0       0.00       10.2       0.18       0.00       11.0
1:10              270       14.5         90       13.9      160.4       12.2       17.1       12.3     1021.1       15.2       13.9        0.0        0.0        0.0       0.00       10.5       0.18       0.00       11.0
1:12              270       14.5         90       13.9      160.4       12.2       17.1       12.3     1021.0       15.2       13.9        0.0        0.0        0.0       0.00       10.8       0.18       0.00       11.0
1:14              270       14.5         90       13.9      160.4       11.4       17.0       12.3     1021.1       15.2       13.9        0.0        0.0        0.0       0.00       11.2       0.18       0.00       11.0
1:16              270       14.5         90       13.9      160.4       13.9       17.0       12.3     1021.1       15.2       13.9        0.0        0.0        0.0       0.00       11.5       0.22       0.00       11.0
1:18              270       17.7         90       13.9      160.4       12.1       17.0       12.3     1021.1       15.2       13.9        0.0        0.0        0.0       0.00       11.9       0.22       0.00       11.0
1:20              270       16.1         90       13.9      160.4        9.3       17.0       12.3     1021.1       15.2       13.9        0.0        0.0        0.0       0.00       12.4       0.22       0.00       11.0
1:22              270       14.5         90       13.9      160.4       10.0       17.0       12.3     1021.1       15.2       13.9        0.0        0.0        0.0       0.00       12.8       0.22       0.00       11.0
1:24              270       24.1         91       13.9      160.4        8.6       17.1       12.4     1021.1       15.2       13.9        0.0        0.0        0.0       0.00       13.4       0.22       0.00       11.0
1:26              270       17.7         91       13.9      160.4        9.3       17.1       12.4     1021.1       15.2       13.9        0.0        0.0        0.0       0.00       13.9       0.22       0.00       11.0
1:28              270       16.1         91       13.9      160.4        9.3       17.1       12.4     1021.0       15.2       13.9        0.0        0.0        0.0       0.00       14.4       0.22       0.00       11.0
1:30              270       17.7         91       13.9      160.4        9.0       17.1       12.4     1021.1       15.2       13.9        0.0        0.0        0.0       0.00       14.9       0.22       0.00       11.0
1:32              270       20.9         91       13.9      160.4        9.3       17.1       12.4     1021.2       15.2       13.9        0.0        0.0        0.0       0.00       15.5       0.26       0.00       11.0
1:34              270       24.1         91       13.9      160.4        7.4       17.1       12.4     1021.1       15.2       13.9        0.0        0.0        0.0       0.00       16.1       0.26       0.00       11.0
1:36              270       12.9         91       13.9      160.4       10.7       17.1       12.4     1021.0       15.2       13.9        0.0        0.0        0.0       0.00       16.6       0.26       0.00       11.0
1:38              270       14.5         91       13.9      160.4       11.4       17.1       12.4     1021.0       15.2       13.9        0.0        0.0        0.0       0.00       17.0       0.26       0.00       11.0
1:40              270       19.3         91       13.9      160.4       10.0       17.1       12.4     1020.9       15.2       13.9        0.0        0.0        0.0       0.00       17.4       0.26       0.00       11.0
1:42              270       17.7         91       13.9      160.4        9.0       17.1       12.4     1021.1       15.2       13.9        0.0        0.0        0.0       0.00       17.8       0.26       0.00       11.0
1:44              270       20.9         91       13.9      160.4        9.3       17.1       12.4     1021.0       15.2       13.8        0.0        0.0        0.0       0.00       18.3       0.26       0.00       11.0
1:46              270       16.1         91       13.8      160.4       12.1       17.0       12.4     1020.9       15.2       13.8        0.0        0.0        0.0       0.00       18.7       0.30       0.00       11.0
1:48              270       14.5         91       13.8      160.4       12.1       17.0       12.4     1020.9       15.2       13.8        0.0        0.0        0.0       0.00       19.1       0.30       0.00       11.0
1:50              270       14.5         91       13.8      160.4       12.1       17.0       12.4     1020.9       15.2       13.8        0.0        0.0        0.0       0.00       19.4       0.30       0.00       11.0
1:52              270       12.9         91       13.8      160.4       10.7       17.0       12.4     1020.8       15.2       13.8        0.0        0.0        0.0       0.00       19.8       0.30       0.00       11.0
1:54              270        9.7         91       13.9      160.4       12.1       17.1       12.4     1020.8       15.2       13.8        0.0        0.0        0.0       0.00       20.1       0.30       0.00       11.0
1:56              270       12.9         91       13.9      160.4       11.4       17.1       12.4     1020.7       15.2       13.8        0.0        0.0        0.0       0.00       20.4       0.30       0.00       11.0
1:58              270       12.9         91       13.9      160.4       12.1       17.1       12.4     1020.7       15.2       13.8        0.0        0.0        0.0       0.00       20.8       0.30       0.00       11.0
2:00              270       14.5         91       13.9      160.4       11.4       17.1       12.4     1020.8       15.2       13.8        0.0        0.0        0.0       0.00       21.1       0.30       0.00       11.0
2:02              270        9.7         91       13.9      160.4       13.9       17.2       12.5     1020.7       15.2       13.8        0.0        0.0        0.0       0.00       21.4       0.35       0.00       11.0
2:04              270       12.9         91       13.9      160.4       10.8       17.2       12.5     1020.8       15.2       13.8        0.0        0.0        0.0       0.00       21.7       0.35       0.00       11.0
2:06              270       19.3         91       13.9      160.4       10.8       17.2       12.5     1020.7       15.2       13.8        0.0        0.0        0.0       0.00       22.1       0.35       0.00       11.0
2:08              270       14.5         91       13.9      160.4       13.9       17.2       12.5     1020.7       15.2       13.8        0.0        0.0        0.0       0.00       22.5       0.35       0.00       11.0
2:10              270       12.9         91       13.9      160.4       11.5       17.2       12.5     1020.7       15.2       13.8        0.0        0.0        0.0       0.00       22.8       0.35       0.00       11.0
2:12              270        9.7         91       14.0      160.4       12.3       17.2       12.6     1020.7       15.2       13.8        0.0        0.0        0.0       0.00       23.1       0.35       0.00       11.0
2:14              270       11.3         91       14.0      160.4       11.6       17.2       12.6     1020.8       15.2       13.8        0.0        0.0        0.0       0.00       23.4       0.35       0.00       11.0
2:16              270       12.9         91       14.1      160.4       12.3       17.3       12.6     1020.7       15.2       13.8        0.0        0.0        0.0       0.00       23.8       0.39       0.00       11.0
2:18              270       12.9         91       14.1      160.4       14.1       17.3       12.6     1020.7       15.2       13.8        0.0        0.0        0.0       0.00       24.1       0.39       0.00       11.0
2:20              270       12.9         91       14.1      160.4       14.1       17.3       12.6     1020.7       15.2       13.8        0.0        0.0        0.0       0.00       24.4       0.39       0.00       11.0
2:22              270       16.1         91       14.1      160.4       12.4       17.3       12.7     1020.7       15.2       13.8        0.0        0.0        0.0       0.00       24.7       0.39       0.00       11.0
2:24              270       11.3         91       14.1      160.4       12.4       17.3       12.7     1020.7       15.2       13.8        0.0        0.0        0.0       0.00       25.1       0.39       0.00       11.0
2:26              270       12.9         91       14.1      160.4       11.7       17.3       12.7     1020.7       15.2       13.8        0.0        0.0        0.0       0.00       25.4       0.39       0.00       11.0
2:28              270        9.7         91       14.2      160.4       14.2       17.4       12.7     1020.7       15.2       13.8        0.0        0.0        0.0       0.00       25.7       0.39       0.00       11.0
2:30              270       14.5         91       14.2      160.4       10.4       17.4       12.8     1020.6       15.2       13.8        0.0        0.0        0.0       0.00       26.0       0.39       0.00       11.0
2:32              270       12.9         91       14.2      160.4       11.8       17.4       12.8     1020.7       15.2       13.8        0.0        0.0        0.0       0.00       26.4       0.43       0.00       11.0
2:34              270        9.7         91       14.3      160.4       12.6       17.5       12.8     1020.7       15.2       13.8        0.0        0.0        0.0       0.00       26.6       0.43       0.00       11.0
2:36              270       11.3         91       14.3      160.4       12.6       17.5       12.9     1020.7       15.2       13.8        0.0        0.0        0.0       0.00       26.8       0.43       0.00       11.0
2:38              270       12.9         91       14.3      160.4       12.6       17.5       12.9     1020.7       15.2       13.8        0.0        0.0        0.0       0.00       27.2       0.43       0.00       11.0
2:40              270       11.3         91       14.4      160.4       14.4       17.6       12.9     1020.7       15.2       13.8        0.0        0.0        0.0       0.00       27.4       0.43       0.00       11.0
2:42              270       11.3         91       14.4      160.4       12.0       17.6       12.9     1020.6       15.2       13.8        0.0        0.0        0.0       0.00       27.6       0.43       0.00       11.0
2:44              270       25.7         91       14.4      160.4        9.3       17.7       13.0     1020.7       15.2       13.8        0.0        0.0        0.0       0.00       28.0       0.43       0.00       11.0
2:46              270        4.8         91       14.5      160.4       14.5       17.7       13.1     1020.6       15.2       13.8        0.0        0.0        0.0       0.00       28.2       0.47       0.00       11.0
2:48              270       11.3         90       14.5      160.4       12.1       17.6       12.9     1020.6       15.2       13.8        0.0        0.0        0.0       0.00       28.2       0.47       0.00       11.0
2:50              270        0.0         90       14.6      160.4       14.6       17.7       12.9     1020.6       15.2       13.8        0.0        0.0        0.0       0.00       28.4       0.47       0.00       11.0
2:52              270        6.4         90       14.6      160.4       14.6       17.7       13.0     1020.6       15.2       13.8        0.0        0.0        0.0       0.00       28.5       0.47       0.00       11.0
2:54              270       12.9         90       14.6      160.4       11.6       17.7       13.0     1020.6       15.2       13.8        0.0        0.0        0.0       0.00       28.6       0.47       0.00       11.0
2:56              270        9.7         90       14.7      160.4       14.7       17.8       13.0     1020.5       15.2       13.8        0.0        0.0        0.0       0.00       29.0       0.47       0.00       11.0
2:58              270        6.4         90       14.7      160.4       14.7       17.8       13.0     1020.6       15.2       13.8        0.0        0.0        0.0       0.00       29.3       0.47       0.00       11.0
3:00              270       16.1         90       14.7      160.4       13.0       17.9       13.1     1020.6       15.2       13.8        0.0        0.0        0.0       0.00       29.6       0.47       0.00       11.0
3:02              270       11.3         90       14.7      160.4       14.7       17.9       13.1     1020.5       15.2       13.8        0.0        0.0        0.0       0.00       29.9       0.50       0.00       11.0
3:03              270       14.5         90       14.7      160.4       13.0       17.9       13.1     1020.6       15.2       13.8        0.0        0.0        0.0       0.00       30.2       0.50       0.00       11.0
3:06              270       11.3         89       14.8      160.4       12.4       17.8       13.0     1020.5       15.2       13.8        0.0        0.0        0.0       0.00       30.4       0.50       0.00       11.0
3:08              270       16.1         89       14.8      160.4       12.4       17.8       13.0     1020.5       15.2       13.8        0.0        0.0        0.0       0.00       30.7       0.50       0.00       11.0
3:10              270        6.4         89       14.8      160.4       14.8       17.8       13.0     1020.5       15.2       13.8        0.0        0.0        0.0       0.00       30.9       0.50       0.00       11.0
3:12              270       16.1         89       14.8      160.4       14.8       17.9       13.0     1020.5       15.2       13.8        0.0        0.0        0.0       0.00       31.1       0.50       0.00       11.0
3:14              270       12.9         89       14.8      160.4       14.8       17.9       13.0     1020.5       15.2       13.8        0.0        0.0        0.0       0.00       31.4       0.50       0.00       11.0
3:15              270       16.1         89       14.8      160.4       10.5       17.9       13.0     1020.5       15.2       13.8        0.0        0.0        0.0       0.00       31.7       0.53       0.00       11.0
3:18              270       25.7         89       14.8      160.4        9.4       17.9       13.0     1020.4       15.2       13.8        0.0        0.0        0.0       0.00       32.0       0.53       0.00       11.0
3:20              270       14.5         89       14.8      160.4       14.8       17.9       13.0     1020.4       15.2       13.8        0.0        0.0        0.0       0.00       32.3       0.53       0.00       11.0
3:21              270       11.3         89       14.8      160.4       14.8       17.9       13.0     1020.4       15.2       13.8        0.0        0.0        0.0       0.00       32.6       0.53       0.00       11.0
3:24              270       14.5         88       14.8      160.4       11.1       17.8       12.9     1020.4       15.2       13.8        0.0        0.0        0.0       0.00       32.8       0.53       0.00       11.0
3:26              270        1.6         88       14.8      160.4       14.8       17.8       12.9     1020.4       15.2       13.8        0.0        0.0        0.0       0.00       33.0       0.53       0.00       11.0
3:27              270        9.7         88       14.8      160.4       13.2       17.8       12.9     1020.4       15.2       13.8        0.0        0.0        0.0       0.00       33.1       0.53       0.00       11.0
3:30              270        4.8         88       14.8      160.4       14.8       17.7       12.8     1020.4       15.2       13.8        0.0        0.0        0.0       0.00       33.3       0.53       0.00       11.0
3:32              270       11.3         88       14.8      160.4       12.4       17.7       12.8     1020.3       15.2       13.8        0.0        0.0        0.0       0.00       33.4       0.57       0.00       11.0
3:34              270        9.7         88       14.8      160.4       14.8       17.7       12.8     1020.3       15.2       13.8        0.0        0.0        0.0       0.00       33.5       0.57       0.00       11.0
3:35              270        4.8         88       14.7      160.4       14.7       17.7       12.8     1020.3       15.2       13.8        0.0        0.0        0.0       0.00       33.6       0.57       0.00       11.0
3:38              270       11.3         88       14.7      160.4       14.7       17.7       12.8     1020.3       15.2       13.8        0.0        0.0        0.0       0.00       33.9       0.57       0.00       11.0
3:40              270        0.0         88       14.7      160.4       14.7       17.7       12.8     1020.4       15.2       13.8        0.0        0.0        0.0       0.00       33.9       0.57       0.00       11.0
3:42              270        0.0         88       14.7      160.4       14.7       17.7       12.8     1020.3       15.2       13.8        0.0        0.0        0.0       0.00       33.9       0.57       0.00       11.0
3:44              270        0.0         88       14.7      160.4       14.7       17.7       12.8     1020.3       15.2       13.8        0.0        0.0        0.0       0.00       33.9       0.57       0.00       11.0
3:45              270        6.4         88       14.7      160.4       14.7       17.6       12.7     1020.3       15.2       13.8        0.0        0.0        0.0       0.00       34.0       0.60       0.00       11.0
3:47              270        0.0         88       14.7      160.4       14.7       17.6       12.7     1020.3       15.2       13.8        0.0        0.0        0.0       0.00       34.0       0.60       0.00       11.0
3:50              270       11.3         88       14.7      160.4       13.0       17.6       12.7     1020.3       15.2       13.8        0.0        0.0        0.0       0.00       34.1       0.60       0.00       11.0
3:52              270       14.5         88       14.6      160.4       14.6       17.6       12.6     1020.3       15.2       13.8        0.0        0.0        0.0       0.00       34.4       0.60       0.00       11.0
3:54              270        9.7         88       14.6      160.4       14.6       17.6       12.6     1020.2       15.2       13.8        0.0        0.0        0.0       0.00       34.6       0.60       0.00       11.0
3:56              270       20.9         88       14.6      160.4       14.6       17.5       12.6     1020.3       15.2       13.8        0.0        0.0        0.0       0.00       35.0       0.60       0.00       11.0
3:58              270       17.7         88       14.5      160.4       11.4       17.5       12.5     1020.3       15.2       13.8        0.0        0.0        0.0       0.00       35.5       0.60       0.00       11.0
4:00              270       20.9         88       14.4      160.4       11.4       17.4       12.5     1020.2       15.2       13.8        0.0        0.0        0.0       0.00       36.0       0.60       0.00       11.0
4:02              270       16.1         89       14.4      160.4       10.0       17.4       12.6     1020.3       15.2       13.8        0.0        0.0        0.0       0.00       36.4       0.64       0.00       11.0
4:04              270       16.1         89       14.3      160.4        9.9       17.4       12.5     1020.3       15.2       13.8        0.0        0.0        0.0       0.00       37.0       0.64       0.00       11.0
4:06              270       25.7         89       14.3      160.4        9.1       17.3       12.5     1020.3       15.2       13.8        0.0        0.0        0.0       0.00       37.5       0.64       0.00       11.0
4:08              270       19.3         89       14.2      160.4       12.5       17.3       12.4     1020.2       15.2       13.8        0.0        0.0        0.0       0.00       37.9       0.64       0.00       11.0
4:10              270       22.5         89       14.2      160.4        8.2       17.2       12.4     1020.2       15.2       13.8        0.0        0.0        0.0       0.00       38.2       0.64       0.00       11.0
4:12              270       17.7         89       14.1      160.4       14.1       17.2       12.3     1020.2       15.2       13.8        0.0        0.0        0.0       0.00       38.7       0.64       0.00       11.0
4:14              270       12.9         90       14.1      160.4       10.9       17.2       12.4     1020.2       15.2       13.8        0.0        0.0        0.0       0.00       38.9       0.64       0.00       11.0
4:16              270        4.8         90       14.1      160.4       14.1       17.2       12.4     1020.2       15.2       13.8        0.0        0.0        0.0       0.00       39.2       0.68       0.00       11.0
4:17              270       14.5         90       14.0      160.4       11.6       17.1       12.4     1020.3       15.2       13.8        0.0        0.0        0.0       0.00       39.4       0.68       0.00       11.0
4:20              270        4.8         90       14.0      160.4       14.0       17.1       12.4     1020.3       15.2       13.8        0.0        0.0        0.0       0.00       39.6       0.68       0.00       11.0
4:22              270        4.8         90       13.9      160.4       13.9       17.1       12.3     1020.3       15.2       13.8        0.0        0.0        0.0       0.00       39.8       0.68       0.00       11.0
4:24              270        6.4         90       13.9      160.4       13.9       17.1       12.3     1020.3       15.2       13.8        0.0        0.0        0.0       0.00       40.0       0.68       0.00       11.0
4:25              270       17.7         91       13.9      160.4       11.5       17.2       12.5     1020.2       15.2       13.8        0.0        0.0        0.0       0.00       40.4       0.68       0.00       11.0
4:28              270        9.7         91       13.9      160.4       13.9       17.2       12.5     1020.2       15.2       13.8        0.0        0.0        0.0       0.00       40.7       0.68       0.00       11.0
4:30              270        9.7         91       13.9      160.4       13.9       17.2       12.5     1020.2       15.2       13.8        0.0        0.0        0.0       0.00       40.9       0.68       0.00       11.0
4:32              270       14.5         91       13.9      160.4       10.1       17.2       12.5     1020.3       15.2       13.8        0.0        0.0        0.0       0.00       41.0       0.72       0.00       11.0
4:34              270       16.1         91       13.9      160.4        9.4       17.2       12.5     1020.2       15.2       13.8        0.0        0.0        0.0       0.00       41.3       0.72       0.00       11.0
4:36              270       16.1         91       13.9      160.4       10.8       17.2       12.5     1020.2       15.2       13.8        0.0        0.0        0.0       0.00       41.6       0.72       0.00       11.0
4:38              270       24.1         91       13.9      160.4        9.0       17.2       12.5     1020.3       15.2       13.8        0.0        0.0        0.0       0.00       42.2       0.72       0.00       11.0
4:40              270       14.5         91       13.9      160.4       10.1       17.2       12.5     1020.2       15.2       13.8        0.0        0.0        0.0       0.00       42.6       0.72       0.00       11.0
4:42              270       20.9         91       13.9      160.4        9.4       17.2       12.5     1020.3       15.2       13.8        0.0        0.0        0.0       0.00       43.2       0.72       0.00       11.0
4:44              270       14.5         91       13.9      160.4       11.4       17.1       12.4     1020.3       15.2       13.8        0.0        0.0        0.0       0.00       43.8       0.72       0.00       11.0
4:46              270       12.9         92       13.9      160.4       11.4       17.2       12.6     1020.2       15.2       13.8        0.0        0.0        0.0       0.00       44.2       0.76       0.00       11.0
4:48              270       17.7         92       13.9      160.4       11.4       17.2       12.6     1020.2       15.2       13.8        0.0        0.0        0.0       0.00       44.5       0.76       0.00       11.0
4:50              270       33.8         92       13.9      160.4        7.8       17.2       12.6     1020.3       15.2       13.8        0.0        0.0        0.0       0.00       44.9       0.76       0.00       11.0
4:52              270       19.3         92       13.8      160.4        8.9       17.1       12.6     1020.3       15.2       13.8        0.0        0.0        0.0       0.00       45.6       0.76       0.00       11.0
4:54              270        3.2         92       13.8      160.4       13.8       17.1       12.5     1020.3       15.2       13.8        0.0        0.0        0.0       0.00       45.9       0.76       0.00       11.0
4:56              270        9.7         92       13.8      160.4       12.0       17.1       12.5     1020.3       15.2       13.8        0.0        0.0        0.0       0.00       46.2       0.76       0.00       11.0
4:58              270       19.3         92       13.8      160.4        8.4       17.1       12.5     1020.3       15.2       13.8        0.0        0.0        0.0       0.00       46.8       0.76       0.00       11.0
5:00              270       12.9         92       13.7      160.4       10.5       17.0       12.4     1020.4       15.2       13.7        0.0        0.0        0.0       0.00       47.3       0.76       0.00       11.0
5:02              270       29.0         92       13.7      160.4        8.4       17.0       12.4     1020.3       15.2       13.7        0.0        0.0        0.0       0.00       47.8       0.81       0.00       11.0
5:04              270       22.5         92       13.7      160.4        7.6       17.0       12.4     1020.3       15.2       13.7        0.0        0.0        0.0       0.00       48.4       0.81       0.00       11.0
5:06              270       29.0         92       13.7      160.4        8.0       17.0       12.4     1020.3       15.2       13.7        0.0        0.0        0.0       0.00       48.9       0.81       0.00       11.0
5:08              271       12.9         92       13.7      160.4       13.7       17.0       12.4     1020.3       15.2       13.7        0.0        0.0        0.0       0.00       49.5       0.81       0.00       11.0
5:10              271       14.5         92       13.7      160.4        9.7       17.0       12.4     1020.3       15.2       13.7        0.0        0.0        0.0       0.00       49.7       0.81       0.00       11.0
5:12              271       12.9         92       13.7      160.4       11.2       17.0       12.4     1020.3       15.2       13.7        0.0        0.0        0.0       0.00       50.0       0.81       0.00       11.0
5:14              271        0.0         92       13.7      160.4       13.7       17.0       12.4     1020.3       15.2       13.7        0.0        0.0        0.0       0.00       50.2       0.81       0.00       11.0
5:15              271       17.7         93       13.7      160.4        9.1       17.1       12.6     1020.4       15.2       13.7        0.0        0.0        0.0       0.00       50.4       0.85       0.00       11.0
5:18              271       19.3         93       13.7      160.4       13.7       17.1       12.6     1020.3       15.2       13.7        0.0        0.0        0.0       0.00       50.8       0.85       0.00       11.0
5:20              271        6.4         93       13.7      160.4       13.7       17.1       12.6     1020.3       15.2       13.7        0.0        0.0        0.0       0.00       51.2       0.85       0.00       11.0
5:22              271       25.7         93       13.7      160.4        7.2       17.1       12.6     1020.2       15.2       13.7        0.0        0.0        0.0       0.00       51.5       0.85       0.00       11.0
5:24              271       20.9         93       13.7      160.4       12.0       17.1       12.6     1020.3       15.2       13.7        0.0        0.0        0.0       0.00       52.0       0.85       0.00       11.0
5:26              271       12.9         93       13.7      160.4       10.5       17.1       12.6     1020.3       15.2       13.7        0.0        0.0        0.0       0.00       52.3       0.85       0.00       11.0
5:28              271       12.9         93       13.7      160.4       11.2       17.1       12.6     1020.3       15.2       13.7        0.0        0.0        0.0       0.00       53.0       0.85       0.00       11.0
5:30              271       20.9         93       13.7      160.4        8.0       17.1       12.6     1020.3       15.2       13.7        0.0        0.0        0.0       0.00       53.5       0.85       0.00       11.0
5:32              271       20.9         93       13.7      160.4       12.0       17.1       12.6     1020.3       15.2       13.7        0.0        0.0        0.0       0.00       53.9       0.90       0.00       11.0
5:34              271       16.1         93       13.8      160.4       13.8       17.2       12.7     1020.3       15.2       13.7        0.0        0.0        0.0       0.00       54.2       0.90       0.00       11.0
5:36              271       32.2         93       13.8      160.4        6.6       17.2       12.7     1020.3       15.2       13.7        0.0        0.0        0.0       0.00       54.7       0.90       0.00       11.0
5:38              271       30.6         93       13.8      160.4       11.3       17.2       12.7     1020.3       15.2       13.7        0.0        0.0        0.0       0.00       55.4       0.90       0.00       11.0
5:40              271       29.0         93       13.8      160.4        7.7       17.2       12.7     1020.3       15.2       13.7        0.0        0.0        0.0       0.00       55.9       0.90       0.00       11.0
5:42              271       17.7         93       13.8      160.4        9.9       17.2       12.7     1020.2       15.2       13.7        0.0        0.0        0.0       0.00       56.5       0.90       0.00       11.0
5:44              271       27.4         93       13.8      160.4        9.9       17.2       12.7     1020.3       15.2       13.7        0.0        0.0        0.0       0.00       57.1       0.90       0.00       11.0
5:46              271       30.6         93       13.8      160.4        8.1       17.2       12.7     1020.3       15.2       13.7        0.0        0.0        0.0       0.00       57.6       0.94       0.00       11.0
5:48              272       38.6         93       13.8      160.4        5.6       17.2       12.7     1020.2       15.2       13.7        0.0        0.0        0.0       0.00       58.3       0.94       0.00       11.0
5:50              272       24.1         93       13.8      160.4       10.7       17.2       12.7     1020.2       15.2       13.7        0.0        0.0        0.0       0.00       59.1       0.94       0.00       11.0
5:52              274       17.7         93       13.8      160.4        8.9       17.2       12.7     1020.2       15.2       13.7        0.0        0.0        0.0       0.00       59.5       0.94       0.00       11.0
5:54              277       17.7         93       13.9      160.4       10.0       17.3       12.8     1020.1       15.2       13.7        0.0        0.0        0.0       0.00       59.9       0.94       0.00       11.0
5:56              282       12.9         93       13.9      160.4       11.4       17.3       12.8     1020.2       15.2       13.7        0.0        0.0        0.0       0.00       60.3       0.94       0.00       11.0
5:58              284       16.1         93       13.9      160.4       13.9       17.3       12.8     1020.2       15.2       13.7        0.0        0.0        0.0       0.00       60.7       0.94       0.00       11.0
6:00              285        9.7         93       13.9      160.4       12.1       17.3       12.8     1020.2       15.2       13.7        0.0        0.0        0.0       0.00       61.0       0.94       0.00       11.0
6:02              285        3.2         93       13.9      160.4       13.9       17.3       12.8     1020.2       15.2       13.7        0.0        0.0        0.0       0.00       61.2       0.98       0.00       11.0
6:04              284       27.4         93       13.9      160.4        7.4       17.3       12.8     1020.3       15.2       13.7        0.0        0.0        0.0       0.00       61.6       0.98       0.00       11.0
6:06              285       29.0         93       13.9      160.4        7.0       17.3       12.8     1020.3       15.2       13.7        0.0        0.0        0.0       0.00       62.3       0.98       0.00       11.0
6:08              285       19.3         93       13.9      160.4        8.6       17.3       12.8     1020.3       15.2       13.7        0.0        0.0        0.0       0.00       62.9       0.98       0.00       11.0
6:10              285       17.7         93       13.9      160.4       12.2       17.3       12.8     1020.2       15.2       13.7        0.0        0.0        0.0       0.00       63.5       0.98       0.00       11.0
6:12              284       22.5         93       13.9      160.4       11.5       17.3       12.8     1020.3       15.2       13.7        0.0        0.0        0.0       0.00       63.9       0.98       0.00       11.0
6:14              284       20.9         93       13.9      160.4        8.3       17.3       12.8     1020.3       15.2       13.7        0.0        0.0        0.0       0.00       64.4       0.98       0.00       11.0
6:16              285        9.7         93       13.9      160.4       12.2       17.3       12.8     1020.3       15.2       13.7        0.0        0.0        0.0       0.00       64.9       1.03       0.00       11.0
6:18              285       11.3         93       13.9      160.4       13.9       17.3       12.8     1020.3       15.2       13.7        0.0        0.0        0.0       0.00       65.2       1.03       0.00       11.0
6:20              284       20.9         93       14.0      160.4       11.6       17.4       12.9     1020.2       15.2       13.7        0.0        0.0        0.0       0.00       65.8       1.03       0.00       11.0
6:22              285       17.7         93       14.0      160.4       10.1       17.4       12.9     1020.3       15.2       13.7        0.0        0.0        0.0       0.00       66.1       1.03       0.00       11.0
6:23              285       25.7         93       14.0      160.4        9.1       17.4       12.9     1020.3       15.2       13.7        0.0        0.0        0.0       0.00       66.6       1.03       0.00       11.0
6:26              285       17.7         94       14.0      160.4       14.0       17.5       13.1     1020.3       15.2       13.7        0.0        0.0        0.0       0.00       66.9       1.03       0.00       11.0
6:28              285       11.3         94       14.1      160.4       11.6       17.5       13.1     1020.3       15.2       13.7        0.0        0.0        0.0       0.00       67.2       1.03       0.00       11.0
6:30              284       22.5         94       14.1      160.4        8.4       17.5       13.1     1020.3       15.2       13.7        0.0        0.0        0.0       0.00       67.6       1.03       0.00       11.0
6:32              285       19.3         94       14.1      160.4       14.1       17.5       13.1     1020.3       15.2       13.7        0.0        0.0        0.0       0.00       68.1       1.07       0.00       11.0
6:34              284       20.9         94       14.1      160.4        9.6       17.6       13.2     1020.3       15.2       13.7        0.0        0.0        0.0       0.00       68.6       1.07       0.00       11.0
6:36              285       17.7         94       14.1      160.4       14.1       17.6       13.2     1020.3       15.2       13.7        0.0        0.0        0.0       0.00       69.2       1.07       0.00       11.0
6:38              285       12.9         94       14.1      160.4       14.1       17.6       13.2     1020.2       15.2       13.7        0.0        0.0        0.0       0.00       69.5       1.07       0.00       11.0
6:40              285       12.9         94       14.1      160.4       14.1       17.6       13.2     1020.3       15.2       13.7        0.0        0.0        0.0       0.00       69.7       1.07       0.00       11.0
6:42              285        4.8         94       14.1      160.4       14.1       17.6       13.2     1020.4       15.2       13.7        0.0        0.0        0.0       0.00       69.9       1.07       0.00       11.0
6:44              286       11.3         94       14.2      160.4       12.4       17.6       13.2     1020.3       15.2       13.7        0.0        0.0        0.0       0.00       70.2       1.07       0.00       11.0
6:46              286       14.5         94       14.2      160.4       11.0       17.6       13.2     1020.3       15.2       13.7        0.0        0.0        0.0       0.00       70.4       1.11       0.00       11.0
6:48              286       11.3         94       14.2      160.4       11.8       17.7       13.3     1020.3       15.2       13.7        0.0        0.0        0.0       0.00       70.7       1.11       0.00       11.0
6:50              287       11.3         94       14.2      160.4       13.1       17.6       13.2     1020.4       15.2       13.7        0.0        0.0        0.0       0.00       71.0       1.11       0.00       11.0
6:52              290       19.3         94       14.2      160.4       11.8       17.7       13.3     1020.3       15.2       13.7        0.0        0.0        0.0       0.00       71.4       1.11       0.00       11.0
6:54              292       16.1         94       14.2      160.4       11.1       17.7       13.3     1020.3       15.2       13.7        0.0        0.0        0.0       0.00       71.7       1.11       0.00       11.0
6:56              293       17.7         94       14.2      160.4       14.2       17.7       13.3     1020.4       15.2       13.7        0.0        0.0        0.0       0.00       72.1       1.11       0.00       11.0
6:58              294       12.9         94       14.2      160.4       14.2       17.7       13.3     1020.4       15.2       13.7        0.0        0.0        0.0       0.00       72.4       1.11       0.00       11.0
7:00              294       12.9         94       14.2      160.4       14.2       17.7       13.3     1020.4       15.2       13.7        0.0        0.0        0.0       0.00       72.7       1.11       0.00       11.0
7:02              295       16.1         94       14.3      160.4       11.9       17.7       13.3     1020.4       15.2       13.7        0.0        0.0        0.0       0.00       73.0       1.15       0.00       11.0
7:04              298       20.9         94       14.3      160.4       14.3       17.7       13.3     1020.3       15.2       13.7        0.0        0.0        0.0       0.00       73.3       1.15       0.00       11.0
7:06              300       25.7         94       14.3      160.4       10.5       17.7       13.3     1020.5       15.2       13.7        0.0        0.0        0.0       0.00       73.6       1.15       0.00       11.0
7:08              300        6.4         93       14.3      160.4       14.3       17.7       13.2     1020.4       15.2       13.7        0.0        0.0        0.0       0.00       73.9       1.15       0.00       11.0
7:10              300       16.1         93       14.3      160.4       11.2       17.7       13.2     1020.4       15.2       13.7        0.0        0.0        0.0       0.00       74.2       1.15       0.00       11.0
7:12              306       20.9         93       14.3      160.4        8.8       17.7       13.2     1020.4       15.2       13.7        0.0        0.0        0.0       0.00       74.6       1.15       0.00       11.0
7:14              312       19.3         93       14.3      160.4        9.1       17.7       13.2     1020.3       15.2       13.7        0.0        0.0        0.0       0.00       75.0       1.15       0.00       11.0
7:16              323       20.9         93       14.3      160.4        9.1       17.7       13.2     1020.2       15.2       13.7        0.0        0.0        0.0       0.00       75.5       1.18       0.00       11.0
7:18              347       19.3         93       14.2      160.4        9.4       17.6       13.1     1020.3       15.2       13.7        0.0        0.0        0.0       0.00       76.1       1.18       0.00       11.0
7:20              355       20.9         93       14.2      160.4        8.6       17.6       13.1     1020.3       15.2       13.7        0.0        0.0        0.0       0.00       76.5       1.18       0.00       11.0
7:22                5       25.7         93       14.3      160.4        9.1       17.7       13.2     1020.4       15.2       13.7        0.0        0.0        0.0       0.00       77.0       1.18       0.00       11.0
7:24               18       25.7         93       14.2      160.4        8.6       17.6       13.1     1020.3       15.2       13.7        0.0        0.0        0.0       0.00       77.6       1.18       0.00       11.0
7:26               22       17.7         93       14.2      160.4        9.4       17.6       13.1     1020.3       15.2       13.7        0.0        0.0        0.0       0.00       78.1       1.18       0.00       11.0
7:27               23       29.0         92       14.2      160.4        6.7       17.5       12.9     1020.3       15.2       13.7        0.0        0.0        0.0       0.00       78.6       1.18       0.00       11.0
7:30               23       12.9         92       14.1      160.4       14.1       17.4       12.8     1020.4       15.2       13.7        0.0        0.0        0.0       0.00       79.0       1.18       0.00       11.0
7:32               22       16.1         92       14.1      160.4       10.3       17.4       12.8     1020.4       15.2       13.7        0.0        0.0        0.0       0.00       79.4       1.23       0.00       11.0
7:34               25       25.7         92       14.1      160.4        9.6       17.4       12.8     1020.4       15.2       13.7        0.0        0.0        0.0       0.00       79.8       1.23       0.00       11.0
7:36               25        8.0         92       14.1      160.4       14.1       17.4       12.8     1020.4       15.2       13.7        0.0        0.0        0.0       0.00       80.2       1.23       0.00       11.0
7:38               25       40.2         91       14.2      160.4       10.3       17.4       12.7     1020.4       15.2       13.7        0.0        0.0        0.0       0.00       80.7       1.23       0.00       11.0
7:40               25       12.9         91       14.2      160.4       13.1       17.4       12.7     1020.3       15.2       13.7        0.0        0.0        0.0       0.00       81.1       1.23       0.00       11.0
7:42               26       22.5         91       14.2      160.4        8.6       17.4       12.8     1020.3       15.2       13.7        0.0        0.0        0.0       0.00       81.5       1.23       0.00       11.0
7:44               26       22.5         91       14.2      160.4       14.2       17.4       12.8     1020.3       15.2       13.7        0.0        0.0        0.0       0.00       82.0       1.23       0.00       11.0
7:46               26       14.5         91       14.3      160.4       13.3       17.5       12.9     1020.3       15.2       13.7        0.0        0.0        0.0       0.00       82.3       1.26       0.00       11.0
7:48               28        9.7         91       14.4      160.4       14.4       17.6       12.9     1020.3       15.2       13.7        0.0        0.0        0.0       0.00       82.5       1.26       0.00       11.0
7:50               22       14.5         90       14.4      160.4       14.4       17.6       12.8     1020.3       15.2       13.7        0.0        0.0        0.0       0.00       83.0       1.26       0.00       11.0
7:52               30       17.7         89       14.4      160.4       12.7       17.5       12.7     1020.3       15.2       13.7        0.0        0.0        0.0       0.00       83.4       1.26       0.00       11.0
7:54               30        9.7         89       14.5      160.4       14.5       17.6       12.7     1020.2       15.2       13.7        0.0        0.0        0.0       0.00       83.6       1.26       0.00       11.0
7:56               26       17.7         89       14.6      160.4       14.6       17.7       12.8     1020.2       15.2       13.7        0.0        0.0        0.0       0.00       83.9       1.26       0.00       11.0
7:58               26        8.0         88       14.7      160.4       13.7       17.6       12.7     1020.2       15.2       13.7        0.0        0.0        0.0       0.00       84.2       1.26       0.00       11.0
8:00               26        8.0         88       14.8      160.4       14.8       17.7       12.8     1020.3       15.2       13.7        0.0        0.0        0.0       0.00       84.4       1.26       0.00       11.0
8:02               28        9.7         87       14.8      160.4       14.8       17.7       12.7     1020.2       15.2       13.7        0.0        0.0        0.0       0.00       84.5       1.30       0.00       11.0
8:04               28       14.5         87       14.9      160.4       11.9       17.8       12.7     1020.2       15.2       13.7        0.0        0.0        0.0       0.00       84.7       1.30       0.00       11.0
8:06               28        8.0         86       14.9      160.4       14.9       17.8       12.6     1020.2       15.2       13.7        0.0        0.0        0.0       0.00       85.0       1.30       0.00       11.0
8:08               28        8.0         86       15.0      160.4       15.0       17.8       12.7     1020.2       15.2       13.7        0.0        0.0        0.0       0.00       85.2       1.30       0.00       11.0
8:10               28       12.9         85       15.1      160.4       12.1       17.8       12.6     1020.1       15.2       13.7        0.0        0.0        0.0       0.00       85.4       1.30       0.00       11.0
8:11               28       14.5         84       15.1      160.4       11.4       17.7       12.4     1020.2       15.2       13.7        0.0        0.0        0.0       0.00       85.7       1.30       0.00       11.0
8:14               28        8.0         84       15.1      160.4       14.1       17.8       12.4     1020.2       15.2       13.7        0.0        0.0        0.0       0.00       85.9       1.30       0.00       11.0
8:16               28       12.9         83       15.2      160.4       14.2       17.7       12.3     1020.2       15.2       13.7        0.0        0.0        0.0       0.00       86.1       1.33       0.00       11.0
8:18               28       14.5         83       15.3      160.4       13.7       17.9       12.4     1020.2       15.3       13.7        0.0        0.0        0.0       0.00       86.3       1.33       0.00       11.0
8:20               28        9.7         83       15.3      160.4       15.3       17.9       12.5     1020.2       15.3       13.7        0.0        0.0        0.0       0.00       86.6       1.33       0.00       11.0
8:22               28        4.8         82       15.4      160.4       15.4       17.9       12.3     1020.2       15.4       13.7        0.0        0.0        0.0       0.00       86.7       1.33       0.00       11.0
8:24               28       14.5         82       15.4      160.4       11.9       17.9       12.4     1020.1       15.4       13.7        0.0        0.0        0.0       0.00       87.0       1.33       0.00       11.0
8:26               28       14.5         81       15.5      160.4       11.9       17.9       12.3     1020.1       15.5       13.7        0.0        0.0        0.0       0.00       87.3       1.33       0.00       11.0
8:28               28       14.5         81       15.5      160.4       13.9       17.9       12.3     1020.1       15.5       13.7        0.0        0.0        0.0       0.00       87.5       1.33       0.00       11.0
8:30               28        4.8         81       15.6      160.4       15.6       18.0       12.3     1020.1       15.6       13.7        0.0        0.0        0.0       0.00       87.7       1.33       0.00       11.0
8:32               28        9.7         81       15.6      160.4       14.0       18.0       12.4     1020.1       15.6       13.7        0.0        0.0        0.0       0.00       87.8       1.35       0.00       11.0
8:34               28       12.9         81       15.7      160.4       14.1       18.1       12.5     1020.1       15.7       13.7        0.0        0.0        0.0       0.00       88.0       1.35       0.00       11.0
8:36               28        4.8         80       15.8      160.4       15.8       18.1       12.3     1020.2       15.8       13.7        0.0        0.0        0.0       0.00       88.3       1.35       0.00       11.0
8:38               28        6.4         80       15.8      160.4       15.8       18.1       12.3     1020.1       15.8       13.7        0.0        0.0        0.0       0.00       88.4       1.35       0.00       11.0
8:40               28        9.7         80       15.8      160.4       15.8       18.2       12.4     1020.0       15.8       13.7        0.0        0.0        0.0       0.00       88.6       1.35       0.00       11.0
8:42               28        6.4         80       15.9      160.4       15.9       18.2       12.4     1020.1       15.9       13.7        0.0        0.0        0.0       0.00       88.8       1.35       0.00       11.0
8:44               28        9.7         79       15.9      160.4       15.9       18.2       12.3     1020.1       15.9       13.7        0.0        0.0        0.0       0.00       89.0       1.35       0.00       11.0
8:46               28       12.9         79       15.9      160.4       15.0       18.2       12.3     1020.1       15.9       13.7        0.0        0.0        0.0       0.00       89.3       1.38       0.00       11.0
8:48               28        9.7         78       15.8      160.4       14.3       18.0       12.0     1020.2       15.9       13.7        0.0        0.0        0.0       0.00       89.5       1.38       0.00       11.0
8:50               28       12.9         78       15.9      160.4       15.0       18.1       12.1     1020.3       15.9       13.7        0.0        0.0        0.0       0.00       89.7       1.38       0.00       11.0
8:52               28        8.0         79       15.9      160.4       15.9       18.2       12.3     1020.2       15.9       13.7        0.0        0.0        0.0       0.00       89.9       1.38       0.00       11.0
8:53               28        3.2         78       15.9      160.4       15.9       18.1       12.1     1020.2       15.9       13.7        0.0        0.0        0.0       0.00       90.0       1.38       0.00       11.0
8:56               28        3.2         78       16.0      160.4       16.0       18.2       12.2     1020.2       16.0       13.7        0.0        0.0        0.0       0.00       90.1       1.38       0.00       11.0
8:58               28        3.2         79       16.1      160.4       16.1       18.4       12.5     1020.2       16.1       13.7        0.0        0.0        0.0       0.00       90.2       1.38       0.00       11.0
9:00               28        1.6         79       16.2      160.4       16.2       18.5       12.6     1020.2       16.2       13.7        0.0        0.0        0.0       0.00       90.2       1.38       0.00       11.0
9:02               28        6.4         79       16.3      160.4       16.3       18.6       12.7     1020.3       16.3       13.7        0.0        0.0        0.0       0.00       90.3       1.39       0.00       11.0
9:04               28        6.4         78       16.5      160.4       16.5       18.7       12.7     1020.3       16.5       13.7        0.0        0.0        0.0       0.00       90.5       1.39       0.00       11.0
9:06               28        3.2         77       16.6      160.4       16.6       18.7       12.6     1020.3       16.6       13.7        0.0        0.0        0.0       0.00       90.6       1.39       0.00       11.0
9:08               28        8.0         77       16.7      160.4       16.7       18.8       12.6     1020.4       16.7       13.7        0.0        0.0        0.0       0.00       90.8       1.39       0.00       11.0
9:10               28        3.2         76       16.7      160.4       16.7       18.8       12.5     1020.3       16.7       13.7        0.0        0.0        0.0       0.00       91.0       1.39       0.00       11.0
9:12               28        6.4         77       16.8      160.4       16.8       18.9       12.7     1020.3       16.8       13.7        0.0        0.0        0.0       0.00       91.2       1.39       0.00       11.0
9:13               28        4.8         77       16.9      160.4       16.9       19.0       12.8     1020.4       16.9       13.7        0.0        0.0        0.0       0.00       91.3       1.39       0.00       11.0
9:16               28        9.7         76       16.9      160.4       15.5       19.0       12.7     1020.4       16.9       13.7        0.0        0.0        0.0       0.00       91.5       1.41       0.00       11.0
9:18               28        8.0         75       16.9      160.4       16.1       18.9       12.5     1020.4       16.9       13.7        0.0        0.0        0.0       0.00       91.7       1.41       0.00       11.0
9:20               28        8.0         75       16.9      160.4       16.9       18.9       12.5     1020.3       16.9       13.7        0.0        0.0        0.0       0.00       91.9       1.41       0.00       11.0
9:22               28        8.0         75       16.9      160.4       16.9       18.9       12.5     1020.4       16.9       13.7        0.0        0.0        0.0       0.00       92.1       1.41       0.00       11.0
9:24               28        6.4         75       16.9      160.4       16.9       18.9       12.5     1020.4       16.9       13.7        0.0        0.0        0.0       0.00       92.3       1.41       0.00       11.0
9:25               28        4.8         75       16.9      160.4       16.9       18.9       12.5     1020.4       16.9       13.7        0.0        0.0        0.0       0.00       92.4       1.41       0.00       11.0
9:28               28        9.7         75       17.0      160.4       16.1       19.0       12.5     1020.4       17.0       13.7        0.0        0.0        0.0       0.00       92.6       1.41       0.00       11.0
9:30               28        8.0         75       17.0      160.4       17.0       19.0       12.5     1020.4       17.0       13.7        0.0        0.0        0.0       0.00       92.8       1.41       0.00       11.0
9:31               28        6.4         75       17.1      160.4       17.1       19.0       12.6     1020.4       17.1       13.7        0.0        0.0        0.0       0.00       93.0       1.42       0.00       11.0
9:34               28        6.4         76       17.1      160.4       17.1       19.1       12.8     1020.4       17.1       13.7        0.0        0.0        0.0       0.00       93.1       1.42       0.00       11.0
9:36               28        8.0         76       17.1      160.4       16.2       19.2       12.9     1020.4       17.1       13.7        0.0        0.0        0.0       0.00       93.3       1.42       0.00       11.0
9:37               28       12.9         76       17.2      160.4       14.5       19.2       12.9     1020.4       17.2       13.7        0.0        0.0        0.0       0.00       93.5       1.42       0.00       11.0
9:40               28        8.0         75       17.3      160.4       17.3       19.3       12.8     1020.4       17.3       13.7        0.0        0.0        0.0       0.00       93.7       1.42       0.00       11.0
9:42               28        8.0         75       17.4      160.4       17.4       19.4       12.9     1020.4       17.4       13.7        0.0        0.0        0.0       0.00       94.0       1.42       0.00       11.0
9:44               28        8.0         74       17.5      160.4       16.7       19.4       12.8     1020.3       17.5       13.7        0.0        0.0        0.0       0.00       94.2       1.42       0.00       11.0
9:46               28        4.8         74       17.6      160.4       17.6       19.5       12.9     1020.4       17.6       13.7        0.0        0.0        0.0       0.00       94.3       1.42       0.00       11.0
9:48               28        4.8         74       17.7      160.4       17.7       19.6       13.0     1020.3       17.7       13.7        0.0        0.0        0.0       0.00       94.5       1.42       0.00       11.0
9:50               28        8.0         74       17.8      160.4       16.9       19.7       13.1     1020.3       17.8       13.7        0.0        0.0        0.0       0.00       94.6       1.42       0.00       11.0
9:52               28        3.2         74       17.8      160.4       17.8       19.7       13.1     1020.4       17.8       13.7        0.0        0.0        0.0       0.00       94.7       1.42       0.00       11.0
9:54               28        8.0         74       17.9      160.4       17.9       19.8       13.2     1020.3       17.9       13.7        0.0        0.0        0.0       0.00       94.9       1.42       0.00       11.0
9:56               28        4.8         74       17.9      160.4       17.9       19.9       13.2     1020.3       17.9       13.7        0.0        0.0        0.0       0.00       95.0       1.42       0.00       11.0
9:58               28        8.0         74       18.0      160.4       17.2       19.9       13.3     1020.3       18.0       13.7        0.0        0.0        0.0       0.00       95.2       1.42       0.00       11.0
10:00              28        6.4         74       18.1      160.4       18.1       20.0       13.4     1020.3       18.1       13.7        0.0        0.0        0.0       0.00       95.4       1.42       0.00       11.0
10:02              28        9.7         73       18.1      160.4       18.1       20.0       13.2     1020.3       18.1       13.7        0.0        0.0        0.0       0.00       95.5       1.42       0.00       11.0
10:03              28        6.4         73       18.2      160.4       18.2       20.0       13.3     1020.3       18.2       13.7        0.0        0.0        0.0       0.00       95.7       1.42       0.00       11.0
10:06              28        9.7         73       18.2      160.4       16.9       20.1       13.3     1020.3       18.2       13.7        0.0        0.0        0.0       0.00       95.8       1.42       0.00       11.0
10:08              28        6.4         73       18.3      160.4       18.3       20.2       13.4     1020.3       18.3       13.7        0.0        0.0        0.0       0.00       96.0       1.42       0.00       11.0
10:10              28        8.0         73       18.4      160.4       18.4       20.3       13.5     1020.2       18.4       13.7        0.0        0.0        0.0       0.00       96.1       1.42       0.00       11.0
10:12              28        4.8         73       18.6      160.4       18.6       20.4       13.6     1020.1       18.6       13.7        0.0        0.0        0.0       0.00       96.2       1.42       0.00       11.0
10:14              28        3.2         72       18.7      160.4       18.7       20.5       13.6     1020.1       18.7       13.7        0.0        0.0        0.0       0.00       96.3       1.42       0.00       11.0
10:16              28        4.8         71       18.8      160.4       18.8       20.5       13.5     1020.2       18.8       13.7        0.0        0.0        0.0       0.00       96.4       1.42       0.00       11.0
10:18              28        8.0         71       18.9      160.4       18.9       20.7       13.6     1020.2       18.9       13.7        0.0        0.0        0.0       0.00       96.6       1.42       0.00       11.0
10:20              28        6.4         71       19.1      160.4       19.1       20.8       13.7     1020.1       19.1       13.7        0.0        0.0        0.0       0.00       96.8       1.42       0.00       11.0
10:22              28        3.2         70       19.2      160.4       19.2       20.8       13.6     1020.1       19.2       13.7        0.0        0.0        0.0       0.00       96.9       1.42       0.00       11.0
10:24              28        4.8         70       19.2      160.4       19.2       20.8       13.6     1020.1       19.2       13.7        0.0        0.0        0.0       0.00       97.1       1.42       0.00       11.0
10:26              28        3.2         69       19.2      160.4       19.2       20.8       13.4     1020.1       19.2       13.7        0.0        0.0        0.0       0.00       97.2       1.42       0.00       11.0
10:28              28        6.4         70       19.2      160.4       19.2       20.9       13.6     1020.0       19.2       13.7        0.0        0.0        0.0       0.00       97.4       1.42       0.00       11.0
10:30              28        4.8         69       19.3      160.4       19.3       20.9       13.5     1020.1       19.3       13.7        0.0        0.0        0.0       0.00       97.5       1.42       0.00       11.0
10:32              28        6.4         69       19.4      160.4       19.4       21.0       13.6     1020.0       19.4       13.7        0.0        0.0        0.0       0.00       97.6       1.42       0.00       11.0
10:34              28        9.7         69       19.6      160.4       18.3       21.1       13.7     1020.0       19.6       13.7        0.0        0.0        0.0       0.00       97.8       1.42       0.00       11.0
10:36              28        8.0         68       19.7      160.4       19.7       21.2       13.7     1020.0       19.7       13.7        0.0        0.0        0.0       0.00       98.1       1.42       0.00       11.0
10:38              28        1.6         68       19.8      160.4       19.8       21.3       13.8     1020.1       19.8       13.7        0.0        0.0        0.0       0.00       98.1       1.42       0.00       11.0
10:40              28        0.0         67       20.0      160.4       20.0       21.4       13.7     1020.1       20.0       13.7        0.0        0.0        0.0       0.00       98.2       1.42       0.00       11.0
10:42              28        3.2         67       20.0      160.4       20.0       21.4       13.7     1020.1       20.0       13.7        0.0        0.0        0.0       0.00       98.3       1.42       0.00       11.0
10:44              28        8.0         66       20.0      160.4       20.0       21.4       13.5     1020.1       20.1       13.7        0.0        0.0        0.0       0.00       98.5       1.42       0.00       11.0
10:46              28        6.4         66       20.1      160.4       20.1       21.4       13.5     1020.1       20.1       13.7        0.0        0.0        0.0       0.00       98.7       1.42       0.00       11.0
10:48              28        6.4         66       20.1      160.4       20.1       21.5       13.6     1020.1       20.1       13.7        0.0        0.0        0.0       0.00       98.7       1.42       0.00       11.0
10:50              28        3.2         65       20.2      160.4       20.2       21.5       13.4     1020.0       20.2       13.7        0.0        0.0        0.0       0.00       98.8       1.42       0.00       11.0
10:52              28        6.4         65       20.3      160.4       20.3       21.6       13.5     1020.1       20.3       13.7        0.0        0.0        0.0       0.00       98.9       1.42       0.00       11.0
10:53              28        6.4         65       20.4      160.4       20.4       21.8       13.6     1020.1       20.4       13.7        0.0        0.0        0.0       0.00       99.0       1.42       0.00       11.0
10:56              28        0.0         64       20.6      160.4       20.6       21.8       13.5     1020.1       20.6       13.7        0.0        0.0        0.0       0.00       99.1       1.42       0.00       11.0
10:58              28        1.6         63       20.7      160.4       20.7       21.9       13.4     1020.0       20.7       13.7        0.0        0.0        0.0       0.00       99.2       1.42       0.00       11.0
11:00              28        0.0         63       20.7      160.4       20.7       21.9       13.4     1020.0       20.7       13.7        0.0        0.0        0.0       0.00       99.2       1.42       0.00       11.0
11:02              28        0.0         62       20.7      160.4       20.7       21.8       13.2     1020.0       20.8       13.7        0.0        0.0        0.0       0.00       99.2       1.42       0.00       11.0
11:04              28        0.0         63       20.6      160.4       20.6       21.8       13.3     1020.0       20.8       13.7        0.0        0.0        0.0       0.00       99.2       1.42       0.00       11.0
11:06              28        4.8         63       20.6      160.4       20.6       21.7       13.3     1019.9       20.8       13.7        0.0        0.0        0.0       0.00       99.3       1.42       0.00       11.0
11:08              28        1.6         64       20.6      160.4       20.6       21.8       13.5     1019.9       20.8       13.7        0.0        0.0        0.0       0.00       99.4       1.42       0.00       11.0
11:10              28        1.6         63       20.5      160.4       20.5       21.7       13.2     1019.9       20.8       13.7        0.0        0.0        0.0       0.00       99.4       1.42       0.00       11.0
11:12              28        4.8         63       20.5      160.4       20.5       21.7       13.2     1019.9       20.8       13.7        0.0        0.0        0.0       0.00       99.5       1.42       0.00       11.0
11:14              28        3.2         63       20.5      160.4       20.5       21.7       13.2     1019.9       20.8       13.7        0.0        0.0        0.0       0.00       99.6       1.42       0.00       11.0
11:16              28        6.4         62       20.4      160.4       20.4       21.6       12.9     1019.8       20.8       13.7        0.0        0.0        0.0       0.00       99.7       1.42       0.00       11.0
11:18              28        1.6         62       20.4      160.4       20.4       21.5       12.9     1019.7       20.8       13.7        0.0        0.0        0.0       0.00       99.8       1.42       0.00       11.0
11:20              28        4.8         63       20.4      160.4       20.4       21.6       13.1     1019.8       20.8       13.7        0.0        0.0        0.0       0.00       99.9       1.42       0.00       11.0
11:22              28        4.8         63       20.5      160.4       20.5       21.7       13.2     1019.7       20.8       13.7        0.0        0.0        0.0       0.00      100.0       1.42       0.00       11.0
11:23              28        3.2         62       20.6      160.4       20.6       21.7       13.0     1019.8       20.8       13.7        0.0        0.0        0.0       0.00      100.0       1.42       0.00       11.0
11:26              28        6.4         62       20.6      160.4       20.6       21.7       13.1     1019.8       20.8       13.7        0.0        0.0        0.0       0.00      100.0       1.42       0.00       11.0
11:28              28        3.2         62       20.7      160.4       20.7       21.8       13.2     1019.7       20.8       13.7        0.0        0.0        0.0       0.00      100.1       1.42       0.00       11.0
11:30              28        1.6         62       20.7      160.4       20.7       21.8       13.2     1019.7       20.8       13.7        0.0        0.0        0.0       0.00      100.2       1.42       0.00       11.0
11:32              28        0.0         61       20.7      160.4       20.7       21.8       12.9     1019.7       20.8       13.7        0.0        0.0        0.0       0.00      100.2       1.42       0.00       11.0
11:34              28        3.2         62       20.7      160.4       20.7       21.8       13.2     1019.7       20.8       13.7        0.0        0.0        0.0       0.00      100.3       1.42       0.00       11.0
11:36              28        4.8         62       20.8      160.4       20.8       21.9       13.2     1019.6       20.8       13.7        0.0        0.0        0.0       0.00      100.4       1.42       0.00       11.0
11:38              28        3.2         62       20.7      160.4       20.7       21.8       13.2     1019.7       20.8       13.7        0.0        0.0        0.0       0.00      100.4       1.42       0.00       11.0
11:40              28        3.2         61       20.7      160.4       20.7       21.7       12.9     1019.6       20.8       13.7        0.0        0.0        0.0       0.00      100.5       1.42       0.00       11.0
11:42              28        6.4         62       20.6      160.4       20.6       21.7       13.1     1019.6       20.8       13.7        0.0        0.0        0.0       0.00      100.6       1.42       0.00       11.0
11:44              28        4.8         62       20.6      160.4       20.6       21.7       13.1     1019.6       20.8       13.7        0.0        0.0        0.0       0.00      100.8       1.42       0.00       11.0
11:46              28        3.2         63       20.6      160.4       20.6       21.8       13.3     1019.6       20.8       13.7        0.0        0.0        0.0       0.00      100.9       1.42       0.00       11.0
11:48              28        4.8         63       20.7      160.4       20.7       21.9       13.4     1019.5       20.8       13.7        0.0        0.0        0.0       0.00      101.0       1.42       0.00       11.0
11:50              28        4.8         62       20.8      160.4       20.8       21.9       13.2     1019.4       20.8       13.7        0.0        0.0        0.0       0.00      101.1       1.42       0.00       11.0
11:52              28        3.2         63       20.9      160.4       20.9       22.1       13.6     1019.5       20.9       13.7        0.0        0.0        0.0       0.00      101.1       1.42       0.00       11.0
11:54              28        8.0         62       20.9      160.4       20.9       22.1       13.4     1019.4       20.9       13.7        0.0        0.0        0.0       0.00      101.3       1.42       0.00       11.0
11:56              28        4.8         61       20.9      160.4       20.9       22.0       13.1     1019.4       20.9       13.7        0.0        0.0        0.0       0.00      101.5       1.42       0.00       11.0
11:58              28        4.8         61       20.9      160.4       20.9       22.0       13.1     1019.5       20.9       13.7        0.0        0.0        0.0       0.00      101.7       1.42       0.00       11.0
12:00              28        8.0         62       20.9      160.4       20.2       22.0       13.3     1019.4       20.9       13.7        0.0        0.0        0.0       0.00      101.8       1.42       0.00       11.0
12:02              28        3.2         62       20.9      160.4       20.9       22.0       13.3     1019.4       20.9       13.7        0.0        0.0        0.0       0.00      101.9       1.42       0.00       11.0
12:03              28        1.6         61       20.9      160.4       20.9       22.0       13.1     1019.4       20.9       13.7        0.0        0.0        0.0       0.00      101.9       1.42       0.00       11.0
12:06              28        8.0         61       21.0      160.4       21.0       22.1       13.2     1019.4       21.0       13.7        0.0        0.0        0.0       0.00      102.0       1.42       0.00       11.0
12:08              28        3.2         61       21.0      160.4       21.0       22.1       13.2     1019.3       21.0       13.7        0.0        0.0        0.0       0.00      102.1       1.42       0.00       11.0
12:10              28        8.0         62       21.0      160.4       20.3       22.1       13.4     1019.3       21.0       13.7        0.0        0.0        0.0       0.00      102.2       1.42       0.00       11.0
12:12              28        8.0         61       21.1      160.4       21.1       22.1       13.3     1019.3       21.1       13.7        0.0        0.0        0.0       0.00      102.4       1.42       0.00       11.0
12:14              28        8.0         61       21.1      160.4       21.1       22.1       13.3     1019.4       21.1       13.7        0.0        0.0        0.0       0.00      102.6       1.42       0.00       11.0
12:16              28        6.4         62       21.1      160.4       21.1       22.2       13.5     1019.3       21.1       13.7        0.0        0.0        0.0       0.00      102.8       1.42       0.00       11.0
12:18              28        3.2         61       21.0      160.4       21.0       22.1       13.2     1019.3       21.1       13.7        0.0        0.0        0.0       0.00      102.8       1.42       0.00       11.0
12:20              28        3.2         61       21.0      160.4       21.0       22.1       13.2     1019.4       21.1       13.7        0.0        0.0        0.0       0.00      102.9       1.42       0.00       11.0
12:22              28        4.8         61       21.1      160.4       21.1       22.1       13.3     1019.4       21.1       13.7        0.0        0.0        0.0       0.00      102.9       1.42       0.00       11.0
12:24              28        8.0         61       21.1      160.4       21.1       22.2       13.3     1019.3       21.1       13.7        0.0        0.0        0.0       0.00      103.0       1.42       0.00       11.0
12:26              28        6.4         62       21.3      160.4       21.3       22.5       13.8     1019.3       21.3       13.7        0.0        0.0        0.0       0.00      103.1       1.42       0.00       11.0
12:28              28        6.4         61       21.5      160.4       21.5       22.6       13.7     1019.4       21.5       13.7        0.0        0.0        0.0       0.00      103.2       1.42       0.00       11.0
12:30              28        8.0         60       21.6      160.4       21.6       22.6       13.5     1019.3       21.6       13.7        0.0        0.0        0.0       0.00      103.4       1.42       0.00       11.0
12:32              28        4.8         60       21.7      160.4       21.7       22.7       13.6     1019.3       21.7       13.7        0.0        0.0        0.0       0.00      103.5       1.42       0.00       11.0
12:34              28        4.8         59       21.8      160.4       21.8       22.7       13.4     1019.3       21.8       13.7        0.0        0.0        0.0       0.00      103.7       1.42       0.00       11.0
12:36              28        4.8         59       21.8      160.4       21.8       22.7       13.4     1019.3       21.8       13.7        0.0        0.0        0.0       0.00      103.8       1.42       0.00       11.0
12:38              28        3.2         59       21.8      160.4       21.8       22.7       13.4     1019.3       21.8       13.7        0.0        0.0        0.0       0.00      103.9       1.42       0.00       11.0
12:40              28        3.2         59       21.7      160.4       21.7       22.7       13.4     1019.3       21.8       13.7        0.0        0.0        0.0       0.00      104.0       1.42       0.00       11.0
12:42              28        0.0         59       21.8      160.4       21.8       22.8       13.5     1019.3       21.8       13.7        0.0        0.0        0.0       0.00      104.0       1.42       0.00       11.0
12:44              28        0.0         59       21.9      160.4       21.9       22.8       13.5     1019.3       21.9       13.7        0.0        0.0        0.0       0.00      104.0       1.42       0.00       11.0
12:46              28        0.0         59       22.0      160.4       22.0       22.9       13.6     1019.3       22.0       13.7        0.0        0.0        0.0       0.00      104.0       1.42       0.00       11.0
12:48              28        4.8         58       22.1      160.4       22.1       22.9       13.4     1019.3       22.1       13.7        0.0        0.0        0.0       0.00      104.1       1.42       0.00       11.0
12:50              28        4.8         58       22.2      160.4       22.2       23.1       13.5     1019.3       22.2       13.7        0.0        0.0        0.0       0.00      104.2       1.42       0.00       11.0
12:51              28        8.0         57       22.2      160.4       22.2       23.1       13.3     1019.3       22.2       13.7        0.0        0.0        0.0       0.00      104.3       1.42       0.00       11.0
12:53              28        3.2         57       22.3      160.4       22.3       23.2       13.4     1019.2       22.3       13.7        0.0        0.0        0.0       0.00      104.4       1.42       0.00       11.0
12:55              28        3.2         58       22.4      160.4       22.4       23.3       13.8     1019.2       22.4       13.7        0.0        0.0        0.0       0.00      104.5       1.42       0.00       11.0
12:58              28        0.0         57       22.5      160.4       22.5       23.3       13.6     1019.1       22.5       13.7        0.0        0.0        0.0       0.00      104.5       1.42       0.00       11.0
13:00              28        3.2         56       22.6      160.4       22.6       23.3       13.3     1019.0       22.6       13.7        0.0        0.0        0.0       0.00      104.6       1.42       0.00       11.0
13:02              28        4.8         56       22.5      160.4       22.5       23.3       13.3     1019.0       22.6       13.7        0.0        0.0        0.0       0.00      104.7       1.42       0.01       11.0
13:04              28        0.0         56       22.6      160.4       22.6       23.3       13.3     1018.9       22.6       13.7        0.0        0.0        0.0       0.00      104.7       1.42       0.01       11.0
13:06              28        4.8         56       22.6      160.4       22.6       23.4       13.4     1018.9       22.6       13.7        0.0        0.0        0.0       0.00      104.8       1.42       0.01       11.0
13:08              28        3.2         56       22.7      160.4       22.7       23.5       13.5     1018.8       22.7       13.7        0.0        0.0        0.0       0.00      104.9       1.42       0.01       11.0
13:10              28        1.6         56       22.8      160.4       22.8       23.6       13.6     1018.8       22.8       13.7        0.0        0.0        0.0       0.00      104.9       1.42       0.01       11.0
13:12              28        1.6         55       22.9      160.4       22.9       23.7       13.4     1018.9       22.9       13.7        0.0        0.0        0.0       0.00      105.0       1.42       0.01       11.0
13:14              28        4.8         55       23.0      160.4       23.0       23.7       13.5     1018.9       23.0       13.7        0.0        0.0        0.0       0.00      105.1       1.42       0.01       11.0
13:16              28        4.8         55       22.9      160.4       22.9       23.7       13.4     1019.0       23.0       13.7        0.0        0.0        0.0       0.00      105.2       1.42       0.02       11.0
13:18              28        4.8         54       22.9      160.4       22.9       23.5       13.1     1018.9       23.0       13.7        0.0        0.0        0.0       0.00      105.3       1.42       0.02       11.0
13:20              28        4.8         55       22.9      160.4       22.9       23.6       13.4     1018.9       23.0       13.7        0.0        0.0        0.0       0.00      105.4       1.42       0.02       11.0
13:22              28        4.8         55       22.8      160.4       22.8       23.5       13.3     1018.9       23.0       13.7        0.0        0.0        0.0       0.00      105.5       1.42       0.02       11.0
13:24              28        3.2         55       22.7      160.4       22.7       23.4       13.2     1018.9       23.0       13.7        0.0        0.0        0.0       0.00      105.6       1.42       0.02       11.0
13:26              28        3.2         55       22.7      160.4       22.7       23.4       13.2     1018.8       23.0       13.7        0.0        0.0        0.0       0.00      105.7       1.42       0.02       11.0
13:28              28        6.4         55       22.7      160.4       22.7       23.4       13.2     1018.8       23.0       13.7        0.0        0.0        0.0       0.00      105.8       1.42       0.02       11.0
13:30              27        6.4         55       22.5      160.4       22.5       23.2       13.0     1018.7       23.0       13.7        0.0        0.0        0.0       0.00      106.0       1.42       0.02       11.0
13:32              28        0.0         55       22.3      160.4       22.3       23.0       12.9     1018.8       23.0       13.7        0.0        0.0        0.0       0.00      106.1       1.42       0.02       11.0
13:34              28       12.9         57       22.3      160.4       21.3       23.1       13.4     1018.8       23.0       13.7        0.0        0.0        0.0       0.00      106.2       1.42       0.02       11.0
13:36              28        3.2         56       22.3      160.4       22.3       23.1       13.1     1018.8       23.0       13.7        0.0        0.0        0.0       0.00      106.4       1.42       0.02       11.0
13:38              28        1.6         55       22.2      160.4       22.2       22.9       12.8     1018.8       23.0       13.7        0.0        0.0        0.0       0.00      106.5       1.42       0.02       11.0
13:40              28        3.2         56       22.2      160.4       22.2       23.0       13.0     1018.7       23.0       13.7        0.0        0.0        0.0       0.00      106.5       1.42       0.02       11.0
13:42              28        1.6         56       22.2      160.4       22.2       23.0       13.0     1018.7       23.0       13.7        0.0        0.0        0.0       0.00      106.6       1.42       0.02       11.0
13:44              28        3.2         56       22.2      160.4       22.2       23.0       13.0     1018.6       23.0       13.7        0.0        0.0        0.0       0.00      106.6       1.42       0.02       11.0
13:46              27        4.8         56       22.3      160.4       22.3       23.1       13.1     1018.7       23.0       13.7        0.0        0.0        0.0       0.00      106.8       1.42       0.02       11.0
13:48              27        1.6         56       22.4      160.4       22.4       23.2       13.2     1018.6       23.0       13.7        0.0        0.0        0.0       0.00      106.9       1.42       0.02       11.0
13:50              28        3.2         56       22.5      160.4       22.5       23.3       13.3     1018.6       23.0       13.7        0.0        0.0        0.0       0.00      106.9       1.42       0.02       11.0
13:52              28        1.6         56       22.6      160.4       22.6       23.4       13.4     1018.6       23.0       13.7        0.0        0.0        0.0       0.00      107.0       1.42       0.02       11.0
13:54              28        3.2         56       22.7      160.4       22.7       23.5       13.5     1018.5       23.0       13.7        0.0        0.0        0.0       0.00      107.0       1.42       0.02       11.0
13:56              28        1.6         55       22.8      160.4       22.8       23.5       13.3     1018.5       23.0       13.7        0.0        0.0        0.0       0.00      107.0       1.42       0.02       11.0
13:58              28        0.0         55       23.0      160.4       23.0       23.7       13.5     1018.5       23.0       13.7        0.0        0.0        0.0       0.00      107.0       1.42       0.02       11.0
14:00              28        0.0         55       23.1      160.4       23.1       23.8       13.6     1018.4       23.1       13.7        0.0        0.0        0.0       0.00      107.0       1.42       0.02       11.0
14:01              28        0.0         55       23.2      160.4       23.2       23.9       13.7     1018.4       23.2       13.7        0.0        0.0        0.0       0.00      107.0       1.42       0.04       11.0
14:04              28        0.0         54       23.3      160.4       23.3       24.0       13.5     1018.4       23.3       13.7        0.0        0.0        0.0       0.00      107.0       1.42       0.04       11.0
14:05              28        0.0         53       23.3      160.4       23.3       23.9       13.2     1018.4       23.3       13.7        0.0        0.0        0.0       0.00      107.0       1.42       0.04       11.0
14:08              27        0.0         53       23.4      160.4       23.4       24.0       13.3     1018.4       23.4       13.7        0.0        0.0        0.0       0.00      107.1       1.42       0.04       11.0
14:10              28        0.0         54       23.5      160.4       23.5       24.2       13.7     1018.4       23.5       13.7        0.0        0.0        0.0       0.00      107.1       1.42       0.04       11.0
14:12              28        4.8         53       23.6      160.4       23.6       24.2       13.4     1018.3       23.6       13.7        0.0        0.0        0.0       0.00      107.2       1.42       0.04       11.0
14:14              27        3.2         52       23.6      160.4       23.6       24.1       13.1     1018.3       23.6       13.7        0.0        0.0        0.0       0.00      107.3       1.42       0.04       11.0
14:16              27        4.8         52       23.6      160.4       23.6       24.1       13.1     1018.3       23.6       13.7        0.0        0.0        0.0       0.00      107.5       1.42       0.05       11.0
14:18              28       14.5         52       23.4      160.4       21.9       24.0       13.0     1018.3       23.6       13.7        0.0        0.0        0.0       0.00      107.6       1.42       0.05       11.0
14:20              27        4.8         52       23.3      160.4       23.3       23.9       12.9     1018.3       23.6       13.7        0.0        0.0        0.0       0.00      107.9       1.42       0.05       11.0
14:22              28        6.4         53       23.3      160.4       23.3       23.9       13.2     1018.3       23.6       13.7        0.0        0.0        0.0       0.00      108.1       1.42       0.05       11.0
14:24              28        8.0         52       23.2      160.4       22.7       23.8       12.8     1018.2       23.6       13.7        0.0        0.0        0.0       0.00      108.2       1.42       0.05       11.0
14:26              28        4.8         52       23.2      160.4       23.2       23.7       12.8     1018.2       23.6       13.7        0.0        0.0        0.0       0.00      108.4       1.42       0.05       11.0
14:28              27        3.2         52       23.1      160.4       23.1       23.6       12.7     1018.3       23.6       13.7        0.0        0.0        0.0       0.00      108.4       1.42       0.05       11.0
14:30              28        3.2         52       23.1      160.4       23.1       23.6       12.7     1018.2       23.6       13.7        0.0        0.0        0.0       0.00      108.6       1.42       0.05       11.0
14:32              28        4.8         52       23.2      160.4       23.2       23.7       12.8     1018.2       23.6       13.7        0.0        0.0        0.0       0.00      108.7       1.42       0.06       11.0
14:34              27        3.2         51       23.2      160.4       23.2       23.7       12.5     1018.1       23.6       13.7        0.0        0.0        0.0       0.00      108.8       1.42       0.06       11.0
14:36              28        1.6         52       23.3      160.4       23.3       23.9       12.9     1018.1       23.6       13.7        0.0        0.0        0.0       0.00      108.8       1.42       0.06       11.0
14:38              27        4.8         53       23.4      160.4       23.4       24.1       13.3     1018.1       23.6       13.7        0.0        0.0        0.0       0.00      108.9       1.42       0.06       11.0
14:40              28        6.4         53       23.6      160.4       23.6       24.2       13.5     1018.1       23.6       13.7        0.0        0.0        0.0       0.00      109.0       1.42       0.06       11.0
14:42              28        3.2         52       23.7      160.4       23.7       24.3       13.3     1018.2       23.7       13.7        0.0        0.0        0.0       0.00      109.1       1.42       0.06       11.0
14:44              27        3.2         51       23.8      160.4       23.8       24.3       13.1     1018.2       23.8       13.7        0.0        0.0        0.0       0.00      109.2       1.42       0.06       11.0
14:46              28        4.8         52       23.9      160.4       23.9       24.5       13.5     1018.1       23.9       13.7        0.0        0.0        0.0       0.00      109.3       1.42       0.08       11.0
14:48              28        1.6         52       24.1      160.4       24.1       24.6       13.6     1018.0       24.1       13.7        0.0        0.0        0.0       0.00      109.4       1.42       0.08       11.0
14:50              28        3.2         51       24.1      160.4       24.1       24.6       13.4     1017.9       24.1       13.7        0.0        0.0        0.0       0.00      109.4       1.42       0.08       11.0
14:52              28        4.8         50       24.2      160.4       24.2       24.7       13.2     1018.0       24.2       13.7        0.0        0.0        0.0       0.00      109.6       1.42       0.08       11.0
14:54              28        3.2         51       24.4      160.4       24.4       24.9       13.6     1018.0       24.4       13.7        0.0        0.0        0.0       0.00      109.6       1.42       0.08       11.0
14:56              27        8.0         51       24.5      160.4       24.5       25.0       13.7     1018.0       24.5       13.7        0.0        0.0        0.0       0.00      109.7       1.42       0.08       11.0
14:58              28        3.2         50       24.5      160.4       24.5       24.9       13.4     1018.1       24.5       13.7        0.0        0.0        0.0       0.00      109.8       1.42       0.08       11.0
15:00              28        3.2         50       24.4      160.4       24.4       24.8       13.3     1018.0       24.5       13.7        0.0        0.0        0.0       0.00      110.0       1.42       0.08       11.0
15:02              27        8.0         50       24.3      160.4       24.3       24.7       13.2     1017.9       24.5       13.7        0.0        0.0        0.0       0.00      110.2       1.42       0.11       11.0
15:04              27        1.6         50       24.2      160.4       24.2       24.6       13.1     1018.0       24.5       13.7        0.0        0.0        0.0       0.00      110.3       1.42       0.11       11.0
15:06              27        9.7         50       24.1      160.4       23.6       24.5       13.0     1018.0       24.5       13.7        0.0        0.0        0.0       0.00      110.4       1.42       0.11       11.0
15:08              27        4.8         52       24.0      160.4       24.0       24.6       13.5     1017.9       24.5       13.7        0.0        0.0        0.0       0.00      110.5       1.42       0.11       11.0
15:10              27        6.4         51       23.9      160.4       23.9       24.4       13.2     1017.9       24.5       13.7        0.0        0.0        0.0       0.00      110.6       1.42       0.11       11.0
15:12              27        3.2         50       23.8      160.4       23.8       24.3       12.8     1017.9       24.5       13.7        0.0        0.0        0.0       0.00      110.7       1.42       0.11       11.0
15:14              27        6.4         51       23.7      160.4       23.7       24.2       12.9     1017.8       24.5       13.7        0.0        0.0        0.0       0.00      110.9       1.42       0.11       11.0
15:15              27        0.0         52       23.6      160.4       23.6       24.1       13.1     1017.8       24.5       13.7        0.0        0.0        0.0       0.00      110.9       1.42       0.12       11.0
15:18              27        3.2         52       23.6      160.4       23.6       24.1       13.1     1017.8       24.5       13.7        0.0        0.0        0.0       0.00      111.0       1.42       0.12       11.0
15:20              27        0.0         52       23.6      160.4       23.6       24.2       13.2     1017.7       24.5       13.7        0.0        0.0        0.0       0.00      111.0       1.42       0.12       11.0
15:22              27        0.0         51       23.7      160.4       23.7       24.2       13.0     1017.6       24.5       13.7        0.0        0.0        0.0       0.00      111.0       1.42       0.12       11.0
15:24              27        0.0         52       23.8      160.4       23.8       24.3       13.3     1017.7       24.5       13.7        0.0        0.0        0.0       0.00      111.0       1.42       0.12       11.0
15:26              27        6.4         51       23.8      160.4       23.8       24.3       13.1     1017.6       24.5       13.7        0.0        0.0        0.0       0.00      111.1       1.42       0.12       11.0
15:28              27        6.4         51       23.9      160.4       23.9       24.4       13.1     1017.6       24.5       13.7        0.0        0.0        0.0       0.00      111.2       1.42       0.12       11.0
15:30              27        6.4         51       23.9      160.4       23.9       24.4       13.1     1017.6       24.5       13.7        0.0        0.0        0.0       0.00      111.4       1.42       0.12       11.0
15:32              27        3.2         51       23.9      160.4       23.9       24.4       13.1     1017.7       24.5       13.7        0.0        0.0        0.0       0.00      111.5       1.42       0.14       11.0
15:34              27        0.0         51       23.9      160.4       23.9       24.4       13.1     1017.6       24.5       13.7        0.0        0.0        0.0       0.00      111.5       1.42       0.14       11.0
15:35              27        1.6         51       23.8      160.4       23.8       24.3       13.1     1017.6       24.5       13.7        0.0        0.0        0.0       0.00      111.6       1.42       0.14       11.0
15:38              27        3.2         53       23.8      160.4       23.8       24.4       13.6     1017.6       24.5       13.7        0.0        0.0        0.0       0.00      111.6       1.42       0.14       11.0
15:40              27        3.2         52       23.7      160.4       23.7       24.3       13.3     1017.6       24.5       13.7        0.0        0.0        0.0       0.00      111.7       1.42       0.14       11.0
15:42              27        3.2         52       23.7      160.4       23.7       24.3       13.3     1017.4       24.5       13.7        0.0        0.0        0.0       0.00      111.7       1.42       0.14       11.0
15:44              27        6.4         52       23.7      160.4       23.7       24.3       13.3     1017.4       24.5       13.7        0.0        0.0        0.0       0.00      111.9       1.42       0.14       11.0
15:46              27        3.2         51       23.6      160.4       23.6       24.1       12.9     1017.4       24.5       13.7        0.0        0.0        0.0       0.00      111.9       1.42       0.16       11.0
15:48              27        0.0         51       23.5      160.4       23.5       24.0       12.8     1017.5       24.5       13.7        0.0        0.0        0.0       0.00      112.0       1.42       0.16       11.0
15:50              27        3.2         52       23.5      160.4       23.5       24.1       13.1     1017.4       24.5       13.7        0.0        0.0        0.0       0.00      112.0       1.42       0.16       11.0
15:52              27        1.6         52       23.4      160.4       23.4       24.0       13.0     1017.4       24.5       13.7        0.0        0.0        0.0       0.00      112.1       1.42       0.16       11.0
15:54              27        0.0         52       23.4      160.4       23.4       23.9       13.0     1017.4       24.5       13.7        0.0        0.0        0.0       0.00      112.1       1.42       0.16       11.0
15:56              27        3.2         53       23.3      160.4       23.3       23.9       13.2     1017.4       24.5       13.7        0.0        0.0        0.0       0.00      112.2       1.42       0.16       11.0
15:58              27        3.2         52       23.3      160.4       23.3       23.8       12.9     1017.4       24.5       13.7        0.0        0.0        0.0       0.00      112.3       1.42       0.16       11.0
16:00              27        1.6         52       23.2      160.4       23.2       23.8       12.8     1017.3       24.5       13.7        0.0        0.0        0.0       0.00      112.3       1.42       0.16       11.0
16:02              27        3.2         53       23.2      160.4       23.2       23.8       13.1     1017.4       24.5       13.7        0.0        0.0        0.0       0.00      112.3       1.42       0.17       11.0
16:04              27        3.2         53       23.1      160.4       23.1       23.7       13.0     1017.3       24.5       13.7        0.0        0.0        0.0       0.00      112.4       1.42       0.17       11.0
16:06              27        4.8         53       23.1      160.4       23.1       23.7       13.0     1017.4       24.5       13.7        0.0        0.0        0.0       0.00      112.6       1.42       0.17       11.0
16:08              27        4.8         53       23.1      160.4       23.1       23.7       13.0     1017.3       24.5       13.7        0.0        0.0        0.0       0.00      112.7       1.42       0.17       11.0
16:10              27        3.2         53       22.9      160.4       22.9       23.6       12.9     1017.3       24.5       13.7        0.0        0.0        0.0       0.00      112.8       1.42       0.17       11.0
16:12              27        3.2         53       22.9      160.4       22.9       23.5       12.8     1017.4       24.5       13.7        0.0        0.0        0.0       0.00      112.9       1.42       0.17       11.0
16:14              27        4.8         53       22.8      160.4       22.8       23.4       12.8     1017.4       24.5       13.7        0.0        0.0        0.0       0.00      112.9       1.42       0.17       11.0
16:16              27        4.8         53       22.8      160.4       22.8       23.4       12.8     1017.3       24.5       13.7        0.0        0.0        0.0       0.00      113.0       1.42       0.18       11.0
16:18              27        3.2         54       22.8      160.4       22.8       23.4       13.0     1017.4       24.5       13.7        0.0        0.0        0.0       0.00      113.1       1.42       0.18       11.0
16:20              27        1.6         54       22.8      160.4       22.8       23.4       13.0     1017.4       24.5       13.7        0.0        0.0        0.0       0.00      113.1       1.42       0.18       11.0
16:22              27        0.0         54       22.8      160.4       22.8       23.5       13.0     1017.4       24.5       13.7        0.0        0.0        0.0       0.00      113.1       1.42       0.18       11.0
16:24              27        0.0         55       22.9      160.4       22.9       23.6       13.4     1017.4       24.5       13.7        0.0        0.0        0.0       0.00      113.1       1.42       0.18       11.0
16:26              27        0.0         55       22.9      160.4       22.9       23.6       13.4     1017.4       24.5       13.7        0.0        0.0        0.0       0.00      113.1       1.42       0.18       11.0
16:28              27        4.8         54       22.9      160.4       22.9       23.6       13.1     1017.4       24.5       13.7        0.0        0.0        0.0       0.00      113.2       1.42       0.18       11.0
16:30              27        3.2         54       22.9      160.4       22.9       23.6       13.1     1017.3       24.5       13.7        0.0        0.0        0.0       0.00      113.2       1.42       0.18       11.0
16:32              27        3.2         54       22.9      160.4       22.9       23.6       13.1     1017.2       24.5       13.7        0.0        0.0        0.0       0.00      113.3       1.42       0.19       11.0
16:34              27        3.2         54       22.9      160.4       22.9       23.5       13.1     1017.1       24.5       13.7        0.0        0.0        0.0       0.00      113.3       1.42       0.19       11.0
16:36              27        3.2         54       22.9      160.4       22.9       23.5       13.1     1017.1       24.5       13.7        0.0        0.0        0.0       0.00      113.4       1.42       0.19       11.0
16:38              27        3.2         54       22.9      160.4       22.9       23.5       13.1     1017.2       24.5       13.7        0.0        0.0        0.0       0.00      113.4       1.42       0.19       11.0
16:39              27        1.6         54       22.9      160.4       22.9       23.5       13.1     1017.1       24.5       13.7        0.0        0.0        0.0       0.00      113.5       1.42       0.19       11.0
16:42              27        6.4         54       22.8      160.4       22.8       23.4       13.0     1017.2       24.5       13.7        0.0        0.0        0.0       0.00      113.6       1.42       0.19       11.0
16:44              27        4.8         54       22.7      160.4       22.7       23.4       12.9     1017.2       24.5       13.7        0.0        0.0        0.0       0.00      113.7       1.42       0.19       11.0
16:46              27        3.2         55       22.7      160.4       22.7       23.4       13.2     1017.1       24.5       13.7        0.0        0.0        0.0       0.00      113.8       1.42       0.20       11.0
16:48              27        6.4         55       22.7      160.4       22.7       23.4       13.2     1017.2       24.5       13.7        0.0        0.0        0.0       0.00      113.9       1.42       0.20       11.0
16:50              24        8.0         58       22.7      160.4       22.7       23.6       14.0     1017.2       24.5       13.7        0.0        0.0        0.0       0.00      114.1       1.42       0.20       11.0
16:52              24        6.4         59       22.6      160.4       22.6       23.5       14.1     1017.3       24.5       13.7        0.0        0.0        0.0       0.00      114.2       1.42       0.20       11.0
16:54              19        3.2         60       22.5      160.4       22.5       23.5       14.4     1017.3       24.5       13.7        0.0        0.0        0.0       0.00      114.4       1.42       0.20       11.0
16:55              11        6.4         60       22.4      160.4       22.4       23.4       14.3     1017.3       24.5       13.7        0.0        0.0        0.0       0.00      114.5       1.42       0.20       11.0
16:57               5        4.8         60       22.3      160.4       22.3       23.3       14.2     1017.3       24.5       13.7        0.0        0.0        0.0       0.00      114.7       1.42       0.20       11.0
17:00               9        4.8         61       22.2      160.4       22.2       23.3       14.4     1017.3       24.5       13.7        0.0        0.0        0.0       0.00      114.9       1.42       0.20       11.0
17:01             360        4.8         61       22.2      160.4       22.2       23.2       14.3     1017.4       24.5       13.7        0.0        0.0        0.0       0.00      115.0       1.42       0.20       11.0
17:04             355        9.7         62       22.1      160.4       21.1       23.2       14.5     1017.4       24.5       13.7        0.0        0.0        0.0       0.00      115.2       1.42       0.20       11.0
17:06             355        6.4         61       22.1      160.4       22.1       23.1       14.2     1017.4       24.5       13.7        0.0        0.0        0.0       0.00      115.3       1.42       0.20       11.0
17:07             340        4.8         61       22.0      160.4       22.0       23.1       14.1     1017.3       24.5       13.7        0.0        0.0        0.0       0.00      115.5       1.42       0.20       11.0
17:10             338        4.8         61       22.0      160.4       22.0       23.1       14.1     1017.4       24.5       13.7        0.0        0.0        0.0       0.00      115.6       1.42       0.20       11.0
17:12             337        3.2         61       21.9      160.4       21.9       23.0       14.1     1017.4       24.5       13.7        0.0        0.0        0.0       0.00      115.7       1.42       0.20       11.0
17:14             337        3.2         62       21.9      160.4       21.9       23.0       14.3     1017.4       24.5       13.7        0.0        0.0        0.0       0.00      115.8       1.42       0.20       11.0
17:16             337        3.2         62       21.9      160.4       21.9       23.0       14.3     1017.4       24.5       13.7        0.0        0.0        0.0       0.00      115.9       1.42       0.20       11.0
17:18             337        1.6         62       21.9      160.4       21.9       23.0       14.3     1017.5       24.5       13.7        0.0        0.0        0.0       0.00      116.0       1.42       0.20       11.0
17:20             337        1.6         62       21.9      160.4       21.9       23.0       14.3     1017.4       24.5       13.7        0.0        0.0        0.0       0.00      116.0       1.42       0.20       11.0
17:22             337        3.2         62       21.9      160.4       21.9       23.0       14.3     1017.3       24.5       13.7        0.0        0.0        0.0       0.00      116.1       1.42       0.20       11.0
17:24             337        4.8         63       21.9      160.4       21.9       23.1       14.5     1017.3       24.5       13.7        0.0        0.0        0.0       0.00      116.2       1.42       0.20       11.0
17:26             336        3.2         62       21.9      160.4       21.9       23.0       14.3     1017.3       24.5       13.7        0.0        0.0        0.0       0.00      116.3       1.42       0.20       11.0
17:28             336        4.8         61       21.9      160.4       21.9       23.0       14.0     1017.3       24.5       13.7        0.0        0.0        0.0       0.00      116.4       1.42       0.20       11.0
17:30             336        4.8         61       21.9      160.4       21.9       23.0       14.0     1017.2       24.5       13.7        0.0        0.0        0.0       0.00      116.5       1.42       0.20       11.0
17:32             336        4.8         61       21.9      160.4       21.9       23.0       14.1     1017.3       24.5       13.7        0.0        0.0        0.0       0.00      116.6       1.42       0.20       11.0
17:34             336        3.2         61       21.9      160.4       21.9       23.0       14.1     1017.3       24.5       13.7        0.0        0.0        0.0       0.00      116.7       1.42       0.20       11.0
17:36             336        1.6         62       21.9      160.4       21.9       23.1       14.3     1017.4       24.5       13.7        0.0        0.0        0.0       0.00      116.8       1.42       0.20       11.0
17:38             336        6.4         61       22.0      160.4       22.0       23.1       14.1     1017.3       24.5       13.7        0.0        0.0        0.0       0.00      116.9       1.42       0.20       11.0
17:39             336        3.2         60       21.9      160.4       21.9       22.9       13.8     1017.4       24.5       13.7        0.0        0.0        0.0       0.00      117.1       1.42       0.20       11.0
17:42             336        4.8         60       21.9      160.4       21.9       22.9       13.8     1017.3       24.5       13.7        0.0        0.0        0.0       0.00      117.2       1.42       0.20       11.0
17:44             336        3.2         60       21.9      160.4       21.9       22.9       13.8     1017.3       24.5       13.7        0.0        0.0        0.0       0.00      117.3       1.42       0.20       11.0
17:46             336        4.8         61       22.0      160.4       22.0       23.1       14.1     1017.3       24.5       13.7        0.0        0.0        0.0       0.00      117.5       1.42       0.20       11.0
17:47             336        3.2         61       22.0      160.4       22.0       23.1       14.1     1017.2       24.5       13.7        0.0        0.0        0.0       0.00      117.6       1.42       0.20       11.0
17:50             336        4.8         61       22.0      160.4       22.0       23.1       14.1     1017.3       24.5       13.7        0.0        0.0        0.0       0.00      117.7       1.42       0.20       11.0
17:52             336        9.7         60       22.0      160.4       22.0       23.0       13.9     1017.3       24.5       13.7        0.0        0.0        0.0       0.00      117.8       1.42       0.20       11.0
17:54             336        3.2         60       21.9      160.4       21.9       22.9       13.8     1017.3       24.5       13.7        0.0        0.0        0.0       0.00      118.0       1.42       0.20       11.0
17:56             336        4.8         61       21.9      160.4       21.9       23.0       14.0     1017.2       24.5       13.7        0.0        0.0        0.0       0.00      118.1       1.42       0.20       11.0
17:58             336        4.8         61       21.9      160.4       21.9       23.0       14.0     1017.1       24.5       13.7        0.0        0.0        0.0       0.00      118.2       1.42       0.20       11.0
18:00             336        4.8         61       21.9      160.4       21.9       23.0       14.0     1017.2       24.5       13.7        0.0        0.0        0.0       0.00      118.3       1.42       0.20       11.0
18:02             336        4.8         61       21.8      160.4       21.8       22.9       14.0     1017.1       24.5       13.7        0.0        0.0        0.0       0.00      118.5       1.42       0.20       11.0
18:04             336        4.8         61       21.8      160.4       21.8       22.9       14.0     1017.2       24.5       13.7        0.0        0.0        0.0       0.00      118.6       1.42       0.20       11.0
18:05             336        4.8         61       21.8      160.4       21.8       22.9       14.0     1017.2       24.5       13.7        0.0        0.0        0.0       0.00      118.7       1.42       0.20       11.0
18:08             336        3.2         61       21.8      160.4       21.8       22.9       14.0     1017.1       24.5       13.7        0.0        0.0        0.0       0.00      118.8       1.42       0.20       11.0
18:10             336        6.4         61       21.8      160.4       21.8       22.9       14.0     1017.1       24.5       13.7        0.0        0.0        0.0       0.00      118.9       1.42       0.20       11.0
18:12             336        3.2         61       21.8      160.4       21.8       22.9       14.0     1017.1       24.5       13.7        0.0        0.0        0.0       0.00      119.0       1.42       0.20       11.0
18:14             336        3.2         60       21.8      160.4       21.8       22.8       13.7     1017.0       24.5       13.7        0.0        0.0        0.0       0.00      119.1       1.42       0.20       11.0
18:16             336        3.2         60       21.7      160.4       21.7       22.7       13.6     1017.0       24.5       13.7        0.0        0.0        0.0       0.00      119.2       1.42       0.20       11.0
18:18             336        3.2         60       21.7      160.4       21.7       22.7       13.6     1017.0       24.5       13.7        0.0        0.0        0.0       0.00      119.3       1.42       0.20       11.0
18:20             336        4.8         60       21.7      160.4       21.7       22.7       13.6     1017.0       24.5       13.7        0.0        0.0        0.0       0.00      119.4       1.42       0.20       11.0
18:22             336        3.2         60       21.7      160.4       21.7       22.7       13.6     1017.0       24.5       13.7        0.0        0.0        0.0       0.00      119.5       1.42       0.20       11.0
18:24             336        3.2         61       21.7      160.4       21.7       22.8       13.9     1017.1       24.5       13.7        0.0        0.0        0.0       0.00      119.6       1.42       0.20       11.0
18:26             336        1.6         61       21.7      160.4       21.7       22.8       13.9     1017.2       24.5       13.7        0.0        0.0        0.0       0.00      119.7       1.42       0.20       11.0
18:28             336        3.2         61       21.7      160.4       21.7       22.7       13.8     1017.0       24.5       13.7        0.0        0.0        0.0       0.00      119.7       1.42       0.20       11.0
18:30             336        3.2         62       21.7      160.4       21.7       22.8       14.1     1017.0       24.5       13.7        0.0        0.0        0.0       0.00      119.8       1.42       0.20       11.0
18:32             336        4.8         61       21.6      160.4       21.6       22.7       13.8     1017.1       24.5       13.7        0.0        0.0        0.0       0.00      120.0       1.42       0.20       11.0
18:34             336        4.8         62       21.6      160.4       21.6       22.7       14.0     1017.2       24.5       13.7        0.0        0.0        0.0       0.00      120.0       1.42       0.20       11.0
18:36             336        4.8         62       21.6      160.4       21.6       22.7       14.0     1017.2       24.5       13.7        0.0        0.0        0.0       0.00      120.1       1.42       0.20       11.0
18:37             336        6.4         62       21.6      160.4       21.6       22.7       14.0     1017.2       24.5       13.7        0.0        0.0        0.0       0.00      120.2       1.42       0.20       11.0
18:40             336        3.2         62       21.6      160.4       21.6       22.7       14.0     1017.2       24.5       13.7        0.0        0.0        0.0       0.00      120.3       1.42       0.20       11.0
18:42             336        4.8         62       21.5      160.4       21.5       22.6       13.9     1017.3       24.5       13.7        0.0        0.0        0.0       0.00      120.4       1.42       0.20       11.0
18:44             336        3.2         62       21.5      160.4       21.5       22.6       13.9     1017.3       24.5       13.7        0.0        0.0        0.0       0.00      120.5       1.42       0.20       11.0
18:46             336        3.2         62       21.4      160.4       21.4       22.6       13.9     1017.3       24.5       13.7        0.0        0.0        0.0       0.00      120.6       1.42       0.20       11.0
18:48             336        1.6         62       21.4      160.4       21.4       22.6       13.9     1017.3       24.5       13.7        0.0        0.0        0.0       0.00      120.6       1.42       0.20       11.0
18:50             336        3.2         62       21.4      160.4       21.4       22.6       13.9     1017.3       24.5       13.7        0.0        0.0        0.0       0.00      120.7       1.42       0.20       11.0
18:52             336        4.8         62       21.4      160.4       21.4       22.6       13.9     1017.3       24.5       13.7        0.0        0.0        0.0       0.00      120.8       1.42       0.20       11.0
18:54             336        6.4         62       21.4      160.4       21.4       22.6       13.9     1017.3       24.5       13.7        0.0        0.0        0.0       0.00      120.9       1.42       0.20       11.0
18:55             336        3.2         62       21.4      160.4       21.4       22.5       13.8     1017.3       24.5       13.7        0.0        0.0        0.0       0.00      121.1       1.42       0.20       11.0
18:58             336        4.8         62       21.4      160.4       21.4       22.6       13.9     1017.3       24.5       13.7        0.0        0.0        0.0       0.00      121.1       1.42       0.20       11.0
19:00             336        6.4         62       21.4      160.4       21.4       22.5       13.8     1017.4       24.5       13.7        0.0        0.0        0.0       0.00      121.3       1.42       0.20       11.0
19:02             333        4.8         62       21.4      160.4       21.4       22.5       13.8     1017.4       24.5       13.7        0.0        0.0        0.0       0.00      121.5       1.42       0.20       11.0
19:04             333        4.8         62       21.4      160.4       21.4       22.5       13.8     1017.4       24.5       13.7        0.0        0.0        0.0       0.00      121.6       1.42       0.20       11.0
19:05             333        6.4         62       21.4      160.4       21.4       22.5       13.8     1017.4       24.5       13.7        0.0        0.0        0.0       0.00      121.7       1.42       0.20       11.0
19:08             333        3.2         62       21.3      160.4       21.3       22.5       13.8     1017.4       24.5       13.7        0.0        0.0        0.0       0.00      121.9       1.42       0.20       11.0
19:10             333        3.2         62       21.3      160.4       21.3       22.5       13.8     1017.4       24.5       13.7        0.0        0.0        0.0       0.00      122.0       1.42       0.20       11.0
19:12             333        1.6         62       21.3      160.4       21.3       22.4       13.7     1017.5       24.5       13.7        0.0        0.0        0.0       0.00      122.1       1.42       0.20       11.0
19:14             333        4.8         62       21.3      160.4       21.3       22.5       13.8     1017.4       24.5       13.7        0.0        0.0        0.0       0.00      122.1       1.42       0.20       11.0
19:16             333        3.2         63       21.3      160.4       21.3       22.5       14.0     1017.4       24.5       13.7        0.0        0.0        0.0       0.00      122.2       1.42       0.20       11.0
19:18             333        1.6         63       21.3      160.4       21.3       22.5       14.0     1017.3       24.5       13.7        0.0        0.0        0.0       0.00      122.2       1.42       0.20       11.0
19:20             333        3.2         63       21.3      160.4       21.3       22.5       14.0     1017.4       24.5       13.7        0.0        0.0        0.0       0.00      122.3       1.42       0.20       11.0
19:22             333        1.6         63       21.3      160.4       21.3       22.5       14.0     1017.4       24.5       13.7        0.0        0.0        0.0       0.00      122.3       1.42       0.20       11.0
19:24             333        4.8         63       21.2      160.4       21.2       22.4       13.9     1017.4       24.5       13.7        0.0        0.0        0.0       0.00      122.4       1.42       0.20       11.0
19:26             333        3.2         63       21.2      160.4       21.2       22.4       13.9     1017.3       24.5       13.7        0.0        0.0        0.0       0.00      122.4       1.42       0.20       11.0
19:28             333        3.2         63       21.2      160.4       21.2       22.4       13.9     1017.4       24.5       13.7        0.0        0.0        0.0       0.00      122.5       1.42       0.20       11.0
19:30             333        1.6         63       21.2      160.4       21.2       22.4       13.9     1017.4       24.5       13.7        0.0        0.0        0.0       0.00      122.6       1.42       0.20       11.0
19:32             333        3.2         63       21.2      160.4       21.2       22.4       13.9     1017.3       24.5       13.7        0.0        0.0        0.0       0.00      122.6       1.42       0.20       11.0
19:34             333        1.6         63       21.1      160.4       21.1       22.3       13.8     1017.3       24.5       13.7        0.0        0.0        0.0       0.00      122.7       1.42       0.20       11.0
19:36             333        1.6         63       21.1      160.4       21.1       22.3       13.8     1017.4       24.5       13.7        0.0        0.0        0.0       0.00      122.7       1.42       0.20       11.0
19:38             333        3.2         63       21.1      160.4       21.1       22.2       13.7     1017.3       24.5       13.7        0.0        0.0        0.0       0.00      122.8       1.42       0.20       11.0
19:40             333        3.2         64       21.1      160.4       21.1       22.3       14.0     1017.4       24.5       13.7        0.0        0.0        0.0       0.00      122.8       1.42       0.20       11.0
19:42             333        1.6         64       21.1      160.4       21.1       22.3       14.0     1017.4       24.5       13.7        0.0        0.0        0.0       0.00      122.9       1.42       0.20       11.0
19:44             333        1.6         64       21.1      160.4       21.1       22.3       14.0     1017.3       24.5       13.7        0.0        0.0        0.0       0.00      122.9       1.42       0.20       11.0
19:46             333        3.2         64       21.0      160.4       21.0       22.3       13.9     1017.3       24.5       13.7        0.0        0.0        0.0       0.00      123.0       1.42       0.20       11.0
19:48             333        3.2         64       21.0      160.4       21.0       22.3       13.9     1017.4       24.5       13.7        0.0        0.0        0.0       0.00      123.1       1.42       0.20       11.0
19:50             333        3.2         65       20.9      160.4       20.9       22.3       14.1     1017.5       24.5       13.7        0.0        0.0        0.0       0.00      123.1       1.42       0.20       11.0
19:52             333        4.8         64       20.9      160.4       20.9       22.2       13.9     1017.4       24.5       13.7        0.0        0.0        0.0       0.00      123.2       1.42       0.20       11.0
19:54             333        3.2         64       20.9      160.4       20.9       22.1       13.8     1017.4       24.5       13.7        0.0        0.0        0.0       0.00      123.3       1.42       0.20       11.0
19:56             333        4.8         64       20.9      160.4       20.9       22.1       13.8     1017.3       24.5       13.7        0.0        0.0        0.0       0.00      123.4       1.42       0.20       11.0
19:58             333        3.2         64       20.8      160.4       20.8       22.1       13.8     1017.4       24.5       13.7        0.0        0.0        0.0       0.00      123.5       1.42       0.20       11.0
20:00             333        6.4         64       20.8      160.4       20.8       22.1       13.8     1017.4       24.5       13.7        0.0        0.0        0.0       0.00      123.7       1.42       0.20       11.0
20:02             333        6.4         64       20.8      160.4       20.8       22.0       13.7     1017.5       24.5       13.7        0.0        0.0        0.0       0.00      123.8       1.42       0.20       11.0
20:04             333        6.4         65       20.8      160.4       20.8       22.1       14.0     1017.4       24.5       13.7        0.0        0.0        0.0       0.00      123.9       1.42       0.20       11.0
20:06             333        4.8         66       20.7      160.4       20.7       22.1       14.1     1017.5       24.5       13.7        0.0        0.0        0.0       0.00      124.1       1.42       0.20       11.0
20:08             333        6.4         67       20.7      160.4       20.7       22.1       14.3     1017.6       24.5       13.7        0.0        0.0        0.0       0.00      124.3       1.42       0.20       11.0
20:10             332        4.8         67       20.6      160.4       20.6       22.1       14.3     1017.6       24.5       13.7        0.0        0.0        0.0       0.00      124.4       1.42       0.20       11.0
20:12             332        8.0         68       20.6      160.4       20.6       22.1       14.5     1017.6       24.5       13.7        0.0        0.0        0.0       0.00      124.5       1.42       0.20       11.0
20:14             332        3.2         68       20.6      160.4       20.6       22.1       14.5     1017.7       24.5       13.7        0.0        0.0        0.0       0.00      124.7       1.42       0.20       11.0
20:15             331        6.4         68       20.5      160.4       20.5       22.0       14.4     1017.8       24.5       13.7        0.0        0.0        0.0       0.00      124.8       1.42       0.20       11.0
20:18             331        3.2         69       20.5      160.4       20.5       22.1       14.6     1017.8       24.5       13.7        0.0        0.0        0.0       0.00      124.9       1.42       0.20       11.0
20:20             331        6.4         69       20.4      160.4       20.4       22.0       14.6     1018.0       24.5       13.7        0.0        0.0        0.0       0.00      125.1       1.42       0.20       11.0
20:22             331        4.8         70       20.4      160.4       20.4       22.0       14.7     1018.0       24.5       13.7        0.0        0.0        0.0       0.00      125.2       1.42       0.20       11.0
20:24             328        8.0         70       20.3      160.4       20.3       22.0       14.7     1018.0       24.5       13.7        0.0        0.0        0.0       0.00      125.4       1.42       0.20       11.0
20:26             327        8.0         70       20.2      160.4       20.2       21.9       14.6     1018.0       24.5       13.7        0.0        0.0        0.0       0.00      125.6       1.42       0.20       11.0
20:28             326       12.9         70       20.2      160.4       18.1       21.9       14.6     1018.0       24.5       13.7        0.0        0.0        0.0       0.00      125.7       1.42       0.20       11.0
20:30             319        4.8         71       20.1      160.4       20.1       21.8       14.7     1018.0       24.5       13.7        0.0        0.0        0.0       0.00      125.9       1.42       0.20       11.0
20:32             319        6.4         71       20.1      160.4       20.1       21.8       14.7     1018.1       24.5       13.7        0.0        0.0        0.0       0.00      126.0       1.42       0.20       11.0
20:34             311        8.0         71       20.1      160.4       20.1       21.8       14.6     1018.1       24.5       13.7        0.0        0.0        0.0       0.00      126.2       1.42       0.20       11.0
20:36             311        3.2         72       20.0      160.4       20.0       21.8       14.8     1018.1       24.5       13.7        0.0        0.0        0.0       0.00      126.3       1.42       0.20       11.0
20:38             298        8.0         72       19.9      160.4       19.9       21.7       14.8     1018.1       24.5       13.7        0.0        0.0        0.0       0.00      126.5       1.42       0.20       11.0
20:40             296        8.0         72       19.9      160.4       19.9       21.7       14.7     1018.2       24.5       13.7        0.0        0.0        0.0       0.00      126.7       1.42       0.20       11.0
20:41             294        6.4         73       19.8      160.4       19.8       21.7       14.9     1018.2       24.5       13.7        0.0        0.0        0.0       0.00      126.8       1.42       0.20       11.0
20:44             292        8.0         72       19.8      160.4       19.8       21.6       14.6     1018.1       24.5       13.7        0.0        0.0        0.0       0.00      127.0       1.42       0.20       11.0
20:46             279        4.8         72       19.7      160.4       19.7       21.5       14.5     1018.2       24.5       13.7        0.0        0.0        0.0       0.00      127.2       1.42       0.20       11.0
20:48             279        4.8         73       19.7      160.4       19.7       21.5       14.7     1018.2       24.5       13.7        0.0        0.0        0.0       0.00      127.4       1.42       0.20       11.0
20:50             277        6.4         72       19.6      160.4       19.6       21.4       14.4     1018.1       24.5       13.7        0.0        0.0        0.0       0.00      127.6       1.42       0.20       11.0
20:52             277        4.8         72       19.6      160.4       19.6       21.4       14.4     1018.2       24.5       13.7        0.0        0.0        0.0       0.00      127.7       1.42       0.20       11.0
20:54             277        9.7         72       19.5      160.4       18.3       21.3       14.3     1018.2       24.5       13.7        0.0        0.0        0.0       0.00      128.0       1.42       0.20       11.0
20:56             277        3.2         72       19.5      160.4       19.5       21.3       14.3     1018.1       24.5       13.7        0.0        0.0        0.0       0.00      128.1       1.42       0.20       11.0
20:58             277        3.2         72       19.5      160.4       19.5       21.3       14.3     1018.2       24.5       13.7        0.0        0.0        0.0       0.00      128.2       1.42       0.20       11.0
21:00             277        3.2         72       19.5      160.4       19.5       21.3       14.3     1018.3       24.5       13.7        0.0        0.0        0.0       0.00      128.3       1.42       0.20       11.0
21:01             277        3.2         72       19.5      160.4       19.5       21.3       14.3     1018.3       24.5       13.7        0.0        0.0        0.0       0.00      128.4       1.42       0.20       11.0
21:04             277        3.2         72       19.5      160.4       19.5       21.3       14.3     1018.2       24.5       13.7        0.0        0.0        0.0       0.00      128.5       1.42       0.20       11.0
21:06             277        3.2         72       19.5      160.4       19.5       21.3       14.3     1018.2       24.5       13.7        0.0        0.0        0.0       0.00      128.6       1.42       0.20       11.0
21:08             277        3.2         72       19.5      160.4       19.5       21.3       14.3     1018.2       24.5       13.7        0.0        0.0        0.0       0.00      128.8       1.42       0.20       11.0
21:10             277        3.2         72       19.5      160.4       19.5       21.3       14.3     1018.2       24.5       13.7        0.0        0.0        0.0       0.00      128.9       1.42       0.20       11.0
21:12             277        3.2         72       19.5      160.4       19.5       21.3       14.3     1018.1       24.5       13.7        0.0        0.0        0.0       0.00      129.0       1.42       0.20       11.0
21:14             277        3.2         72       19.5      160.4       19.5       21.3       14.3     1018.1       24.5       13.7        0.0        0.0        0.0       0.00      129.1       1.42       0.20       11.0
21:16             277        3.2         72       19.5      160.4       19.5       21.3       14.3     1018.2       24.5       13.7        0.0        0.0        0.0       0.00      129.2       1.42       0.20       11.0
21:18             277        3.2         72       19.5      160.4       19.5       21.3       14.3     1018.2       24.5       13.7        0.0        0.0        0.0       0.00      129.3       1.42       0.20       11.0
21:20             277        3.2         72       19.5      160.4       19.5       21.3       14.3     1018.2       24.5       13.7        0.0        0.0        0.0       0.00      129.4       1.42       0.20       11.0
21:22             277        3.2         72       19.5      160.4       19.5       21.3       14.3     1018.2       24.5       13.7        0.0        0.0        0.0       0.00      129.5       1.42       0.20       11.0
21:24             277        3.2         72       19.5      160.4       19.5       21.3       14.3     1018.2       24.5       13.7        0.0        0.0        0.0       0.00      129.6       1.42       0.20       11.0
21:26             277        3.2         72       19.5      160.4       19.5       21.3       14.3     1018.2       24.5       13.7        0.0        0.0        0.0       0.00      129.7       1.42       0.20       11.0
21:28             277        3.2         72       19.5      160.4       19.5       21.3       14.3     1018.2       24.5       13.7        0.0        0.0        0.0       0.00      129.8       1.42       0.20       11.0
21:30             277        3.2         72       19.5      160.4       19.5       21.3       14.3     1018.1       24.5       13.7        0.0        0.0        0.0       0.00      129.9       1.42       0.20       11.0
21:32             277        3.2         72       19.5      160.4       19.5       21.3       14.3     1018.1       24.5       13.7        0.0        0.0        0.0       0.00      130.0       1.42       0.20       11.0
21:34             277        3.2         72       19.5      160.4       19.5       21.3       14.3     1018.2       24.5       13.7        0.0        0.0        0.0       0.00      130.2       1.42       0.20       11.0
21:36             277        3.2         72       19.5      160.4       19.5       21.3       14.3     1018.1       24.5       13.7        0.0        0.0        0.0       0.00      130.3       1.42       0.20       11.0
21:38             263       14.5         74       18.4      160.4       18.4       20.3       13.7     1018.1       24.5       13.7        0.0        0.0        0.0       0.00      130.4       1.42       0.20       11.0
21:40             263        9.7         74       18.3      160.4       18.3       20.2       13.6     1018.1       24.5       13.7        0.0        0.0        0.0       0.00      130.6       1.42       0.20       11.0
21:42             262        6.4         74       18.3      160.4       18.3       20.2       13.6     1018.1       24.5       13.7        0.0        0.0        0.0       0.00      130.8       1.42       0.20       11.0
21:44             262        4.8         74       18.3      160.4       18.3       20.2       13.6     1018.0       24.5       13.7        0.0        0.0        0.0       0.00      130.9       1.42       0.20       11.0
21:45             259        6.4         74       18.2      160.4       18.2       20.1       13.5     1018.2       24.5       13.7        0.0        0.0        0.0       0.00      131.1       1.42       0.20       11.0
21:48             257       14.5         74       18.2      160.4       15.7       20.1       13.5     1018.1       24.5       13.7        0.0        0.0        0.0       0.00      131.3       1.42       0.20       11.0
21:50             257        6.4         74       18.1      160.4       18.1       20.0       13.4     1018.1       24.5       13.7        0.0        0.0        0.0       0.00      131.5       1.42       0.20       11.0
21:52             256        6.4         74       18.1      160.4       18.1       20.0       13.4     1018.1       24.5       13.7        0.0        0.0        0.0       0.00      131.6       1.42       0.20       11.0
21:54             252       11.3         74       18.0      160.4       16.1       19.9       13.3     1018.2       24.5       13.7        0.0        0.0        0.0       0.00      131.8       1.42       0.20       11.0
21:56             253        6.4         74       17.9      160.4       17.9       19.8       13.2     1018.1       24.5       13.7        0.0        0.0        0.0       0.00      132.1       1.42       0.20       11.0
21:58             252       11.3         74       17.9      160.4       17.9       19.8       13.2     1018.2       24.5       13.7        0.0        0.0        0.0       0.00      132.3       1.42       0.20       11.0
22:00             248        8.0         74       17.8      160.4       17.8       19.7       13.1     1018.1       24.5       13.7        0.0        0.0        0.0       0.00      132.5       1.42       0.20       11.0
22:02             252       14.5         74       17.8      160.4       17.8       19.7       13.1     1018.2       24.5       13.7        0.0        0.0        0.0       0.00      132.8       1.42       0.20       11.0
22:04             254       12.9         74       17.7      160.4       17.7       19.6       13.0     1018.2       24.5       13.7        0.0        0.0        0.0       0.00      133.1       1.42       0.20       11.0
22:06             261       14.5         74       17.7      160.4       15.1       19.6       13.0     1018.2       24.5       13.7        0.0        0.0        0.0       0.00      133.3       1.42       0.20       11.0
22:08             260       14.5         73       17.6      160.4       17.6       19.5       12.7     1018.2       24.5       13.7        0.0        0.0        0.0       0.00      133.6       1.42       0.20       11.0
22:10             266        9.7         73       17.6      160.4       17.6       19.5       12.7     1018.2       24.5       13.7        0.0        0.0        0.0       0.00      133.9       1.42       0.20       11.0
22:12             274       12.9         73       17.6      160.4       16.1       19.4       12.7     1018.2       24.5       13.7        0.0        0.0        0.0       0.00      134.1       1.42       0.20       11.0
22:14             273        9.7         73       17.6      160.4       17.6       19.4       12.7     1018.2       24.5       13.7        0.0        0.0        0.0       0.00      134.3       1.42       0.20       11.0
22:15             272        6.4         72       17.6      160.4       17.6       19.3       12.5     1018.2       24.5       13.7        0.0        0.0        0.0       0.00      134.6       1.43       0.20       11.0
22:18             273       12.9         72       17.5      160.4       16.1       19.3       12.4     1018.2       24.5       13.7        0.0        0.0        0.0       0.00      134.9       1.43       0.20       11.0
22:20             273       11.3         72       17.5      160.4       16.1       19.3       12.4     1018.2       24.5       13.7        0.0        0.0        0.0       0.00      135.2       1.43       0.20       11.0
22:22             273       14.5         72       17.5      160.4       15.5       19.3       12.4     1018.1       24.5       13.7        0.0        0.0        0.0       0.00      135.5       1.43       0.20       11.0
22:24             273        9.7         72       17.5      160.4       17.5       19.3       12.4     1018.1       24.5       13.7        0.0        0.0        0.0       0.00      135.8       1.43       0.20       11.0
22:26             269        6.4         72       17.4      160.4       17.4       19.2       12.3     1018.2       24.5       13.7        0.0        0.0        0.0       0.00      136.0       1.43       0.20       11.0
22:28             270       12.9         73       17.4      160.4       16.0       19.3       12.6     1018.3       24.5       13.7        0.0        0.0        0.0       0.00      136.2       1.43       0.20       11.0
22:30             269       11.3         73       17.4      160.4       16.0       19.3       12.6     1018.2       24.5       13.7        0.0        0.0        0.0       0.00      136.5       1.43       0.20       11.0
22:32             269       11.3         73       17.4      160.4       15.4       19.2       12.5     1018.3       24.5       13.7        0.0        0.0        0.0       0.00      136.8       1.43       0.20       11.0
22:34             271       11.3         73       17.4      160.4       16.0       19.2       12.5     1018.2       24.5       13.7        0.0        0.0        0.0       0.00      137.0       1.43       0.20       11.0
22:36             270        9.7         73       17.4      160.4       17.4       19.2       12.5     1018.1       24.5       13.7        0.0        0.0        0.0       0.00      137.3       1.43       0.20       11.0
22:38             271        4.8         73       17.4      160.4       17.4       19.2       12.5     1018.1       24.5       13.7        0.0        0.0        0.0       0.00      137.4       1.43       0.20       11.0
22:40             271        9.7         74       17.4      160.4       17.4       19.3       12.7     1018.1       24.5       13.7        0.0        0.0        0.0       0.00      137.6       1.43       0.20       11.0
22:42             271        6.4         74       17.4      160.4       17.4       19.3       12.7     1018.2       24.5       13.7        0.0        0.0        0.0       0.00      137.8       1.43       0.20       11.0
22:44             271       11.3         74       17.4      160.4       17.4       19.3       12.7     1018.1       24.5       13.7        0.0        0.0        0.0       0.00      138.0       1.43       0.20       11.0
22:46             271        6.4         74       17.4      160.4       17.4       19.4       12.8     1018.2       24.5       13.7        0.0        0.0        0.0       0.00      138.2       1.44       0.20       11.0
22:48             270       11.3         74       17.4      160.4       17.4       19.4       12.8     1018.1       24.5       13.7        0.0        0.0        0.0       0.00      138.4       1.44       0.20       11.0
22:50             269        9.7         74       17.4      160.4       17.4       19.3       12.7     1018.1       24.5       13.7        0.0        0.0        0.0       0.00      138.6       1.44       0.20       11.0
22:52             269        9.7         74       17.4      160.4       17.4       19.3       12.7     1018.1       24.5       13.7        0.0        0.0        0.0       0.00      138.8       1.44       0.20       11.0
22:54             267        9.7         74       17.3      160.4       17.3       19.2       12.7     1018.1       24.5       13.7        0.0        0.0        0.0       0.00      139.0       1.44       0.20       11.0
22:56             267        9.7         74       17.3      160.4       17.3       19.2       12.6     1018.1       24.5       13.7        0.0        0.0        0.0       0.00      139.2       1.44       0.20       11.0
22:58             267        4.8         74       17.2      160.4       17.2       19.1       12.6     1018.0       24.5       13.7        0.0        0.0        0.0       0.00      139.3       1.44       0.20       11.0
23:00             267        4.8         74       17.2      160.4       17.2       19.1       12.5     1018.1       24.5       13.7        0.0        0.0        0.0       0.00      139.4       1.44       0.20       11.0
23:02             267        3.2         74       17.1      160.4       17.1       19.0       12.4     1018.1       24.5       13.7        0.0        0.0        0.0       0.00      139.5       1.45       0.20       11.0
23:04             267        4.8         75       17.1      160.4       17.1       19.0       12.6     1018.0       24.5       13.7        0.0        0.0        0.0       0.00      139.6       1.45       0.20       11.0
23:06             267        3.2         75       17.0      160.4       17.0       19.0       12.5     1018.0       24.5       13.7        0.0        0.0        0.0       0.00      139.8       1.45       0.20       11.0
23:08             267        6.4         75       16.9      160.4       16.9       18.9       12.4     1018.1       24.5       13.7        0.0        0.0        0.0       0.00      139.9       1.45       0.20       11.0
23:10             267        4.8         75       16.8      160.4       16.8       18.8       12.4     1018.0       24.5       13.7        0.0        0.0        0.0       0.00      140.0       1.45       0.20       11.0
23:12             266        4.8         75       16.8      160.4       16.8       18.8       12.3     1018.1       24.5       13.7        0.0        0.0        0.0       0.00      140.2       1.45       0.20       11.0
23:13             265        4.8         75       16.7      160.4       16.7       18.7       12.3     1018.0       24.5       13.7        0.0        0.0        0.0       0.00      140.3       1.45       0.20       11.0
23:16             265        6.4         76       16.7      160.4       16.7       18.8       12.5     1018.1       24.5       13.7        0.0        0.0        0.0       0.00      140.4       1.46       0.20       11.0
23:18             265        4.8         76       16.7      160.4       16.7       18.7       12.4     1018.1       24.5       13.7        0.0        0.0        0.0       0.00      140.5       1.46       0.20       11.0
23:20             265        6.4         76       16.6      160.4       16.6       18.7       12.4     1018.0       24.5       13.7        0.0        0.0        0.0       0.00      140.7       1.46       0.20       11.0
23:22             265        6.4         76       16.6      160.4       16.6       18.7       12.4     1018.1       24.5       13.7        0.0        0.0        0.0       0.00      140.8       1.46       0.20       11.0
23:23             265        6.4         77       16.6      160.4       16.6       18.7       12.5     1018.0       24.5       13.7        0.0        0.0        0.0       0.00      140.9       1.46       0.20       11.0
23:26             264        6.4         77       16.5      160.4       16.5       18.6       12.5     1018.0       24.5       13.7        0.0        0.0        0.0       0.00      141.1       1.46       0.20       11.0
23:28             264        6.4         77       16.4      160.4       16.4       18.5       12.4     1018.0       24.5       13.7        0.0        0.0        0.0       0.00      141.2       1.46       0.20       11.0
23:30             264        4.8         77       16.3      160.4       16.3       18.5       12.3     1018.0       24.5       13.7        0.0        0.0        0.0       0.00      141.4       1.46       0.20       11.0
23:32             263        4.8         77       16.3      160.4       16.3       18.4       12.2     1018.0       24.5       13.7        0.0        0.0        0.0       0.00      141.5       1.48       0.20       11.0
23:34             263        4.8         78       16.3      160.4       16.3       18.5       12.4     1018.0       24.5       13.7        0.0        0.0        0.0       0.00      141.6       1.48       0.20       11.0
23:36             260        6.4         78       16.2      160.4       16.2       18.4       12.4     1017.9       24.5       13.7        0.0        0.0        0.0       0.00      141.8       1.48       0.20       11.0
23:37             259        4.8         78       16.1      160.4       16.1       18.3       12.3     1017.9       24.5       13.7        0.0        0.0        0.0       0.00      141.9       1.48       0.20       11.0
23:40             259        4.8         79       16.1      160.4       16.1       18.4       12.5     1018.0       24.5       13.7        0.0        0.0        0.0       0.00      142.0       1.48       0.20       11.0
23:42             259        6.4         79       16.1      160.4       16.1       18.3       12.4     1017.9       24.5       13.7        0.0        0.0        0.0       0.00      142.2       1.48       0.20       11.0
23:43             259        3.2         79       16.0      160.4       16.0       18.3       12.4     1017.9       24.5       13.7        0.0        0.0        0.0       0.00      142.3       1.48       0.20       11.0
23:46             259        4.8         80       15.9      160.4       15.9       18.3       12.5     1017.9       24.5       13.7        0.0        0.0        0.0       0.00      142.5       1.50       0.20       11.0
23:48             259        4.8         80       15.9      160.4       15.9       18.2       12.4     1017.9       24.5       13.7        0.0        0.0        0.0       0.00      142.6       1.50       0.20       11.0
23:50             254        8.0         80       15.9      160.4       15.9       18.2       12.4     1018.0       24.5       13.7        0.0        0.0        0.0       0.00      142.7       1.50       0.20       11.0
23:52             254        6.4         80       15.8      160.4       15.8       18.2       12.4     1017.9       24.5       13.7        0.0        0.0        0.0       0.00      142.9       1.50       0.20       11.0
23:54             254        6.4         80       15.8      160.4       15.8       18.1       12.3     1018.0       24.5       13.7        0.0        0.0        0.0       0.00      143.1       1.50       0.20       11.0
23:55             254        4.8         80       15.8      160.4       15.8       18.1       12.3     1017.9       24.5       13.7        0.0        0.0        0.0       0.00      143.3       1.50       0.20       11.0
23:58             254        8.0         80       15.7      160.4       14.8       18.1       12.3     1017.9       24.5       13.7        0.0        0.0        0.0       0.00      143.5       1.50       0.20       11.0


Detalle de hace 2 das:

7/4/20
Time         Wind Dir  Wind Gust   Humidity       Temp   Tot Rain Wind Chill Heat Index  Dew Point   Barom SL Temp Out H Temp Out L  DailyRain   HourRain   24HrRain   RainRate   Wind Run   Deg Heat   Deg Cool  MonthRain
                          km/hr          %         C         mm         C         C         C         mb         C         C         mm         mm         mm      mm/hr         km         C         C         mm
0:00              242        8.0         93       15.7      160.4       15.7       19.1       14.6     1021.3       15.7       15.7        0.0        0.0        2.6       0.00       98.1       2.58       0.00       11.0
0:02              243       17.7         93       15.7      160.4       15.7       19.1       14.6     1021.1       15.7       15.7        0.0        0.0        2.6       0.00        0.2       0.02       0.00       11.0
0:04              243       12.9         93       15.7      160.4       14.8       19.1       14.6     1021.2       15.7       15.7        0.0        0.0        2.6       0.00        0.5       0.02       0.00       11.0
0:06              242        8.0         93       15.7      160.4       15.7       19.1       14.6     1021.1       15.7       15.7        0.0        0.0        2.6       0.00        0.7       0.02       0.00       11.0
0:08              243       12.9         93       15.7      160.4       12.9       19.1       14.6     1021.1       15.7       15.7        0.0        0.0        2.6       0.00        0.9       0.02       0.00       11.0
0:10              243        4.8         93       15.7      160.4       15.7       19.0       14.5     1021.1       15.7       15.7        0.0        0.0        2.6       0.00        1.0       0.02       0.00       11.0
0:12              243       14.5         93       15.7      160.4       14.1       19.0       14.5     1021.2       15.7       15.7        0.0        0.0        2.6       0.00        1.3       0.02       0.00       11.0
0:14              243        6.4         93       15.7      160.4       15.7       19.0       14.5     1021.3       15.7       15.7        0.0        0.0        2.6       0.00        1.5       0.02       0.00       11.0
0:16              242        8.0         93       15.6      160.4       15.6       19.0       14.5     1021.2       15.7       15.6        0.0        0.0        2.6       0.00        1.7       0.05       0.00       11.0
0:18              242       16.1         93       15.6      160.4       12.7       19.0       14.5     1021.3       15.7       15.6        0.0        0.0        2.6       0.00        1.9       0.05       0.00       11.0
0:20              242        9.7         93       15.6      160.4       15.6       18.9       14.4     1021.2       15.7       15.6        0.0        0.0        2.6       0.00        2.1       0.05       0.00       11.0
0:22              242       12.9         93       15.6      160.4       14.6       18.9       14.4     1021.2       15.7       15.6        0.0        0.0        2.6       0.00        2.4       0.05       0.00       11.0
0:24              242       12.9         93       15.6      160.4       15.6       18.9       14.4     1021.3       15.7       15.5        0.0        0.0        2.6       0.00        2.6       0.05       0.00       11.0
0:26              242       12.9         93       15.5      160.4       15.5       18.9       14.4     1021.3       15.7       15.5        0.0        0.0        2.6       0.00        2.9       0.05       0.00       11.0
0:28              242       12.9         93       15.5      160.4       15.5       18.9       14.4     1021.3       15.7       15.5        0.0        0.0        2.6       0.00        3.0       0.05       0.00       11.0
0:30              242       14.5         93       15.4      160.4       13.8       18.8       14.3     1021.3       15.7       15.4        0.0        0.0        2.6       0.00        3.2       0.05       0.00       11.0
0:31              242       12.9         93       15.4      160.4       15.4       18.8       14.3     1021.3       15.7       15.4        0.0        0.0        2.6       0.00        3.5       0.08       0.00       11.0
0:34              242        8.0         93       15.4      160.4       15.4       18.8       14.3     1021.4       15.7       15.4        0.0        0.0        2.6       0.00        3.6       0.08       0.00       11.0
0:36              242        9.7         93       15.4      160.4       13.8       18.8       14.3     1021.4       15.7       15.4        0.0        0.0        2.6       0.00        3.8       0.08       0.00       11.0
0:38              242       12.9         93       15.4      160.4       13.8       18.8       14.3     1021.4       15.7       15.4        0.0        0.0        2.6       0.00        4.0       0.08       0.00       11.0
0:40              242        9.7         93       15.4      160.4       15.4       18.8       14.3     1021.4       15.7       15.4        0.0        0.0        2.6       0.00        4.2       0.08       0.00       11.0
0:42              242       14.5         93       15.4      160.4       13.8       18.8       14.3     1021.3       15.7       15.4        0.0        0.0        2.6       0.00        4.4       0.08       0.00       11.0
0:44              242        9.7         93       15.4      160.4       13.8       18.8       14.3     1021.4       15.7       15.4        0.0        0.0        2.6       0.00        4.7       0.08       0.00       11.0
0:46              242        8.0         93       15.4      160.4       15.4       18.8       14.3     1021.3       15.7       15.4        0.0        0.0        2.6       0.00        4.8       0.10       0.00       11.0
0:47              242        4.8         93       15.4      160.4       15.4       18.8       14.3     1021.4       15.7       15.4        0.0        0.0        2.6       0.00        5.0       0.10       0.00       11.0
0:50              242        4.8         93       15.4      160.4       15.4       18.8       14.3     1021.4       15.7       15.4        0.0        0.0        2.6       0.00        5.1       0.10       0.00       11.0
0:51              242        4.8         93       15.4      160.4       15.4       18.8       14.3     1021.4       15.7       15.4        0.0        0.0        2.6       0.00        5.3       0.10       0.00       11.0
0:54              242        6.4         93       15.4      160.4       15.4       18.8       14.3     1021.4       15.7       15.4        0.0        0.0        2.6       0.00        5.4       0.10       0.00       11.0
0:56              242       12.9         93       15.4      160.4       12.5       18.8       14.3     1021.4       15.7       15.4        0.0        0.0        2.6       0.00        5.6       0.10       0.00       11.0
0:57              242        4.8         93       15.4      160.4       15.4       18.8       14.3     1021.4       15.7       15.4        0.0        0.0        2.6       0.00        5.8       0.10       0.00       11.0
1:00              242        8.0         93       15.4      160.4       15.4       18.8       14.3     1021.4       15.7       15.4        0.0        0.0        2.6       0.00        5.9       0.10       0.00       11.0
1:02              242        4.8         93       15.4      160.4       15.4       18.8       14.3     1021.5       15.7       15.4        0.0        0.0        2.6       0.00        6.1       0.13       0.00       11.0
1:03              242       12.9         93       15.4      160.4       15.4       18.8       14.3     1021.4       15.7       15.4        0.0        0.0        2.6       0.00        6.2       0.13       0.00       11.0
1:06              242        4.8         93       15.3      160.4       15.3       18.7       14.2     1021.4       15.7       15.3        0.0        0.0        2.6       0.00        6.4       0.13       0.00       11.0
1:08              242        6.4         93       15.3      160.4       15.3       18.7       14.2     1021.5       15.7       15.3        0.0        0.0        2.6       0.00        6.5       0.13       0.00       11.0
1:10              242       14.5         93       15.3      160.4       14.4       18.7       14.2     1021.5       15.7       15.3        0.0        0.0        2.6       0.00        6.7       0.13       0.00       11.0
1:11              242        6.4         93       15.3      160.4       15.3       18.7       14.2     1021.4       15.7       15.3        0.0        0.0        2.6       0.00        6.9       0.13       0.00       11.0
1:14              242        6.4         93       15.3      160.4       15.3       18.7       14.2     1021.4       15.7       15.3        0.0        0.0        2.6       0.00        7.1       0.13       0.00       11.0
1:16              242        6.4         93       15.3      160.4       15.3       18.7       14.2     1021.4       15.7       15.3        0.0        0.0        2.6       0.00        7.2       0.16       0.00       11.0
1:18              242       16.1         93       15.3      160.4       15.3       18.7       14.2     1021.5       15.7       15.3        0.0        0.0        2.6       0.00        7.4       0.16       0.00       11.0
1:20              242        9.7         93       15.3      160.4       15.3       18.7       14.2     1021.5       15.7       15.3        0.0        0.0        2.6       0.00        7.5       0.16       0.00       11.0
1:21              242       16.1         93       15.3      160.4       14.3       18.7       14.2     1021.5       15.7       15.3        0.0        0.0        2.6       0.00        7.7       0.16       0.00       11.0
1:24              242       12.9         93       15.3      160.4       15.3       18.7       14.2     1021.5       15.7       15.3        0.0        0.0        2.6       0.00        7.9       0.16       0.00       11.0
1:26              242       17.7         93       15.2      160.4       11.6       18.6       14.1     1021.5       15.7       15.2        0.0        0.0        2.6       0.00        8.1       0.16       0.00       11.0
1:28              242       12.9         93       15.2      160.4       15.2       18.6       14.1     1021.5       15.7       15.2        0.0        0.0        2.6       0.00        8.3       0.16       0.00       11.0
1:30              242        6.4         93       15.2      160.4       15.2       18.6       14.1     1021.5       15.7       15.2        0.0        0.0        2.6       0.00        8.5       0.16       0.00       11.0
1:32              242       16.1         93       15.2      160.4       13.5       18.5       14.0     1021.4       15.7       15.2        0.0        0.0        2.6       0.00        8.7       0.19       0.00       11.0
1:34              242       17.7         93       15.2      160.4       10.6       18.5       14.0     1021.4       15.7       15.2        0.0        0.0        2.6       0.00        9.0       0.19       0.00       11.0
1:36              242       16.1         93       15.2      160.4       15.2       18.5       14.0     1021.4       15.7       15.2        0.0        0.0        2.6       0.00        9.4       0.19       0.00       11.0
1:37              242        6.4         93       15.2      160.4       15.2       18.5       14.0     1021.3       15.7       15.2        0.0        0.0        2.6       0.00        9.5       0.19       0.00       11.0
1:40              242        6.4         93       15.1      160.4       15.1       18.5       14.0     1021.3       15.7       15.1        0.0        0.0        2.6       0.00        9.6       0.19       0.00       11.0
1:42              242        0.0         93       15.1      160.4       15.1       18.5       14.0     1021.4       15.7       15.1        0.0        0.0        2.6       0.00        9.7       0.19       0.00       11.0
1:44              242        8.0         93       15.2      160.4       15.2       18.5       14.0     1021.3       15.7       15.1        0.0        0.0        2.6       0.00        9.9       0.19       0.00       11.0
1:46              242        6.4         93       15.1      160.4       15.1       18.5       14.0     1021.4       15.7       15.1        0.0        0.0        2.6       0.00       10.2       0.22       0.00       11.0
1:48              242        4.8         93       15.1      160.4       15.1       18.5       14.0     1021.4       15.7       15.1        0.0        0.0        2.6       0.00       10.3       0.22       0.00       11.0
1:50              242        4.8         93       15.1      160.4       15.1       18.5       14.0     1021.5       15.7       15.1        0.0        0.0        2.6       0.00       10.4       0.22       0.00       11.0
1:52              242        9.7         93       15.1      160.4       15.1       18.5       14.0     1021.5       15.7       15.1        0.0        0.0        2.6       0.00       10.7       0.22       0.00       11.0
1:53              242        9.7         93       15.1      160.4       14.1       18.5       14.0     1021.4       15.7       15.1        0.0        0.0        2.6       0.00       10.9       0.22       0.00       11.0
1:56              242        6.4         93       15.1      160.4       15.1       18.5       14.0     1021.4       15.7       15.1        0.0        0.0        2.6       0.00       11.1       0.22       0.00       11.0
1:58              242        6.4         93       15.1      160.4       15.1       18.5       14.0     1021.5       15.7       15.1        0.0        0.0        2.6       0.00       11.2       0.22       0.00       11.0
2:00              242        8.0         93       15.2      160.4       14.2       18.5       14.0     1021.4       15.7       15.1        0.0        0.0        2.6       0.00       11.4       0.22       0.00       11.0
2:02              242        0.0         93       15.2      160.4       15.2       18.5       14.0     1021.5       15.7       15.1        0.0        0.0        2.6       0.00       11.6       0.25       0.00       11.0
2:04              242        9.7         93       15.1      160.4       13.5       18.5       14.0     1021.5       15.7       15.1        0.0        0.0        2.6       0.00       11.7       0.25       0.00       11.0
2:05              242        8.0         93       15.2      160.4       14.2       18.5       14.0     1021.5       15.7       15.1        0.0        0.0        2.6       0.00       11.8       0.25       0.00       11.0
2:08              242        8.0         93       15.2      160.4       15.2       18.5       14.0     1021.5       15.7       15.1        0.0        0.0        2.6       0.00       12.0       0.25       0.00       11.0
2:10              242        8.0         93       15.2      160.4       14.2       18.5       14.0     1021.5       15.7       15.1        0.0        0.0        2.6       0.00       12.2       0.25       0.00       11.0
2:12              242        8.0         93       15.2      160.4       14.2       18.5       14.0     1021.4       15.7       15.1        0.0        0.0        2.6       0.00       12.3       0.25       0.00       11.0
2:13              241        8.0         93       15.2      160.4       15.2       18.5       14.0     1021.5       15.7       15.1        0.0        0.0        2.6       0.00       12.5       0.25       0.00       11.0
2:15              242        6.4         93       15.1      160.4       15.1       18.5       14.0     1021.5       15.7       15.1        0.0        0.0        2.6       0.00       12.7       0.28       0.00       11.0
2:18              242       17.7         93       15.1      160.4       13.5       18.5       14.0     1021.5       15.7       15.1        0.0        0.0        2.6       0.00       13.0       0.28       0.00       11.0
2:20              242        6.4         93       15.1      160.4       15.1       18.5       14.0     1021.5       15.7       15.1        0.0        0.0        2.6       0.00       13.2       0.28       0.00       11.0
2:22              242        4.8         93       15.1      160.4       15.1       18.5       14.0     1021.4       15.7       15.1        0.0        0.0        2.6       0.00       13.3       0.28       0.00       11.0
2:23              242        6.4         93       15.1      160.4       15.1       18.5       14.0     1021.4       15.7       15.1        0.0        0.0        2.6       0.00       13.4       0.28       0.00       11.0
2:26              242        3.2         93       15.1      160.4       15.1       18.5       14.0     1021.4       15.7       15.1        0.0        0.0        2.6       0.00       13.5       0.28       0.00       11.0
2:28              242        6.4         93       15.2      160.4       15.2       18.5       14.0     1021.4       15.7       15.1        0.0        0.0        2.6       0.00       13.6       0.28       0.00       11.0
2:30              242        6.4         93       15.2      160.4       15.2       18.5       14.0     1021.4       15.7       15.1        0.0        0.0        2.6       0.00       13.7       0.28       0.00       11.0
2:32              242        9.7         93       15.2      160.4       15.2       18.5       14.0     1021.4       15.7       15.1        0.0        0.0        2.6       0.00       13.9       0.30       0.00       11.0
2:34              242        9.7         93       15.2      160.4       14.2       18.5       14.0     1021.5       15.7       15.1        0.0        0.0        2.6       0.00       14.1       0.30       0.00       11.0
2:36              242        3.2         93       15.1      160.4       15.1       18.5       14.0     1021.4       15.7       15.1        0.0        0.0        2.6       0.00       14.2       0.30       0.00       11.0
2:38              242       12.9         93       15.1      160.4       15.1       18.5       14.0     1021.4       15.7       15.1        0.0        0.0        2.6       0.00       14.4       0.30       0.00       11.0
2:40              242        6.4         93       15.2      160.4       15.2       18.5       14.0     1021.4       15.7       15.1        0.0        0.0        2.6       0.00       14.6       0.30       0.00       11.0
2:42              242        4.8         93       15.1      160.4       15.1       18.5       14.0     1021.3       15.7       15.1        0.0        0.0        2.6       0.00       14.8       0.30       0.00       11.0
2:43              242        6.4         93       15.1      160.4       15.1       18.5       14.0     1021.3       15.7       15.1        0.0        0.0        2.6       0.00       14.9       0.30       0.00       11.0
2:46              242        4.8         93       15.1      160.4       15.1       18.5       14.0     1021.3       15.7       15.1        0.0        0.0        2.6       0.00       15.0       0.34       0.00       11.0
2:48              242        6.4         93       15.1      160.4       15.1       18.5       14.0     1021.2       15.7       15.1        0.0        0.0        2.6       0.00       15.1       0.34       0.00       11.0
2:50              242        8.0         93       15.1      160.4       15.1       18.4       13.9     1021.3       15.7       15.1        0.0        0.0        2.6       0.00       15.2       0.34       0.00       11.0
2:52              242        4.8         93       15.1      160.4       15.1       18.4       13.9     1021.2       15.7       15.1        0.0        0.0        2.6       0.00       15.3       0.34       0.00       11.0
2:54              242        4.8         93       15.0      160.4       15.0       18.4       13.9     1021.2       15.7       15.0        0.0        0.0        2.6       0.00       15.4       0.34       0.00       11.0
2:56              242        1.6         93       15.0      160.4       15.0       18.4       13.9     1021.3       15.7       15.0        0.0        0.0        2.6       0.00       15.5       0.34       0.00       11.0
2:58              242        6.4         92       15.0      160.4       15.0       18.3       13.7     1021.3       15.7       15.0        0.0        0.0        2.6       0.00       15.5       0.34       0.00       11.0
3:00              242        0.0         92       15.0      160.4       15.0       18.3       13.7     1021.3       15.7       15.0        0.0        0.0        2.6       0.00       15.5       0.34       0.00       11.0
3:02              242        0.0         92       14.9      160.4       14.9       18.2       13.7     1021.3       15.7       14.9        0.0        0.0        2.2       0.00       15.5       0.37       0.00       11.0
3:04              242        0.0         92       14.9      160.4       14.9       18.2       13.7     1021.3       15.7       14.9        0.0        0.0        2.2       0.00       15.5       0.37       0.00       11.0
3:06              242        0.0         92       14.9      160.4       14.9       18.2       13.6     1021.3       15.7       14.9        0.0        0.0        2.2       0.00       15.5       0.37       0.00       11.0
3:08              242        0.0         92       14.9      160.4       14.9       18.2       13.6     1021.2       15.7       14.9        0.0        0.0        2.2       0.00       15.5       0.37       0.00       11.0
3:10              242        0.0         92       14.8      160.4       14.8       18.1       13.5     1021.3       15.7       14.8        0.0        0.0        2.2       0.00       15.5       0.37       0.00       11.0
3:12              242        0.0         92       14.8      160.4       14.8       18.1       13.5     1021.3       15.7       14.8        0.0        0.0        2.2       0.00       15.5       0.37       0.00       11.0
3:14              242        0.0         92       14.8      160.4       14.8       18.1       13.5     1021.2       15.7       14.8        0.0        0.0        2.2       0.00       15.5       0.37       0.00       11.0
3:16              242        0.0         92       14.8      160.4       14.8       18.1       13.5     1021.2       15.7       14.8        0.0        0.0        1.8       0.00       15.5       0.40       0.00       11.0
3:18              242        0.0         92       14.7      160.4       14.7       18.0       13.4     1021.2       15.7       14.7        0.0        0.0        1.8       0.00       15.5       0.40       0.00       11.0
3:20              242        0.0         92       14.7      160.4       14.7       18.0       13.4     1021.2       15.7       14.7        0.0        0.0        1.8       0.00       15.5       0.40       0.00       11.0
3:22              242        0.0         92       14.7      160.4       14.7       18.0       13.4     1021.3       15.7       14.7        0.0        0.0        1.8       0.00       15.5       0.40       0.00       11.0
3:24              242        0.0         92       14.6      160.4       14.6       17.9       13.3     1021.2       15.7       14.6        0.0        0.0        1.8       0.00       15.5       0.40       0.00       11.0
3:26              242        0.0         92       14.6      160.4       14.6       17.9       13.3     1021.2       15.7       14.6        0.0        0.0        1.8       0.00       15.5       0.40       0.00       11.0
3:28              242        0.0         92       14.6      160.4       14.6       17.9       13.3     1021.2       15.7       14.6        0.0        0.0        1.8       0.00       15.5       0.40       0.00       11.0
3:30              242        4.8         92       14.5      160.4       14.5       17.8       13.2     1021.2       15.7       14.5        0.0        0.0        1.8       0.00       15.5       0.40       0.00       11.0
3:32              242        6.4         92       14.5      160.4       14.5       17.8       13.2     1021.2       15.7       14.5        0.0        0.0        1.8       0.00       15.6       0.44       0.00       11.0
3:34              242        3.2         92       14.5      160.4       14.5       17.8       13.2     1021.2       15.7       14.4        0.0        0.0        1.8       0.00       15.7       0.44       0.00       11.0
3:36              242        3.2         92       14.4      160.4       14.4       17.7       13.2     1021.2       15.7       14.4        0.0        0.0        1.8       0.00       15.8       0.44       0.00       11.0
3:38              242        1.6         92       14.4      160.4       14.4       17.7       13.1     1021.2       15.7       14.4        0.0        0.0        1.8       0.00       15.8       0.44       0.00       11.0
3:40              242        3.2         92       14.4      160.4       14.4       17.7       13.1     1021.2       15.7       14.4        0.0        0.0        1.8       0.00       15.9       0.44       0.00       11.0
3:42              242        0.0         92       14.3      160.4       14.3       17.6       13.1     1021.2       15.7       14.3        0.0        0.0        1.8       0.00       15.9       0.44       0.00       11.0
3:44              242        0.0         92       14.3      160.4       14.3       17.6       13.1     1021.1       15.7       14.3        0.0        0.0        1.8       0.00       15.9       0.44       0.00       11.0
3:46              242        0.0         92       14.3      160.4       14.3       17.6       13.1     1021.1       15.7       14.3        0.0        0.0        1.8       0.00       15.9       0.47       0.00       11.0
3:48              242        0.0         92       14.3      160.4       14.3       17.6       13.0     1021.2       15.7       14.3        0.0        0.0        1.8       0.00       15.9       0.47       0.00       11.0
3:50              242        0.0         92       14.3      160.4       14.3       17.6       13.0     1021.1       15.7       14.3        0.0        0.0        1.8       0.00       15.9       0.47       0.00       11.0
3:52              242        0.0         92       14.2      160.4       14.2       17.5       12.9     1021.1       15.7       14.2        0.0        0.0        1.8       0.00       15.9       0.47       0.00       11.0
3:54              242        0.0         92       14.2      160.4       14.2       17.5       12.9     1021.1       15.7       14.2        0.0        0.0        1.8       0.00       15.9       0.47       0.00       11.0
3:56              242        0.0         92       14.2      160.4       14.2       17.5       12.9     1021.1       15.7       14.2        0.0        0.0        1.8       0.00       15.9       0.47       0.00       11.0
3:58              242        0.0         92       14.2      160.4       14.2       17.5       12.9     1021.0       15.7       14.2        0.0        0.0        1.8       0.00       15.9       0.47       0.00       11.0
4:00              242        4.8         92       14.2      160.4       14.2       17.5       12.9     1021.0       15.7       14.2        0.0        0.0        1.8       0.00       16.0       0.47       0.00       11.0
4:02              242        1.6         92       14.1      160.4       14.1       17.4       12.8     1021.0       15.7       14.1        0.0        0.0        1.8       0.00       16.0       0.51       0.00       11.0
4:04              242        4.8         92       14.1      160.4       14.1       17.4       12.8     1021.0       15.7       14.1        0.0        0.0        1.8       0.00       16.2       0.51       0.00       11.0
4:06              242        6.4         92       14.1      160.4       14.1       17.4       12.8     1021.0       15.7       14.1        0.0        0.0        1.8       0.00       16.3       0.51       0.00       11.0
4:08              242        6.4         92       14.0      160.4       14.0       17.3       12.7     1021.0       15.7       14.0        0.0        0.0        1.8       0.00       16.4       0.51       0.00       11.0
4:10              242        4.8         92       13.9      160.4       13.9       17.2       12.6     1021.0       15.7       13.9        0.0        0.0        1.8       0.00       16.4       0.51       0.00       11.0
4:12              242        0.0         92       13.9      160.4       13.9       17.2       12.6     1021.0       15.7       13.9        0.0        0.0        1.8       0.00       16.4       0.51       0.00       11.0
4:14              242        6.4         92       13.8      160.4       13.8       17.1       12.6     1021.0       15.7       13.8        0.0        0.0        1.8       0.00       16.5       0.51       0.00       11.0
4:16              242        4.8         92       13.8      160.4       13.8       17.1       12.5     1021.0       15.7       13.8        0.0        0.0        1.8       0.00       16.5       0.56       0.00       11.0
4:17              242        8.0         92       13.7      160.4       13.7       17.0       12.4     1021.0       15.7       13.7        0.0        0.0        1.8       0.00       16.6       0.56       0.00       11.0
4:20              242        3.2         92       13.7      160.4       13.7       17.0       12.4     1021.0       15.7       13.7        0.0        0.0        1.8       0.00       16.6       0.56       0.00       11.0
4:22              242        8.0         92       13.7      160.4       12.6       17.0       12.4     1021.0       15.7       13.7        0.0        0.0        1.8       0.00       16.7       0.56       0.00       11.0
4:23              242        4.8         93       13.6      160.4       13.6       17.0       12.5     1021.0       15.7       13.6        0.0        0.0        1.8       0.00       16.8       0.56       0.00       11.0
4:25              242        4.8         93       13.6      160.4       13.6       17.0       12.5     1021.0       15.7       13.6        0.0        0.0        1.8       0.00       17.0       0.56       0.00       11.0
4:28              242        4.8         93       13.6      160.4       13.6       16.9       12.4     1021.0       15.7       13.6        0.0        0.0        1.8       0.00       17.0       0.56       0.00       11.0
4:30              242        1.6         92       13.5      160.4       13.5       16.8       12.2     1021.0       15.7       13.5        0.0        0.0        1.8       0.00       17.1       0.56       0.00       11.0
4:32              242        6.4         92       13.5      160.4       13.5       16.8       12.2     1021.0       15.7       13.5        0.0        0.0        1.8       0.00       17.2       0.61       0.00       11.0
4:34              242        0.0         92       13.5      160.4       13.5       16.8       12.2     1020.9       15.7       13.5        0.0        0.0        1.8       0.00       17.3       0.61       0.00       11.0
4:36              242        6.4         93       13.4      160.4       13.4       16.8       12.3     1020.9       15.7       13.4        0.0        0.0        1.8       0.00       17.3       0.61       0.00       11.0
4:38              242        3.2         93       13.4      160.4       13.4       16.8       12.3     1020.9       15.7       13.4        0.0        0.0        1.8       0.00       17.4       0.61       0.00       11.0
4:40              242        0.0         93       13.5      160.4       13.5       16.9       12.4     1021.0       15.7       13.4        0.0        0.0        1.8       0.00       17.4       0.61       0.00       11.0
4:42              242        0.0         93       13.5      160.4       13.5       16.9       12.4     1020.9       15.7       13.4        0.0        0.0        1.8       0.00       17.4       0.61       0.00       11.0
4:44              242        0.0         93       13.5      160.4       13.5       16.9       12.4     1021.0       15.7       13.4        0.0        0.0        1.8       0.00       17.4       0.61       0.00       11.0
4:46              242        0.0         93       13.5      160.4       13.5       16.9       12.4     1020.9       15.7       13.4        0.0        0.0        1.8       0.00       17.4       0.65       0.00       11.0
4:48              242        0.0         93       13.5      160.4       13.5       16.9       12.4     1021.0       15.7       13.4        0.0        0.0        1.8       0.00       17.4       0.65       0.00       11.0
4:50              242        0.0         93       13.6      160.4       13.6       16.9       12.4     1021.0       15.7       13.4        0.0        0.0        1.8       0.00       17.4       0.65       0.00       11.0
4:52              242        0.0         93       13.6      160.4       13.6       16.9       12.4     1021.0       15.7       13.4        0.0        0.0        1.8       0.00       17.4       0.65       0.00       11.0
4:54              242        0.0         93       13.6      160.4       13.6       16.9       12.4     1020.9       15.7       13.4        0.0        0.0        1.8       0.00       17.4       0.65       0.00       11.0
4:56              241        0.0         93       13.6      160.4       13.6       16.9       12.4     1020.9       15.7       13.4        0.0        0.0        1.8       0.00       17.4       0.65       0.00       11.0
4:57              242        0.0         93       13.6      160.4       13.6       16.9       12.4     1021.0       15.7       13.4        0.0        0.0        1.8       0.00       17.4       0.65       0.00       11.0
5:00              242        0.0         93       13.6      160.4       13.6       16.9       12.4     1020.9       15.7       13.4        0.0        0.0        1.8       0.00       17.4       0.65       0.00       11.0
5:02              242        0.0         93       13.6      160.4       13.6       16.9       12.4     1021.0       15.7       13.4        0.0        0.0        1.6       0.00       17.4       0.70       0.00       11.0
5:04              242        0.0         93       13.6      160.4       13.6       16.9       12.4     1021.0       15.7       13.4        0.0        0.0        1.6       0.00       17.4       0.70       0.00       11.0
5:06              242        0.0         93       13.6      160.4       13.6       16.9       12.4     1020.9       15.7       13.4        0.0        0.0        1.6       0.00       17.4       0.70       0.00       11.0
5:08              242        0.0         93       13.6      160.4       13.6       16.9       12.4     1021.0       15.7       13.4        0.0        0.0        1.6       0.00       17.4       0.70       0.00       11.0
5:10              242        0.0         93       13.6      160.4       13.6       16.9       12.4     1020.9       15.7       13.4        0.0        0.0        1.6       0.00       17.4       0.70       0.00       11.0
5:12              242        0.0         93       13.6      160.4       13.6       16.9       12.4     1021.0       15.7       13.4        0.0        0.0        1.6       0.00       17.4       0.70       0.00       11.0
5:14              242        0.0         93       13.6      160.4       13.6       16.9       12.4     1021.1       15.7       13.4        0.0        0.0        1.6       0.00       17.4       0.70       0.00       11.0
5:16              242        0.0         93       13.5      160.4       13.5       16.9       12.4     1021.0       15.7       13.4        0.0        0.0        1.4       0.00       17.4       0.75       0.00       11.0
5:18              242        0.0         93       13.5      160.4       13.5       16.9       12.4     1021.1       15.7       13.4        0.0        0.0        1.4       0.00       17.4       0.75       0.00       11.0
5:20              242        0.0         93       13.5      160.4       13.5       16.9       12.4     1021.0       15.7       13.4        0.0        0.0        1.4       0.00       17.4       0.75       0.00       11.0
5:22              242        0.0         93       13.5      160.4       13.5       16.9       12.4     1021.1       15.7       13.4        0.0        0.0        1.4       0.00       17.4       0.75       0.00       11.0
5:24              242        0.0         93       13.5      160.4       13.5       16.9       12.4     1021.1       15.7       13.4        0.0        0.0        1.4       0.00       17.4       0.75       0.00       11.0
5:26              242        0.0         93       13.4      160.4       13.4       16.8       12.3     1021.1       15.7       13.4        0.0        0.0        1.4       0.00       17.4       0.75       0.00       11.0
5:28              242        0.0         93       13.4      160.4       13.4       16.8       12.3     1021.2       15.7       13.4        0.0        0.0        1.4       0.00       17.4       0.75       0.00       11.0
5:30              242        0.0         93       13.4      160.4       13.4       16.8       12.3     1021.2       15.7       13.4        0.0        0.0        1.4       0.00       17.4       0.75       0.00       11.0
5:32              242        0.0         93       13.4      160.4       13.4       16.8       12.3     1021.0       15.7       13.4        0.0        0.0        1.4       0.00       17.4       0.79       0.00       11.0
5:34              242        0.0         93       13.4      160.4       13.4       16.8       12.3     1021.0       15.7       13.4        0.0        0.0        1.4       0.00       17.4       0.79       0.00       11.0
5:36              242        0.0         93       13.4      160.4       13.4       16.8       12.3     1021.0       15.7       13.4        0.0        0.0        1.4       0.00       17.4       0.79       0.00       11.0
5:38              242        0.0         93       13.4      160.4       13.4       16.8       12.3     1021.0       15.7       13.4        0.0        0.0        1.4       0.00       17.4       0.79       0.00       11.0
5:40              242        0.0         93       13.4      160.4       13.4       16.8       12.3     1021.1       15.7       13.4        0.0        0.0        1.4       0.00       17.4       0.79       0.00       11.0
5:41              242        0.0         93       13.4      160.4       13.4       16.8       12.3     1021.2       15.7       13.4        0.0        0.0        1.4       0.00       17.4       0.79       0.00       11.0
5:44              242        0.0         93       13.4      160.4       13.4       16.8       12.3     1021.2       15.7       13.4        0.0        0.0        1.4       0.00       17.4       0.79       0.00       11.0
5:46              242        0.0         94       13.4      160.4       13.4       16.9       12.4     1021.0       15.7       13.4        0.0        0.0        1.2       0.00       17.4       0.84       0.00       11.0
5:48              242        0.0         93       13.4      160.4       13.4       16.8       12.3     1020.9       15.7       13.3        0.0        0.0        1.2       0.00       17.4       0.84       0.00       11.0
5:50              242        0.0         94       13.4      160.4       13.4       16.9       12.4     1020.9       15.7       13.3        0.0        0.0        1.2       0.00       17.4       0.84       0.00       11.0
5:52              242        0.0         93       13.4      160.4       13.4       16.8       12.3     1021.0       15.7       13.3        0.0        0.0        1.2       0.00       17.4       0.84       0.00       11.0
5:54              242        0.0         94       13.4      160.4       13.4       16.9       12.4     1021.1       15.7       13.3        0.0        0.0        1.2       0.00       17.4       0.84       0.00       11.0
5:56              242        0.0         94       13.4      160.4       13.4       16.9       12.4     1021.1       15.7       13.3        0.0        0.0        1.2       0.00       17.4       0.84       0.00       11.0
5:58              242        0.0         94       13.4      160.4       13.4       16.9       12.4     1021.1       15.7       13.3        0.0        0.0        1.2       0.00       17.4       0.84       0.00       11.0
6:00              242        0.0         94       13.4      160.4       13.4       16.9       12.4     1021.0       15.7       13.3        0.0        0.0        1.2       0.00       17.4       0.84       0.00       11.0
6:02              242        0.0         94       13.4      160.4       13.4       16.9       12.4     1021.1       15.7       13.3        0.0        0.0        1.2       0.00       17.4       0.89       0.00       11.0
6:04              242        0.0         94       13.4      160.4       13.4       16.9       12.4     1021.1       15.7       13.3        0.0        0.0        1.2       0.00       17.4       0.89       0.00       11.0
6:06              242        0.0         94       13.4      160.4       13.4       16.9       12.4     1021.1       15.7       13.3        0.0        0.0        1.2       0.00       17.4       0.89       0.00       11.0
6:08              242        0.0         94       13.4      160.4       13.4       16.9       12.5     1021.1       15.7       13.3        0.0        0.0        1.2       0.00       17.4       0.89       0.00       11.0
6:10              242        0.0         94       13.4      160.4       13.4       16.9       12.5     1021.1       15.7       13.3        0.0        0.0        1.2       0.00       17.4       0.89       0.00       11.0
6:12              242        0.0         94       13.4      160.4       13.4       16.9       12.5     1021.1       15.7       13.3        0.0        0.0        1.2       0.00       17.4       0.89       0.00       11.0
6:14              242        0.0         94       13.5      160.4       13.5       17.0       12.6     1021.1       15.7       13.3        0.0        0.0        1.2       0.00       17.4       0.89       0.00       11.0
6:16              242        1.6         94       13.5      160.4       13.5       17.0       12.6     1021.2       15.7       13.3        0.0        0.0        1.2       0.00       17.4       0.94       0.00       11.0
6:18              242        3.2         94       13.5      160.4       13.5       17.0       12.6     1021.2       15.7       13.3        0.0        0.0        1.2       0.00       17.4       0.94       0.00       11.0
6:20              242        4.8         94       13.6      160.4       13.6       17.0       12.6     1021.1       15.7       13.3        0.0        0.0        1.2       0.00       17.5       0.94       0.00       11.0
6:21              242        0.0         94       13.6      160.4       13.6       17.0       12.6     1021.2       15.7       13.3        0.0        0.0        1.2       0.00       17.5       0.94       0.00       11.0
6:24              242        0.0         94       13.6      160.4       13.6       17.0       12.6     1021.2       15.7       13.3        0.0        0.0        1.2       0.00       17.5       0.94       0.00       11.0
6:26              242        0.0         94       13.6      160.4       13.6       17.0       12.6     1021.2       15.7       13.3        0.0        0.0        1.2       0.00       17.5       0.94       0.00       11.0
6:28              242        0.0         94       13.6      160.4       13.6       17.0       12.6     1021.2       15.7       13.3        0.0        0.0        1.2       0.00       17.5       0.94       0.00       11.0
6:30              242        0.0         94       13.6      160.4       13.6       17.0       12.6     1021.2       15.7       13.3        0.0        0.0        1.2       0.00       17.5       0.94       0.00       11.0
6:32              242        0.0         94       13.6      160.4       13.6       17.1       12.7     1021.2       15.7       13.3        0.0        0.0        1.2       0.00       17.5       0.98       0.00       11.0
6:34              242        0.0         94       13.6      160.4       13.6       17.0       12.6     1021.3       15.7       13.3        0.0        0.0        1.2       0.00       17.5       0.98       0.00       11.0
6:35              242        0.0         94       13.6      160.4       13.6       17.0       12.6     1021.2       15.7       13.3        0.0        0.0        1.2       0.00       17.5       0.98       0.00       11.0
6:38              242        0.0         94       13.6      160.4       13.6       17.1       12.7     1021.3       15.7       13.3        0.0        0.0        1.2       0.00       17.5       0.98       0.00       11.0
6:40              242        0.0         94       13.6      160.4       13.6       17.1       12.7     1021.3       15.7       13.3        0.0        0.0        1.2       0.00       17.5       0.98       0.00       11.0
6:42              242        0.0         94       13.7      160.4       13.7       17.1       12.7     1021.3       15.7       13.3        0.0        0.0        1.2       0.00       17.5       0.98       0.00       11.0
6:44              242        0.0         94       13.7      160.4       13.7       17.1       12.7     1021.2       15.7       13.3        0.0        0.0        1.2       0.00       17.5       0.98       0.00       11.0
6:46              242        0.0         94       13.7      160.4       13.7       17.2       12.8     1021.3       15.7       13.3        0.0        0.0        1.2       0.00       17.5       1.03       0.00       11.0
6:48              242        9.7         94       13.8      160.4       13.8       17.2       12.8     1021.3       15.7       13.3        0.0        0.0        1.2       0.00       17.5       1.03       0.00       11.0
6:50              242        6.4         94       13.8      160.4       13.8       17.3       12.9     1021.2       15.7       13.3        0.0        0.0        1.2       0.00       17.6       1.03       0.00       11.0
6:52              242        0.0         94       13.8      160.4       13.8       17.3       12.9     1021.2       15.7       13.3        0.0        0.0        1.2       0.00       17.7       1.03       0.00       11.0
6:53              242        0.0         94       13.9      160.4       13.9       17.4       12.9     1021.2       15.7       13.3        0.0        0.0        1.2       0.00       17.7       1.03       0.00       11.0
6:56              242        0.0         94       13.9      160.4       13.9       17.4       12.9     1021.3       15.7       13.3        0.0        0.0        1.2       0.00       17.7       1.03       0.00       11.0
6:58              242        0.0         94       13.9      160.4       13.9       17.4       13.0     1021.2       15.7       13.3        0.0        0.0        1.2       0.00       17.7       1.03       0.00       11.0
7:00              242        0.0         94       14.0      160.4       14.0       17.5       13.1     1021.3       15.7       13.3        0.0        0.0        1.2       0.00       17.7       1.03       0.00       11.0
7:02              242        0.0         94       14.1      160.4       14.1       17.5       13.1     1021.4       15.7       13.3        0.0        0.0        1.2       0.00       17.7       1.07       0.00       11.0
7:04              242        0.0         94       14.1      160.4       14.1       17.6       13.2     1021.4       15.7       13.3        0.0        0.0        1.2       0.00       17.7       1.07       0.00       11.0
7:06              242        0.0         94       14.2      160.4       14.2       17.6       13.2     1021.4       15.7       13.3        0.0        0.0        1.2       0.00       17.7       1.07       0.00       11.0
7:08              241       12.9         94       14.2      160.4       12.5       17.7       13.3     1021.4       15.7       13.3        0.0        0.0        1.2       0.00       17.9       1.07       0.00       11.0
7:10              242       12.9         95       14.2      160.4       14.2       17.8       13.4     1021.4       15.7       13.3        0.0        0.0        1.2       0.00       18.2       1.07       0.00       11.0
7:12              242        4.8         94       14.3      160.4       14.3       17.7       13.3     1021.4       15.7       13.3        0.0        0.0        1.2       0.00       18.3       1.07       0.00       11.0
7:13              242        4.8         94       14.3      160.4       14.3       17.7       13.3     1021.4       15.7       13.3        0.0        0.0        1.2       0.00       18.4       1.07       0.00       11.0
7:16              242       17.7         94       14.3      160.4        9.5       17.8       13.4     1021.5       15.7       13.3        0.0        0.0        1.2       0.00       18.5       1.11       0.00       11.0
7:18              242        6.4         94       14.3      160.4       14.3       17.8       13.4     1021.5       15.7       13.3        0.0        0.0        1.2       0.00       18.8       1.11       0.00       11.0
7:20              242        9.7         94       14.4      160.4       12.7       17.9       13.4     1021.4       15.7       13.3        0.0        0.0        1.2       0.00       19.0       1.11       0.00       11.0
7:22              242        9.7         94       14.4      160.4       13.4       17.9       13.4     1021.5       15.7       13.3        0.0        0.0        1.2       0.00       19.2       1.11       0.00       11.0
7:24              242       12.9         94       14.4      160.4       13.4       17.9       13.5     1021.4       15.7       13.3        0.0        0.0        1.2       0.00       19.5       1.11       0.00       11.0
7:26              242        0.0         94       14.5      160.4       14.5       18.0       13.5     1021.4       15.7       13.3        0.0        0.0        1.2       0.00       19.5       1.11       0.00       11.0
7:28              242        0.0         94       14.6      160.4       14.6       18.0       13.6     1021.4       15.7       13.3        0.0        0.0        1.2       0.00       19.5       1.11       0.00       11.0
7:30              242        0.0         95       14.6      160.4       14.6       18.2       13.8     1021.5       15.7       13.3        0.0        0.0        1.2       0.00       19.5       1.11       0.00       11.0
7:31              242        0.0         95       14.7      160.4       14.7       18.2       13.9     1021.5       15.7       13.3        0.0        0.0        1.2       0.00       19.5       1.14       0.00       11.0
7:34              242        9.7         95       14.7      160.4       13.0       18.3       13.9     1021.6       15.7       13.3        0.0        0.0        1.2       0.00       19.6       1.14       0.00       11.0
7:36              242        8.0         95       14.8      160.4       14.8       18.4       14.0     1021.6       15.7       13.3        0.0        0.0        1.2       0.00       19.8       1.14       0.00       11.0
7:38              242        8.0         95       14.9      160.4       14.9       18.4       14.1     1021.5       15.7       13.3        0.0        0.0        1.2       0.00       20.1       1.14       0.00       11.0
7:40              242       12.9         95       14.9      160.4       14.9       18.5       14.2     1021.6       15.7       13.3        0.0        0.0        1.2       0.00       20.3       1.14       0.00       11.0
7:42              242        4.8         95       15.0      160.4       15.0       18.6       14.2     1021.5       15.7       13.3        0.0        0.0        1.2       0.00       20.4       1.14       0.00       11.0
7:43              242        3.2         95       15.1      160.4       15.1       18.6       14.3     1021.7       15.7       13.3        0.0        0.0        1.2       0.00       20.6       1.14       0.00       11.0
7:46              242        4.8         95       15.1      160.4       15.1       18.7       14.3     1021.6       15.7       13.3        0.0        0.0        1.0       0.00       20.7       1.17       0.00       11.0
7:48              242        8.0         94       15.2      160.4       15.2       18.6       14.2     1021.8       15.7       13.3        0.0        0.0        1.0       0.00       20.8       1.17       0.00       11.0
7:50              242        0.0         94       15.3      160.4       15.3       18.7       14.3     1021.7       15.7       13.3        0.0        0.0        1.0       0.00       20.9       1.17       0.00       11.0
7:51              242        3.2         95       15.4      160.4       15.4       18.9       14.6     1021.7       15.7       13.3        0.0        0.0        1.0       0.00       21.0       1.17       0.00       11.0
7:54              242        3.2         95       15.5      160.4       15.5       19.1       14.7     1021.6       15.7       13.3        0.0        0.0        1.0       0.00       21.0       1.17       0.00       11.0
7:55              242        6.4         94       15.6      160.4       15.6       19.0       14.6     1021.6       15.7       13.3        0.0        0.0        1.0       0.00       21.2       1.17       0.00       11.0
7:58              242        4.8         94       15.6      160.4       15.6       19.1       14.7     1021.6       15.7       13.3        0.0        0.0        1.0       0.00       21.3       1.17       0.00       11.0
8:00              242        8.0         94       15.7      160.4       14.7       19.1       14.7     1021.6       15.7       13.3        0.0        0.0        1.0       0.00       21.5       1.17       0.00       11.0
8:02              242        4.8         94       15.7      160.4       15.7       19.2       14.8     1021.6       15.7       13.3        0.0        0.0        1.0       0.00       21.6       1.20       0.00       11.0
8:04              242        0.0         94       15.7      160.4       15.7       19.2       14.8     1021.7       15.7       13.3        0.0        0.0        1.0       0.00       21.7       1.20       0.00       11.0
8:06              242        4.8         93       15.8      160.4       15.8       19.2       14.7     1021.6       15.8       13.3        0.0        0.0        1.0       0.00       21.7       1.20       0.00       11.0
8:08              242        4.8         93       15.8      160.4       15.8       19.2       14.7     1021.6       15.8       13.3        0.0        0.0        1.0       0.00       21.8       1.20       0.00       11.0
8:10              242        0.0         93       15.8      160.4       15.8       19.2       14.7     1021.7       15.8       13.3        0.0        0.0        1.0       0.00       21.8       1.20       0.00       11.0
8:12              242        0.0         93       15.9      160.4       15.9       19.3       14.8     1021.6       15.9       13.3        0.0        0.0        1.0       0.00       21.8       1.20       0.00       11.0
8:14              242        0.0         93       15.9      160.4       15.9       19.3       14.8     1021.6       15.9       13.3        0.0        0.0        1.0       0.00       21.8       1.20       0.00       11.0
8:16              242        0.0         93       16.0      160.4       16.0       19.4       14.9     1021.6       16.0       13.3        0.0        0.0        1.0       0.00       21.8       1.22       0.00       11.0
8:18              242        0.0         92       16.1      160.4       16.1       19.4       14.8     1021.5       16.1       13.3        0.0        0.0        1.0       0.00       21.8       1.22       0.00       11.0
8:20              242        0.0         92       16.2      160.4       16.2       19.5       14.9     1021.6       16.2       13.3        0.0        0.0        1.0       0.00       21.8       1.22       0.00       11.0
8:22              242        0.0         92       16.2      160.4       16.2       19.5       14.9     1021.7       16.2       13.3        0.0        0.0        1.0       0.00       21.8       1.22       0.00       11.0
8:24              242        0.0         92       16.3      160.4       16.3       19.6       15.0     1021.7       16.4       13.3        0.0        0.0        1.0       0.00       21.8       1.22       0.00       11.0
8:26              242        0.0         92       16.5      160.4       16.5       19.8       15.2     1021.6       16.5       13.3        0.0        0.0        1.0       0.00       21.8       1.22       0.00       11.0
8:28              241        3.2         91       16.6      160.4       16.6       19.8       15.1     1021.5       16.6       13.3        0.0        0.0        1.0       0.00       21.9       1.22       0.00       11.0
8:30              241        3.2         91       16.6      160.4       16.6       19.8       15.1     1021.7       16.6       13.3        0.0        0.0        1.0       0.00       21.9       1.22       0.00       11.0
8:32              242        3.2         90       16.7      160.4       16.7       19.8       15.0     1021.6       16.7       13.3        0.0        0.0        1.0       0.00       22.0       1.23       0.00       11.0
8:34              242        3.2         90       16.7      160.4       16.7       19.9       15.1     1021.6       16.7       13.3        0.0        0.0        1.0       0.00       22.1       1.23       0.00       11.0
8:35              242        3.2         89       16.8      160.4       16.8       19.8       15.0     1021.7       16.8       13.3        0.0        0.0        1.0       0.00       22.2       1.23       0.00       11.0
8:38              242        1.6         89       16.9      160.4       16.9       19.9       15.1     1021.6       16.9       13.3        0.0        0.0        1.0       0.00       22.2       1.23       0.00       11.0
8:40              242        3.2         89       17.0      160.4       17.0       20.1       15.2     1021.7       17.0       13.3        0.0        0.0        1.0       0.00       22.3       1.23       0.00       11.0
8:42              242        4.8         88       17.1      160.4       17.1       20.0       15.1     1021.7       17.1       13.3        0.0        0.0        1.0       0.00       22.3       1.23       0.00       11.0
8:44              242        1.6         88       17.2      160.4       17.2       20.2       15.2     1021.8       17.2       13.3        0.0        0.0        1.0       0.00       22.4       1.23       0.00       11.0
8:46              242        3.2         87       17.3      160.4       17.3       20.2       15.1     1021.8       17.3       13.3        0.0        0.0        1.0       0.00       22.4       1.24       0.00       11.0
8:48              242        0.0         86       17.4      160.4       17.4       20.2       15.0     1021.9       17.4       13.3        0.0        0.0        1.0       0.00       22.5       1.24       0.00       11.0
8:50              242        3.2         85       17.4      160.4       17.4       20.1       14.8     1021.7       17.4       13.3        0.0        0.0        1.0       0.00       22.5       1.24       0.00       11.0
8:52              242        0.0         85       17.4      160.4       17.4       20.1       14.8     1021.9       17.4       13.3        0.0        0.0        1.0       0.00       22.5       1.24       0.00       11.0
8:54              242        1.6         85       17.4      160.4       17.4       20.1       14.8     1021.9       17.4       13.3        0.0        0.0        1.0       0.00       22.5       1.24       0.00       11.0
8:56              242        0.0         84       17.5      160.4       17.5       20.2       14.8     1022.0       17.5       13.3        0.0        0.0        1.0       0.00       22.6       1.24       0.00       11.0
8:58              242        3.2         84       17.5      160.4       17.5       20.2       14.8     1022.1       17.5       13.3        0.0        0.0        1.0       0.00       22.6       1.24       0.00       11.0
9:00              242        0.0         84       17.6      160.4       17.6       20.2       14.8     1022.0       17.6       13.3        0.0        0.0        1.0       0.00       22.6       1.24       0.00       11.0
9:02              242        4.8         83       17.6      160.4       17.6       20.2       14.7     1022.1       17.6       13.3        0.0        0.0        1.0       0.00       22.6       1.24       0.00       11.0
9:04              242        1.6         82       17.6      160.4       17.6       20.1       14.5     1022.0       17.6       13.3        0.0        0.0        1.0       0.00       22.7       1.24       0.00       11.0
9:05              242        3.2         82       17.6      160.4       17.6       20.1       14.5     1022.1       17.6       13.3        0.0        0.0        1.0       0.00       22.7       1.24       0.00       11.0
9:08              242        0.0         82       17.6      160.4       17.6       20.1       14.5     1022.1       17.6       13.3        0.0        0.0        1.0       0.00       22.7       1.24       0.00       11.0
9:10              242        3.2         81       17.6      160.4       17.6       20.0       14.3     1022.1       17.6       13.3        0.0        0.0        1.0       0.00       22.8       1.24       0.00       11.0
9:11              242        1.6         81       17.7      160.4       17.7       20.1       14.4     1022.2       17.7       13.3        0.0        0.0        1.0       0.00       22.8       1.24       0.00       11.0
9:14              242        0.0         81       17.7      160.4       17.7       20.1       14.4     1022.2       17.7       13.3        0.0        0.0        1.0       0.00       22.8       1.24       0.00       11.0
9:16              242        3.2         81       17.7      160.4       17.7       20.1       14.4     1022.2       17.7       13.3        0.0        0.0        1.0       0.00       22.9       1.25       0.00       11.0
9:18              242        1.6         81       17.8      160.4       17.8       20.3       14.5     1022.1       17.8       13.3        0.0        0.0        1.0       0.00       22.9       1.25       0.00       11.0
9:20              242        0.0         81       17.9      160.4       17.9       20.3       14.6     1022.2       17.9       13.3        0.0        0.0        1.0       0.00       22.9       1.25       0.00       11.0
9:22              242        3.2         80       18.0      160.4       18.0       20.3       14.5     1022.2       18.0       13.3        0.0        0.0        1.0       0.00       22.9       1.25       0.00       11.0
9:24              242        0.0         80       18.1      160.4       18.1       20.5       14.6     1022.1       18.1       13.3        0.0        0.0        1.0       0.00       22.9       1.25       0.00       11.0
9:26              242        0.0         80       18.2      160.4       18.2       20.5       14.7     1022.0       18.2       13.3        0.0        0.0        1.0       0.00       22.9       1.25       0.00       11.0
9:28              242        0.0         80       18.2      160.4       18.2       20.6       14.7     1022.2       18.2       13.3        0.0        0.0        1.0       0.00       22.9       1.25       0.00       11.0
9:30              242        0.0         79       18.3      160.4       18.3       20.6       14.6     1022.2       18.3       13.3        0.0        0.0        1.0       0.00       22.9       1.25       0.00       11.0
9:32              242        0.0         78       18.4      160.4       18.4       20.6       14.5     1022.1       18.4       13.3        0.0        0.0        1.0       0.00       22.9       1.25       0.00       11.0
9:34              242        0.0         78       18.4      160.4       18.4       20.6       14.5     1022.0       18.4       13.3        0.0        0.0        1.0       0.00       22.9       1.25       0.00       11.0
9:35              242        0.0         78       18.6      160.4       18.6       20.8       14.7     1021.9       18.6       13.3        0.0        0.0        1.0       0.00       22.9       1.25       0.00       11.0
9:38              242        0.0         78       18.6      160.4       18.6       20.8       14.7     1022.1       18.6       13.3        0.0        0.0        1.0       0.00       22.9       1.25       0.00       11.0
9:40              242        0.0         78       18.7      160.4       18.7       20.9       14.8     1022.1       18.7       13.3        0.0        0.0        1.0       0.00       22.9       1.25       0.00       11.0
9:42              242        0.0         77       18.7      160.4       18.7       20.9       14.6     1022.1       18.7       13.3        0.0        0.0        1.0       0.00       22.9       1.25       0.00       11.0
9:44              242        0.0         77       18.8      160.4       18.8       20.9       14.7     1022.1       18.8       13.3        0.0        0.0        1.0       0.00       22.9       1.25       0.00       11.0
9:46              242        0.0         77       18.8      160.4       18.8       21.0       14.7     1022.1       18.8       13.3        0.0        0.0        1.0       0.00       22.9       1.25       0.00       11.0
9:48              242        0.0         78       18.9      160.4       18.9       21.1       15.0     1022.1       18.9       13.3        0.0        0.0        1.0       0.00       22.9       1.25       0.00       11.0
9:50              242        0.0         76       18.9      160.4       18.9       21.0       14.6     1022.1       18.9       13.3        0.0        0.0        1.0       0.00       22.9       1.25       0.00       11.0
9:52              242        0.0         76       19.0      160.4       19.0       21.1       14.7     1022.1       19.0       13.3        0.0        0.0        1.0       0.00       22.9       1.25       0.00       11.0
9:54              242        0.0         76       19.1      160.4       19.1       21.1       14.7     1022.2       19.1       13.3        0.0        0.0        1.0       0.00       22.9       1.25       0.00       11.0
9:55              242        0.0         76       19.2      160.4       19.2       21.2       14.8     1022.1       19.2       13.3        0.0        0.0        1.0       0.00       22.9       1.25       0.00       11.0
9:58              242        3.2         76       19.3      160.4       19.3       21.3       14.9     1022.2       19.3       13.3        0.0        0.0        1.0       0.00       23.0       1.25       0.00       11.0
10:00             242        1.6         75       19.4      160.4       19.4       21.4       14.8     1022.2       19.4       13.3        0.0        0.0        1.0       0.00       23.0       1.25       0.00       11.0
10:02             242        3.2         75       19.4      160.4       19.4       21.4       14.9     1022.3       19.4       13.3        0.0        0.0        0.6       0.00       23.1       1.25       0.00       11.0
10:04             242        3.2         75       19.6      160.4       19.6       21.5       15.0     1022.3       19.6       13.3        0.0        0.0        0.6       0.00       23.1       1.25       0.00       11.0
10:06             242        3.2         74       19.6      160.4       19.6       21.5       14.9     1022.2       19.6       13.3        0.0        0.0        0.6       0.00       23.2       1.25       0.00       11.0
10:07             242        0.0         74       19.7      160.4       19.7       21.6       14.9     1022.3       19.7       13.3        0.0        0.0        0.6       0.00       23.2       1.25       0.00       11.0
10:10             242        0.0         74       19.8      160.4       19.8       21.7       15.0     1022.4       19.8       13.3        0.0        0.0        0.6       0.00       23.2       1.25       0.00       11.0
10:12             242        0.0         73       19.8      160.4       19.8       21.7       14.9     1022.3       19.8       13.3        0.0        0.0        0.6       0.00       23.2       1.25       0.00       11.0
10:14             242        3.2         73       19.9      160.4       19.9       21.8       15.0     1022.3       19.9       13.3        0.0        0.0        0.6       0.00       23.2       1.25       0.00       11.0
10:16             242        1.6         72       20.0      160.4       20.0       21.8       14.8     1022.4       20.0       13.3        0.0        0.0        0.4       0.00       23.3       1.25       0.00       11.0
10:18             242        1.6         72       20.0      160.4       20.0       21.8       14.8     1022.3       20.0       13.3        0.0        0.0        0.4       0.00       23.3       1.25       0.00       11.0
10:20             242        0.0         72       20.1      160.4       20.1       21.8       14.9     1022.3       20.1       13.3        0.0        0.0        0.4       0.00       23.3       1.25       0.00       11.0
10:22             242        0.0         72       20.1      160.4       20.1       21.9       14.9     1022.3       20.1       13.3        0.0        0.0        0.4       0.00       23.3       1.25       0.00       11.0
10:24             242        0.0         71       20.1      160.4       20.1       21.8       14.7     1022.4       20.1       13.3        0.0        0.0        0.4       0.00       23.3       1.25       0.00       11.0
10:26             242        4.8         70       20.1      160.4       20.1       21.8       14.5     1022.3       20.2       13.3        0.0        0.0        0.4       0.00       23.4       1.25       0.00       11.0
10:27             233        3.2         70       20.2      160.4       20.2       21.8       14.5     1022.4       20.2       13.3        0.0        0.0        0.4       0.00       23.5       1.25       0.00       11.0
10:30             232        4.8         70       20.3      160.4       20.3       21.9       14.6     1022.4       20.3       13.3        0.0        0.0        0.4       0.00       23.6       1.25       0.00       11.0
10:31             232        3.2         69       20.3      160.4       20.3       21.9       14.5     1022.3       20.3       13.3        0.0        0.0        0.2       0.00       23.6       1.25       0.00       11.0
10:33             232        1.6         69       20.4      160.4       20.4       22.0       14.5     1022.3       20.4       13.3        0.0        0.0        0.2       0.00       23.7       1.25       0.00       11.0
10:36             232        0.0         69       20.4      160.4       20.4       22.0       14.6     1022.3       20.4       13.3        0.0        0.0        0.2       0.00       23.7       1.25       0.00       11.0
10:38             232        3.2         68       20.4      160.4       20.4       22.0       14.3     1022.5       20.4       13.3        0.0        0.0        0.2       0.00       23.7       1.25       0.00       11.0
10:40             232        0.0         69       20.4      160.4       20.4       22.0       14.6     1022.4       20.5       13.3        0.0        0.0        0.2       0.00       23.7       1.25       0.00       11.0
10:42             232        4.8         69       20.5      160.4       20.5       22.1       14.6     1022.4       20.5       13.3        0.0        0.0        0.2       0.00       23.8       1.25       0.00       11.0
10:44             232        3.2         69       20.6      160.4       20.6       22.2       14.7     1022.4       20.6       13.3        0.0        0.0        0.2       0.00       23.8       1.25       0.00       11.0
10:46             232        0.0         69       20.8      160.4       20.8       22.4       14.9     1022.4       20.8       13.3        0.0        0.0        0.0       0.00       23.8       1.25       0.00       11.0
10:48             232        4.8         69       20.9      160.4       20.9       22.5       15.0     1022.4       20.9       13.3        0.0        0.0        0.0       0.00       23.9       1.25       0.00       11.0
10:50             227        3.2         68       21.0      160.4       21.0       22.5       14.9     1022.3       21.0       13.3        0.0        0.0        0.0       0.00       24.0       1.25       0.00       11.0
10:52             227        3.2         67       21.0      160.4       21.0       22.4       14.6     1022.2       21.1       13.3        0.0        0.0        0.0       0.00       24.1       1.25       0.00       11.0
10:54             225        4.8         67       21.0      160.4       21.0       22.4       14.6     1022.2       21.1       13.3        0.0        0.0        0.0       0.00       24.1       1.25       0.00       11.0
10:56             221        4.8         67       20.9      160.4       20.9       22.4       14.6     1022.2       21.1       13.3        0.0        0.0        0.0       0.00       24.2       1.25       0.00       11.0
10:58             221        4.8         67       20.9      160.4       20.9       22.4       14.6     1022.1       21.1       13.3        0.0        0.0        0.0       0.00       24.3       1.25       0.00       11.0
11:00             221        3.2         67       20.9      160.4       20.9       22.3       14.5     1022.2       21.1       13.3        0.0        0.0        0.0       0.00       24.4       1.25       0.00       11.0
11:02             221        3.2         67       20.9      160.4       20.9       22.3       14.5     1022.2       21.1       13.3        0.0        0.0        0.0       0.00       24.4       1.25       0.00       11.0
11:04             221        3.2         67       20.8      160.4       20.8       22.3       14.5     1022.3       21.1       13.3        0.0        0.0        0.0       0.00       24.5       1.25       0.00       11.0
11:06             221        0.0         67       20.7      160.4       20.7       22.2       14.4     1022.3       21.1       13.3        0.0        0.0        0.0       0.00       24.5       1.25       0.00       11.0
11:08             221        0.0         67       20.7      160.4       20.7       22.1       14.3     1022.3       21.1       13.3        0.0        0.0        0.0       0.00       24.5       1.25       0.00       11.0
11:10             221        0.0         67       20.6      160.4       20.6       22.0       14.2     1022.3       21.1       13.3        0.0        0.0        0.0       0.00       24.5       1.25       0.00       11.0
11:11             221        3.2         68       20.5      160.4       20.5       22.0       14.4     1022.3       21.1       13.3        0.0        0.0        0.0       0.00       24.5       1.25       0.00       11.0
11:14             221        3.2         68       20.5      160.4       20.5       22.0       14.4     1022.3       21.1       13.3        0.0        0.0        0.0       0.00       24.6       1.25       0.00       11.0
11:16             221        3.2         67       20.5      160.4       20.5       21.9       14.2     1022.3       21.1       13.3        0.0        0.0        0.0       0.00       24.7       1.25       0.00       11.0
11:18             221        3.2         68       20.6      160.4       20.6       22.1       14.5     1022.3       21.1       13.3        0.0        0.0        0.0       0.00       24.7       1.25       0.00       11.0
11:20             219        3.2         67       20.6      160.4       20.6       22.1       14.3     1022.3       21.1       13.3        0.0        0.0        0.0       0.00       24.9       1.25       0.00       11.0
11:21             219        0.0         67       20.6      160.4       20.6       22.1       14.3     1022.3       21.1       13.3        0.0        0.0        0.0       0.00       24.9       1.25       0.00       11.0
11:23             219        3.2         67       20.6      160.4       20.6       22.1       14.3     1022.3       21.1       13.3        0.0        0.0        0.0       0.00       25.0       1.25       0.00       11.0
11:26             219        3.2         67       20.7      160.4       20.7       22.1       14.3     1022.2       21.1       13.3        0.0        0.0        0.0       0.00       25.1       1.25       0.00       11.0
11:28             217        3.2         67       20.7      160.4       20.7       22.1       14.3     1022.2       21.1       13.3        0.0        0.0        0.0       0.00       25.1       1.25       0.00       11.0
11:30             217        3.2         67       20.7      160.4       20.7       22.1       14.3     1022.2       21.1       13.3        0.0        0.0        0.0       0.00       25.2       1.25       0.00       11.0
11:32             217        3.2         67       20.7      160.4       20.7       22.2       14.4     1022.1       21.1       13.3        0.0        0.0        0.0       0.00       25.2       1.25       0.00       11.0
11:34             215        1.6         67       20.8      160.4       20.8       22.2       14.4     1022.1       21.1       13.3        0.0        0.0        0.0       0.00       25.3       1.25       0.00       11.0
11:36             215        3.2         68       20.8      160.4       20.8       22.3       14.7     1022.1       21.1       13.3        0.0        0.0        0.0       0.00       25.4       1.25       0.00       11.0
11:38             215        4.8         68       20.9      160.4       20.9       22.4       14.8     1022.1       21.1       13.3        0.0        0.0        0.0       0.00       25.4       1.25       0.00       11.0
11:40             215        1.6         67       21.0      160.4       21.0       22.4       14.6     1022.1       21.1       13.3        0.0        0.0        0.0       0.00       25.5       1.25       0.00       11.0
11:42             215        4.8         67       21.1      160.4       21.1       22.6       14.8     1022.1       21.1       13.3        0.0        0.0        0.0       0.00       25.6       1.25       0.00       11.0
11:44             215        3.2         66       21.2      160.4       21.2       22.5       14.6     1022.1       21.2       13.3        0.0        0.0        0.0       0.00       25.6       1.25       0.00       11.0
11:46             215        0.0         66       21.1      160.4       21.1       22.4       14.5     1022.1       21.2       13.3        0.0        0.0        0.0       0.00       25.6       1.25       0.00       11.0
11:48             215        0.0         67       21.0      160.4       21.0       22.4       14.6     1022.1       21.2       13.3        0.0        0.0        0.0       0.00       25.7       1.25       0.00       11.0
11:50             215        0.0         67       21.0      160.4       21.0       22.4       14.6     1022.1       21.2       13.3        0.0        0.0        0.0       0.00       25.7       1.25       0.00       11.0
11:52             215        0.0         67       21.1      160.4       21.1       22.5       14.7     1022.0       21.2       13.3        0.0        0.0        0.0       0.00       25.7       1.25       0.00       11.0
11:54             215        0.0         67       21.2      160.4       21.2       22.6       14.8     1021.9       21.2       13.3        0.0        0.0        0.0       0.00       25.7       1.25       0.00       11.0
11:56             215        0.0         67       21.3      160.4       21.3       22.8       15.0     1021.9       21.3       13.3        0.0        0.0        0.0       0.00       25.7       1.25       0.00       11.0
11:58             215        0.0         66       21.4      160.4       21.4       22.8       14.8     1021.8       21.5       13.3        0.0        0.0        0.0       0.00       25.7       1.25       0.00       11.0
12:00             215        0.0         65       21.6      160.4       21.6       22.9       14.8     1021.9       21.6       13.3        0.0        0.0        0.0       0.00       25.7       1.25       0.00       11.0
12:02             215        0.0         65       21.8      160.4       21.8       23.1       14.9     1021.9       21.8       13.3        0.0        0.0        0.0       0.00       25.7       1.25       0.00       11.0
12:04             215        0.0         64       21.9      160.4       21.9       23.1       14.8     1021.9       21.9       13.3        0.0        0.0        0.0       0.00       25.7       1.25       0.00       11.0
12:06             215        0.0         63       21.9      160.4       21.9       23.1       14.6     1021.9       21.9       13.3        0.0        0.0        0.0       0.00       25.7       1.25       0.00       11.0
12:08             215        0.0         64       22.0      160.4       22.0       23.3       14.9     1021.9       22.0       13.3        0.0        0.0        0.0       0.00       25.7       1.25       0.00       11.0
12:10             215        4.8         64       22.1      160.4       22.1       23.4       15.0     1021.8       22.1       13.3        0.0        0.0        0.0       0.00       25.7       1.25       0.00       11.0
12:12             215        3.2         63       22.2      160.4       22.2       23.4       14.8     1021.8       22.2       13.3        0.0        0.0        0.0       0.00       25.8       1.25       0.00       11.0
12:14             215        3.2         63       22.3      160.4       22.3       23.5       14.9     1021.8       22.3       13.3        0.0        0.0        0.0       0.00       26.0       1.25       0.00       11.0
12:15             215        4.8         62       22.3      160.4       22.3       23.5       14.7     1021.8       22.3       13.3        0.0        0.0        0.0       0.00       26.0       1.25       0.00       11.0
12:18             215        4.8         62       22.4      160.4       22.4       23.5       14.8     1021.8       22.4       13.3        0.0        0.0        0.0       0.00       26.2       1.25       0.00       11.0
12:20             217        3.2         60       22.3      160.4       22.3       23.3       14.1     1021.8       22.4       13.3        0.0        0.0        0.0       0.00       26.3       1.25       0.00       11.0
12:22             217        6.4         61       22.1      160.4       22.1       23.2       14.2     1021.8       22.4       13.3        0.0        0.0        0.0       0.00       26.3       1.25       0.00       11.0
12:24             217        4.8         61       22.0      160.4       22.0       23.1       14.1     1021.8       22.4       13.3        0.0        0.0        0.0       0.00       26.5       1.25       0.00       11.0
12:26             217        1.6         61       21.9      160.4       21.9       23.0       14.0     1021.8       22.4       13.3        0.0        0.0        0.0       0.00       26.5       1.25       0.00       11.0
12:28             217        4.8         62       21.8      160.4       21.8       23.0       14.2     1021.9       22.4       13.3        0.0        0.0        0.0       0.00       26.6       1.25       0.00       11.0
12:30             215        8.0         62       21.8      160.4       21.8       22.9       14.2     1021.8       22.4       13.3        0.0        0.0        0.0       0.00       26.7       1.25       0.00       11.0
12:32             213        4.8         63       21.8      160.4       21.8       23.0       14.5     1021.8       22.4       13.3        0.0        0.0        0.0       0.00       26.9       1.25       0.00       11.0
12:34             211        6.4         64       21.9      160.4       21.9       23.1       14.8     1021.8       22.4       13.3        0.0        0.0        0.0       0.00       27.0       1.25       0.00       11.0
12:36             198        8.0         62       22.0      160.4       22.0       23.1       14.4     1021.7       22.4       13.3        0.0        0.0        0.0       0.00       27.2       1.25       0.00       11.0
12:38             199        4.8         61       22.1      160.4       22.1       23.2       14.2     1021.6       22.4       13.3        0.0        0.0        0.0       0.00       27.3       1.25       0.00       11.0
12:40             199        3.2         60       22.2      160.4       22.2       23.2       14.0     1021.6       22.4       13.3        0.0        0.0        0.0       0.00       27.4       1.25       0.00       11.0
12:42             199        4.8         60       22.2      160.4       22.2       23.2       14.1     1021.6       22.4       13.3        0.0        0.0        0.0       0.00       27.5       1.25       0.00       11.0
12:44             199        3.2         60       22.2      160.4       22.2       23.2       14.1     1021.5       22.4       13.3        0.0        0.0        0.0       0.00       27.7       1.25       0.00       11.0
12:46             199        1.6         59       22.2      160.4       22.2       23.2       13.8     1021.5       22.4       13.3        0.0        0.0        0.0       0.00       27.7       1.25       0.01       11.0
12:48             199        0.0         60       22.2      160.4       22.2       23.2       14.1     1021.5       22.4       13.3        0.0        0.0        0.0       0.00       27.8       1.25       0.01       11.0
12:50             200        8.0         60       22.3      160.4       22.3       23.3       14.1     1021.5       22.4       13.3        0.0        0.0        0.0       0.00       27.8       1.25       0.01       11.0
12:52             202        6.4         60       22.3      160.4       22.3       23.3       14.1     1021.5       22.4       13.3        0.0        0.0        0.0       0.00       28.0       1.25       0.01       11.0
12:54             202        4.8         61       22.2      160.4       22.2       23.3       14.4     1021.5       22.4       13.3        0.0        0.0        0.0       0.00       28.2       1.25       0.01       11.0
12:55             202        4.8         60       22.1      160.4       22.1       23.1       13.9     1021.4       22.4       13.3        0.0        0.0        0.0       0.00       28.3       1.25       0.01       11.0
12:58             205        9.7         61       21.8      160.4       21.8       22.9       14.0     1021.3       22.4       13.3        0.0        0.0        0.0       0.00       28.5       1.25       0.01       11.0
13:00             205        1.6         61       21.7      160.4       21.7       22.8       13.9     1021.3       22.4       13.3        0.0        0.0        0.0       0.00       28.5       1.25       0.01       11.0
13:02             205        4.8         63       21.6      160.4       21.6       22.8       14.3     1021.3       22.4       13.3        0.0        0.0        0.0       0.00       28.6       1.25       0.01       11.0
13:04             205        4.8         63       21.5      160.4       21.5       22.7       14.2     1021.3       22.4       13.3        0.0        0.0        0.0       0.00       28.7       1.25       0.01       11.0
13:06             205        3.2         63       21.3      160.4       21.3       22.5       14.0     1021.2       22.4       13.3        0.0        0.0        0.0       0.00       28.8       1.25       0.01       11.0
13:08             205        3.2         63       21.2      160.4       21.2       22.4       13.9     1021.2       22.4       13.3        0.0        0.0        0.0       0.00       28.9       1.25       0.01       11.0
13:10             205        1.6         63       21.1      160.4       21.1       22.3       13.8     1021.2       22.4       13.3        0.0        0.0        0.0       0.00       28.9       1.25       0.01       11.0
13:12             205        4.8         64       21.0      160.4       21.0       22.3       13.9     1021.2       22.4       13.3        0.0        0.0        0.0       0.00       28.9       1.25       0.01       11.0
13:14             205        3.2         64       21.0      160.4       21.0       22.3       13.9     1021.2       22.4       13.3        0.0        0.0        0.0       0.00       29.0       1.25       0.01       11.0
13:16             205        4.8         64       20.9      160.4       20.9       22.2       13.9     1021.2       22.4       13.3        0.0        0.0        0.0       0.00       29.1       1.25       0.01       11.0
13:18             205        3.2         64       20.9      160.4       20.9       22.1       13.8     1021.2       22.4       13.3        0.0        0.0        0.0       0.00       29.2       1.25       0.01       11.0
13:20             205        3.2         64       20.9      160.4       20.9       22.1       13.8     1021.0       22.4       13.3        0.0        0.0        0.0       0.00       29.2       1.25       0.01       11.0
13:21             205        0.0         66       20.9      160.4       20.9       22.3       14.4     1021.2       22.4       13.3        0.0        0.0        0.0       0.00       29.2       1.25       0.01       11.0
13:24             205        4.8         66       21.1      160.4       21.1       22.5       14.5     1021.0       22.4       13.3        0.0        0.0        0.0       0.00       29.3       1.25       0.01       11.0
13:26             205        1.6         65       21.3      160.4       21.3       22.6       14.4     1021.1       22.4       13.3        0.0        0.0        0.0       0.00       29.4       1.25       0.01       11.0
13:28             205        0.0         64       21.6      160.4       21.6       22.8       14.5     1021.0       22.4       13.3        0.0        0.0        0.0       0.00       29.4       1.25       0.01       11.0
13:30             203        6.4         63       21.8      160.4       21.8       23.0       14.4     1021.1       22.4       13.3        0.0        0.0        0.0       0.00       29.5       1.25       0.01       11.0
13:32             203        6.4         62       22.0      160.4       22.0       23.1       14.4     1021.0       22.4       13.3        0.0        0.0        0.0       0.00       29.6       1.25       0.01       11.0
13:34             203        6.4         61       22.2      160.4       22.2       23.3       14.4     1021.0       22.4       13.3        0.0        0.0        0.0       0.00       29.8       1.25       0.01       11.0
13:36             203        8.0         60       22.4      160.4       22.4       23.4       14.3     1020.9       22.4       13.3        0.0        0.0        0.0       0.00       29.9       1.25       0.01       11.0
13:38             203        3.2         60       22.7      160.4       22.7       23.7       14.5     1020.9       22.7       13.3        0.0        0.0        0.0       0.00       30.0       1.25       0.01       11.0
13:40             205        8.0         57       22.8      160.4       22.8       23.7       13.9     1020.9       22.8       13.3        0.0        0.0        0.0       0.00       30.2       1.25       0.01       11.0
13:41             205        4.8         57       22.8      160.4       22.8       23.6       13.8     1020.8       22.8       13.3        0.0        0.0        0.0       0.00       30.3       1.25       0.01       11.0
13:44             205        0.0         57       22.8      160.4       22.8       23.7       13.9     1020.8       22.8       13.3        0.0        0.0        0.0       0.00       30.4       1.25       0.01       11.0
13:45             202        6.4         57       22.8      160.4       22.8       23.7       13.9     1020.9       22.8       13.3        0.0        0.0        0.0       0.00       30.5       1.25       0.01       11.0
13:48             201        8.0         57       22.9      160.4       22.9       23.8       14.0     1020.8       22.9       13.3        0.0        0.0        0.0       0.00       30.7       1.25       0.01       11.0
13:50             201        6.4         58       23.1      160.4       23.1       24.0       14.4     1020.8       23.1       13.3        0.0        0.0        0.0       0.00       30.8       1.25       0.01       11.0
13:52             201        4.8         57       23.3      160.4       23.3       24.1       14.3     1020.7       23.3       13.3        0.0        0.0        0.0       0.00       30.9       1.25       0.01       11.0
13:53             201        3.2         57       23.4      160.4       23.4       24.2       14.4     1020.6       23.4       13.3        0.0        0.0        0.0       0.00       31.0       1.25       0.01       11.0
13:56             201        4.8         56       23.6      160.4       23.6       24.4       14.3     1020.6       23.6       13.3        0.0        0.0        0.0       0.00       31.1       1.25       0.01       11.0
13:58             201        1.6         55       23.8      160.4       23.8       24.5       14.2     1020.5       23.8       13.3        0.0        0.0        0.0       0.00       31.2       1.25       0.01       11.0
14:00             201        3.2         56       23.8      160.4       23.8       24.6       14.5     1020.6       23.8       13.3        0.0        0.0        0.0       0.00       31.3       1.25       0.01       11.0
14:02             205        9.7         56       23.7      160.4       22.9       24.5       14.4     1020.6       23.8       13.3        0.0        0.0        0.0       0.00       31.4       1.25       0.03       11.0
14:04             211        9.7         55       23.5      160.4       22.6       24.2       13.9     1020.6       23.8       13.3        0.0        0.0        0.0       0.00       31.6       1.25       0.03       11.0
14:06             211        3.2         55       23.3      160.4       23.3       24.0       13.7     1020.6       23.8       13.3        0.0        0.0        0.0       0.00       31.7       1.25       0.03       11.0
14:08             212        4.8         56       23.1      160.4       23.1       23.9       13.9     1020.6       23.8       13.3        0.0        0.0        0.0       0.00       31.8       1.25       0.03       11.0
14:10             213       11.3         57       23.1      160.4       23.1       23.9       14.1     1020.6       23.8       13.3        0.0        0.0        0.0       0.00       32.0       1.25       0.03       11.0
14:12             219        6.4         57       23.1      160.4       23.1       23.9       14.1     1020.6       23.8       13.3        0.0        0.0        0.0       0.00       32.1       1.25       0.03       11.0
14:14             219        3.2         57       23.1      160.4       23.1       23.9       14.1     1020.5       23.8       13.3        0.0        0.0        0.0       0.00       32.2       1.25       0.03       11.0
14:16             218        4.8         57       23.1      160.4       23.1       23.9       14.1     1020.5       23.8       13.3        0.0        0.0        0.0       0.00       32.3       1.25       0.04       11.0
14:18             218        1.6         57       23.2      160.4       23.2       24.0       14.2     1020.5       23.8       13.3        0.0        0.0        0.0       0.00       32.4       1.25       0.04       11.0
14:20             214        9.7         57       23.3      160.4       23.3       24.2       14.3     1020.5       23.8       13.3        0.0        0.0        0.0       0.00       32.6       1.25       0.04       11.0
14:22             213        8.0         56       23.4      160.4       23.4       24.2       14.2     1020.6       23.8       13.3        0.0        0.0        0.0       0.00       32.7       1.25       0.04       11.0
14:24             213        6.4         57       23.6      160.4       23.6       24.4       14.6     1020.5       23.8       13.3        0.0        0.0        0.0       0.00       32.9       1.25       0.04       11.0
14:26             211        6.4         57       23.7      160.4       23.7       24.5       14.7     1020.5       23.8       13.3        0.0        0.0        0.0       0.00       33.1       1.25       0.04       11.0
14:28             211        8.0         56       23.8      160.4       23.8       24.6       14.5     1020.6       23.8       13.3        0.0        0.0        0.0       0.00       33.2       1.25       0.04       11.0
14:30             211        8.0         56       23.8      160.4       23.8       24.6       14.5     1020.5       23.8       13.3        0.0        0.0        0.0       0.00       33.5       1.25       0.04       11.0
14:32             211        1.6         55       23.7      160.4       23.7       24.4       14.1     1020.4       23.8       13.3        0.0        0.0        0.0       0.00       33.6       1.25       0.06       11.0
14:34             211        6.4         56       23.7      160.4       23.7       24.4       14.4     1020.4       23.8       13.3        0.0        0.0        0.0       0.00       33.7       1.25       0.06       11.0
14:35             210        8.0         56       23.7      160.4       23.7       24.4       14.4     1020.4       23.8       13.3        0.0        0.0        0.0       0.00       33.9       1.25       0.06       11.0
14:38             210        1.6         55       23.8      160.4       23.8       24.5       14.2     1020.3       23.8       13.3        0.0        0.0        0.0       0.00       33.9       1.25       0.06       11.0
14:40             210        4.8         55       23.9      160.4       23.9       24.7       14.4     1020.3       23.9       13.3        0.0        0.0        0.0       0.00       34.1       1.25       0.06       11.0
14:42             202        6.4         55       24.0      160.4       24.0       24.7       14.4     1020.3       24.0       13.3        0.0        0.0        0.0       0.00       34.3       1.25       0.06       11.0
14:44             202        4.8         54       24.1      160.4       24.1       24.7       14.2     1020.3       24.1       13.3        0.0        0.0        0.0       0.00       34.4       1.25       0.06       11.0
14:46             203        6.4         54       24.1      160.4       24.1       24.7       14.2     1020.2       24.1       13.3        0.0        0.0        0.0       0.00       34.6       1.25       0.08       11.0
14:48             202        6.4         54       24.0      160.4       24.0       24.7       14.1     1020.2       24.1       13.3        0.0        0.0        0.0       0.00       34.7       1.25       0.08       11.0
14:50             203        3.2         54       24.0      160.4       24.0       24.7       14.1     1020.1       24.1       13.3        0.0        0.0        0.0       0.00       34.8       1.25       0.08       11.0
14:52             216        6.4         55       24.1      160.4       24.1       24.8       14.5     1020.1       24.1       13.3        0.0        0.0        0.0       0.00       34.9       1.25       0.08       11.0
14:54             217        6.4         55       24.0      160.4       24.0       24.7       14.4     1020.1       24.1       13.3        0.0        0.0        0.0       0.00       35.1       1.25       0.08       11.0
14:56             217        9.7         54       24.0      160.4       24.0       24.7       14.1     1020.1       24.1       13.3        0.0        0.0        0.0       0.00       35.3       1.25       0.08       11.0
14:58             217        4.8         54       23.9      160.4       23.9       24.6       14.1     1020.2       24.1       13.3        0.0        0.0        0.0       0.00       35.4       1.25       0.08       11.0
15:00             216        6.4         54       23.9      160.4       23.9       24.6       14.1     1020.1       24.1       13.3        0.0        0.0        0.0       0.00       35.5       1.25       0.08       11.0
15:02             217        4.8         55       23.9      160.4       23.9       24.7       14.4     1020.2       24.1       13.3        0.0        0.0        0.0       0.00       35.7       1.25       0.10       11.0
15:03             217        4.8         55       23.9      160.4       23.9       24.6       14.3     1020.2       24.1       13.3        0.0        0.0        0.0       0.00       35.8       1.25       0.10       11.0
15:06             217        4.8         55       23.8      160.4       23.8       24.5       14.3     1020.2       24.1       13.3        0.0        0.0        0.0       0.00       36.0       1.25       0.10       11.0
15:08             217        4.8         55       23.7      160.4       23.7       24.4       14.2     1020.1       24.1       13.3        0.0        0.0        0.0       0.00       36.1       1.25       0.10       11.0
15:10             217        8.0         56       23.6      160.4       23.6       24.3       14.3     1020.1       24.1       13.3        0.0        0.0        0.0       0.00       36.3       1.25       0.10       11.0
15:12             228        8.0         57       23.3      160.4       22.8       24.2       14.3     1020.2       24.1       13.3        0.0        0.0        0.0       0.00       36.5       1.25       0.10       11.0
15:14             231        3.2         57       23.2      160.4       23.2       24.1       14.2     1020.2       24.1       13.3        0.0        0.0        0.0       0.00       36.7       1.25       0.10       11.0
15:15             229        4.8         57       23.1      160.4       23.1       23.9       14.1     1020.2       24.1       13.3        0.0        0.0        0.0       0.00       36.8       1.25       0.12       11.0
15:18             229        4.8         58       23.2      160.4       23.2       24.1       14.5     1020.1       24.1       13.3        0.0        0.0        0.0       0.00       36.9       1.25       0.12       11.0
15:20             229        6.4         58       23.3      160.4       23.3       24.2       14.6     1020.1       24.1       13.3        0.0        0.0        0.0       0.00       37.1       1.25       0.12       11.0
15:21             229        4.8         58       23.3      160.4       23.3       24.2       14.6     1020.1       24.1       13.3        0.0        0.0        0.0       0.00       37.2       1.25       0.12       11.0
15:24             229        4.8         58       23.4      160.4       23.4       24.3       14.7     1020.1       24.1       13.3        0.0        0.0        0.0       0.00       37.3       1.25       0.12       11.0
15:26             234        4.8         58       23.4      160.4       23.4       24.3       14.7     1020.0       24.1       13.3        0.0        0.0        0.0       0.00       37.5       1.25       0.12       11.0
15:28             234        4.8         58       23.3      160.4       23.3       24.2       14.6     1020.1       24.1       13.3        0.0        0.0        0.0       0.00       37.6       1.25       0.12       11.0
15:30             234        6.4         58       23.2      160.4       23.2       24.1       14.5     1020.1       24.1       13.3        0.0        0.0        0.0       0.00       37.8       1.25       0.12       11.0
15:32             234        6.4         58       23.2      160.4       23.2       24.1       14.5     1020.1       24.1       13.3        0.0        0.0        0.0       0.00       37.9       1.25       0.13       11.0
15:34             234        4.8         58       23.1      160.4       23.1       24.0       14.4     1020.1       24.1       13.3        0.0        0.0        0.0       0.00       38.0       1.25       0.13       11.0
15:36             234        4.8         58       23.1      160.4       23.1       23.9       14.4     1020.1       24.1       13.3        0.0        0.0        0.0       0.00       38.1       1.25       0.13       11.0
15:38             236        8.0         58       23.1      160.4       23.1       23.9       14.4     1020.0       24.1       13.3        0.0        0.0        0.0       0.00       38.3       1.25       0.13       11.0
15:40             240        8.0         59       23.1      160.4       22.6       24.1       14.7     1020.0       24.1       13.3        0.0        0.0        0.0       0.00       38.4       1.25       0.13       11.0
15:42             240        8.0         58       23.1      160.4       22.6       24.0       14.4     1020.1       24.1       13.3        0.0        0.0        0.0       0.00       38.7       1.25       0.13       11.0
15:44             241        6.4         58       23.0      160.4       23.0       23.9       14.3     1020.1       24.1       13.3        0.0        0.0        0.0       0.00       38.8       1.25       0.13       11.0
15:46             240        6.4         58       22.9      160.4       22.9       23.8       14.2     1020.1       24.1       13.3        0.0        0.0        0.0       0.00       39.0       1.25       0.14       11.0
15:48             242        6.4         58       22.8      160.4       22.8       23.7       14.1     1020.1       24.1       13.3        0.0        0.0        0.0       0.00       39.2       1.25       0.14       11.0
15:50             243        6.4         59       22.7      160.4       22.7       23.7       14.3     1020.1       24.1       13.3        0.0        0.0        0.0       0.00       39.4       1.25       0.14       11.0
15:52             242        6.4         59       22.5      160.4       22.5       23.4       14.1     1020.0       24.1       13.3        0.0        0.0        0.0       0.00       39.6       1.25       0.14       11.0
15:54             242        3.2         61       22.4      160.4       22.4       23.5       14.6     1020.0       24.1       13.3        0.0        0.0        0.0       0.00       39.7       1.25       0.14       11.0
15:56             246        8.0         61       22.4      160.4       22.4       23.5       14.6     1020.0       24.1       13.3        0.0        0.0        0.0       0.00       39.9       1.25       0.14       11.0
15:58             246        4.8         61       22.4      160.4       22.4       23.5       14.6     1019.9       24.1       13.3        0.0        0.0        0.0       0.00       40.0       1.25       0.14       11.0
16:00             246        8.0         60       22.4      160.4       22.4       23.4       14.3     1020.1       24.1       13.3        0.0        0.0        0.0       0.00       40.2       1.25       0.14       11.0
16:02             246        6.4         61       22.2      160.4       22.2       23.3       14.4     1020.1       24.1       13.3        0.0        0.0        0.0       0.00       40.4       1.25       0.14       11.0
16:04             246        4.8         62       22.1      160.4       22.1       23.2       14.4     1020.1       24.1       13.3        0.0        0.0        0.0       0.00       40.5       1.25       0.14       11.0
16:06             246        8.0         62       22.0      160.4       21.4       23.1       14.4     1020.1       24.1       13.3        0.0        0.0        0.0       0.00       40.7       1.25       0.14       11.0
16:08             246        6.4         62       21.9      160.4       21.9       23.0       14.3     1020.0       24.1       13.3        0.0        0.0        0.0       0.00       40.9       1.25       0.14       11.0
16:10             246        6.4         62       21.8      160.4       21.8       22.9       14.2     1020.1       24.1       13.3        0.0        0.0        0.0       0.00       41.0       1.25       0.14       11.0
16:12             246        4.8         63       21.8      160.4       21.8       23.0       14.4     1019.9       24.1       13.3        0.0        0.0        0.0       0.00       41.1       1.25       0.14       11.0
16:14             246        4.8         63       21.8      160.4       21.8       23.0       14.4     1019.8       24.1       13.3        0.0        0.0        0.0       0.00       41.2       1.25       0.14       11.0
16:16             246        6.4         63       21.8      160.4       21.8       23.0       14.4     1019.8       24.1       13.3        0.0        0.0        0.0       0.00       41.3       1.25       0.14       11.0
16:18             246        3.2         63       21.8      160.4       21.8       23.0       14.4     1019.7       24.1       13.3        0.0        0.0        0.0       0.00       41.4       1.25       0.14       11.0
16:20             247        3.2         62       21.8      160.4       21.8       23.0       14.2     1019.7       24.1       13.3        0.0        0.0        0.0       0.00       41.6       1.25       0.14       11.0
16:22             247        6.4         63       21.9      160.4       21.9       23.1       14.5     1019.8       24.1       13.3        0.0        0.0        0.0       0.00       41.7       1.25       0.14       11.0
16:24             249        8.0         62       21.9      160.4       21.3       23.1       14.3     1019.8       24.1       13.3        0.0        0.0        0.0       0.00       41.9       1.25       0.14       11.0
16:26             249        4.8         63       22.1      160.4       22.1       23.2       14.7     1019.8       24.1       13.3        0.0        0.0        0.0       0.00       42.0       1.25       0.14       11.0
16:28             249        4.8         62       22.1      160.4       22.1       23.2       14.4     1019.8       24.1       13.3        0.0        0.0        0.0       0.00       42.1       1.25       0.14       11.0
16:30             249        3.2         62       22.1      160.4       22.1       23.2       14.4     1019.7       24.1       13.3        0.0        0.0        0.0       0.00       42.2       1.25       0.14       11.0
16:32             249        3.2         63       22.1      160.4       22.1       23.2       14.7     1019.7       24.1       13.3        0.0        0.0        0.0       0.00       42.3       1.25       0.14       11.0
16:34             249        4.8         63       22.1      160.4       22.1       23.2       14.7     1019.6       24.1       13.3        0.0        0.0        0.0       0.00       42.5       1.25       0.14       11.0
16:36             249        4.8         63       22.2      160.4       22.2       23.4       14.8     1019.7       24.1       13.3        0.0        0.0        0.0       0.00       42.6       1.25       0.14       11.0
16:38             249        3.2         63       22.2      160.4       22.2       23.4       14.8     1019.7       24.1       13.3        0.0        0.0        0.0       0.00       42.7       1.25       0.14       11.0
16:40             249        6.4         63       22.4      160.4       22.4       23.6       15.0     1019.7       24.1       13.3        0.0        0.0        0.0       0.00       42.8       1.25       0.14       11.0
16:42             249        6.4         61       22.6      160.4       22.6       23.6       14.7     1019.7       24.1       13.3        0.0        0.0        0.0       0.00       42.9       1.25       0.14       11.0
16:44             249       12.9         61       22.6      160.4       20.9       23.7       14.7     1019.6       24.1       13.3        0.0        0.0        0.0       0.00       43.1       1.25       0.14       11.0
16:46             249       11.3         60       22.6      160.4       21.3       23.6       14.5     1019.6       24.1       13.3        0.0        0.0        0.0       0.00       43.2       1.25       0.15       11.0
16:47             249        6.4         60       22.5      160.4       22.5       23.5       14.4     1019.6       24.1       13.3        0.0        0.0        0.0       0.00       43.4       1.25       0.15       11.0
16:50             249        4.8         60       22.4      160.4       22.4       23.4       14.3     1019.7       24.1       13.3        0.0        0.0        0.0       0.00       43.5       1.25       0.15       11.0
16:52             249        8.0         60       22.4      160.4       22.4       23.4       14.3     1019.7       24.1       13.3        0.0        0.0        0.0       0.00       43.6       1.25       0.15       11.0
16:54             249        6.4         61       22.3      160.4       22.3       23.4       14.5     1019.7       24.1       13.3        0.0        0.0        0.0       0.00       43.8       1.25       0.15       11.0
16:55             249        1.6         61       22.3      160.4       22.3       23.3       14.4     1019.7       24.1       13.3        0.0        0.0        0.0       0.00       43.8       1.25       0.15       11.0
16:58             249        4.8         61       22.2      160.4       22.2       23.3       14.4     1019.8       24.1       13.3        0.0        0.0        0.0       0.00       43.9       1.25       0.15       11.0
17:00             249        6.4         61       22.2      160.4       22.2       23.2       14.3     1019.8       24.1       13.3        0.0        0.0        0.0       0.00       44.0       1.25       0.15       11.0
17:02             249        4.8         61       22.1      160.4       22.1       23.2       14.2     1019.8       24.1       13.3        0.0        0.0        0.0       0.00       44.2       1.25       0.15       11.0
17:04             249        3.2         61       22.1      160.4       22.1       23.1       14.2     1019.8       24.1       13.3        0.0        0.0        0.0       0.00       44.2       1.25       0.15       11.0
17:06             249        3.2         61       22.1      160.4       22.1       23.1       14.2     1019.9       24.1       13.3        0.0        0.0        0.0       0.00       44.3       1.25       0.15       11.0
17:08             249        4.8         62       22.0      160.4       22.0       23.1       14.4     1019.8       24.1       13.3        0.0        0.0        0.0       0.00       44.4       1.25       0.15       11.0
17:10             249        3.2         62       21.9      160.4       21.9       23.1       14.3     1019.8       24.1       13.3        0.0        0.0        0.0       0.00       44.5       1.25       0.15       11.0
17:12             249        4.8         62       21.9      160.4       21.9       23.0       14.3     1019.8       24.1       13.3        0.0        0.0        0.0       0.00       44.6       1.25       0.15       11.0
17:13             249        3.2         62       21.8      160.4       21.8       23.0       14.2     1019.8       24.1       13.3        0.0        0.0        0.0       0.00       44.7       1.25       0.15       11.0
17:16             249        3.2         62       21.8      160.4       21.8       22.9       14.2     1019.8       24.1       13.3        0.0        0.0        0.0       0.00       44.8       1.25       0.15       11.0
17:18             249        1.6         63       21.7      160.4       21.7       22.9       14.4     1019.9       24.1       13.3        0.0        0.0        0.0       0.00       44.8       1.25       0.15       11.0
17:20             249        4.8         63       21.7      160.4       21.7       22.9       14.4     1020.0       24.1       13.3        0.0        0.0        0.0       0.00       44.9       1.25       0.15       11.0
17:22             249        3.2         63       21.7      160.4       21.7       22.9       14.4     1019.9       24.1       13.3        0.0        0.0        0.0       0.00       45.0       1.25       0.15       11.0
17:24             249        0.0         63       21.7      160.4       21.7       22.9       14.3     1019.9       24.1       13.3        0.0        0.0        0.0       0.00       45.1       1.25       0.15       11.0
17:26             249        3.2         63       21.7      160.4       21.7       22.9       14.3     1019.8       24.1       13.3        0.0        0.0        0.0       0.00       45.2       1.25       0.15       11.0
17:27             249        3.2         63       21.6      160.4       21.6       22.8       14.3     1019.7       24.1       13.3        0.0        0.0        0.0       0.00       45.2       1.25       0.15       11.0
17:30             249        4.8         63       21.6      160.4       21.6       22.8       14.3     1019.8       24.1       13.3        0.0        0.0        0.0       0.00       45.4       1.25       0.15       11.0
17:32             249        4.8         63       21.6      160.4       21.6       22.8       14.3     1019.8       24.1       13.3        0.0        0.0        0.0       0.00       45.5       1.25       0.15       11.0
17:33             249        3.2         63       21.6      160.4       21.6       22.7       14.2     1019.7       24.1       13.3        0.0        0.0        0.0       0.00       45.5       1.25       0.15       11.0
17:36             249        6.4         64       21.6      160.4       21.6       22.8       14.5     1019.8       24.1       13.3        0.0        0.0        0.0       0.00       45.7       1.25       0.15       11.0
17:38             249        4.8         64       21.6      160.4       21.6       22.8       14.5     1020.1       24.1       13.3        0.0        0.0        0.0       0.00       45.8       1.25       0.15       11.0
17:40             249        8.0         64       21.5      160.4       20.9       22.8       14.4     1020.0       24.1       13.3        0.0        0.0        0.0       0.00       46.0       1.25       0.15       11.0
17:42             250        8.0         64       21.4      160.4       21.4       22.7       14.4     1020.1       24.1       13.3        0.0        0.0        0.0       0.00       46.2       1.25       0.15       11.0
17:44             250        3.2         64       21.4      160.4       21.4       22.7       14.4     1020.1       24.1       13.3        0.0        0.0        0.0       0.00       46.3       1.25       0.15       11.0
17:46             251        3.2         65       21.4      160.4       21.4       22.7       14.5     1020.0       24.1       13.3        0.0        0.0        0.0       0.00       46.4       1.25       0.15       11.0
17:48             251        8.0         64       21.4      160.4       21.4       22.6       14.3     1020.1       24.1       13.3        0.0        0.0        0.0       0.00       46.5       1.25       0.15       11.0
17:50             252        8.0         64       21.3      160.4       21.3       22.6       14.3     1020.1       24.1       13.3        0.0        0.0        0.0       0.00       46.8       1.25       0.15       11.0
17:52             256       12.9         64       21.3      160.4       21.3       22.5       14.2     1020.1       24.1       13.3        0.0        0.0        0.0       0.00       46.9       1.25       0.15       11.0
17:53             258        6.4         64       21.2      160.4       21.2       22.5       14.1     1020.2       24.1       13.3        0.0        0.0        0.0       0.00       47.1       1.25       0.15       11.0
17:56             258        3.2         64       21.2      160.4       21.2       22.5       14.1     1020.1       24.1       13.3        0.0        0.0        0.0       0.00       47.2       1.25       0.15       11.0
17:58             258        6.4         65       21.2      160.4       21.2       22.5       14.3     1020.1       24.1       13.3        0.0        0.0        0.0       0.00       47.3       1.25       0.15       11.0
18:00             258        6.4         65       21.2      160.4       21.2       22.5       14.3     1020.1       24.1       13.3        0.0        0.0        0.0       0.00       47.5       1.25       0.15       11.0
18:02             259        6.4         65       21.1      160.4       21.1       22.4       14.3     1020.1       24.1       13.3        0.0        0.0        0.0       0.00       47.6       1.25       0.15       11.0
18:04             259        6.4         65       21.1      160.4       21.1       22.4       14.3     1020.0       24.1       13.3        0.0        0.0        0.0       0.00       47.8       1.25       0.15       11.0
18:06             259        6.4         65       21.1      160.4       21.1       22.4       14.2     1020.0       24.1       13.3        0.0        0.0        0.0       0.00       48.0       1.25       0.15       11.0
18:08             259        4.8         66       21.1      160.4       21.1       22.4       14.5     1020.0       24.1       13.3        0.0        0.0        0.0       0.00       48.1       1.25       0.15       11.0
18:10             259        4.8         66       21.1      160.4       21.1       22.4       14.5     1020.1       24.1       13.3        0.0        0.0        0.0       0.00       48.2       1.25       0.15       11.0
18:12             259        3.2         66       21.1      160.4       21.1       22.4       14.5     1020.0       24.1       13.3        0.0        0.0        0.0       0.00       48.3       1.25       0.15       11.0
18:14             259        6.4         66       21.1      160.4       21.1       22.4       14.5     1020.0       24.1       13.3        0.0        0.0        0.0       0.00       48.5       1.25       0.15       11.0
18:16             259        9.7         66       21.1      160.4       21.1       22.4       14.5     1020.1       24.1       13.3        0.0        0.0        0.0       0.00       48.7       1.25       0.15       11.0
18:18             259        6.4         66       21.1      160.4       21.1       22.4       14.5     1020.0       24.1       13.3        0.0        0.0        0.0       0.00       48.8       1.25       0.15       11.0
18:20             259        3.2         67       21.1      160.4       21.1       22.6       14.8     1020.1       24.1       13.3        0.0        0.0        0.0       0.00       48.9       1.25       0.15       11.0
18:21             259        4.8         67       21.1      160.4       21.1       22.6       14.8     1020.0       24.1       13.3        0.0        0.0        0.0       0.00       49.0       1.25       0.15       11.0
18:24             259        9.7         67       21.1      160.4       21.1       22.6       14.8     1020.0       24.1       13.3        0.0        0.0        0.0       0.00       49.2       1.25       0.15       11.0
18:26             259        4.8         67       21.1      160.4       21.1       22.5       14.7     1020.1       24.1       13.3        0.0        0.0        0.0       0.00       49.3       1.25       0.15       11.0
18:28             259        4.8         67       21.1      160.4       21.1       22.5       14.7     1020.1       24.1       13.3        0.0        0.0        0.0       0.00       49.5       1.25       0.15       11.0
18:30             259        6.4         68       21.0      160.4       21.0       22.5       14.9     1020.0       24.1       13.3        0.0        0.0        0.0       0.00       49.6       1.25       0.15       11.0
18:32             259        4.8         68       20.9      160.4       20.9       22.5       14.8     1020.0       24.1       13.3        0.0        0.0        0.0       0.00       49.8       1.25       0.15       11.0
18:34             259        6.4         68       20.8      160.4       20.8       22.3       14.7     1020.0       24.1       13.3        0.0        0.0        0.0       0.00       49.9       1.25       0.15       11.0
18:35             259        4.8         69       20.7      160.4       20.7       22.3       14.8     1020.0       24.1       13.3        0.0        0.0        0.0       0.00       50.1       1.25       0.15       11.0
18:37             259        6.4         69       20.6      160.4       20.6       22.2       14.7     1020.1       24.1       13.3        0.0        0.0        0.0       0.00       50.3       1.25       0.15       11.0
18:40             259       11.3         70       20.6      160.4       19.0       22.2       14.9     1020.0       24.1       13.3        0.0        0.0        0.0       0.00       50.5       1.25       0.15       11.0
18:42             259        4.8         70       20.4      160.4       20.4       22.1       14.8     1020.1       24.1       13.3        0.0        0.0        0.0       0.00       50.7       1.25       0.15       11.0
18:44             259        6.4         71       20.4      160.4       20.4       22.1       15.0     1020.1       24.1       13.3        0.0        0.0        0.0       0.00       50.9       1.25       0.15       11.0
18:46             259        9.7         71       20.3      160.4       19.1       22.0       14.9     1020.1       24.1       13.3        0.0        0.0        0.0       0.00       51.0       1.25       0.15       11.0
18:48             259        3.2         72       20.3      160.4       20.3       22.1       15.1     1020.2       24.1       13.3        0.0        0.0        0.0       0.00       51.1       1.25       0.15       11.0
18:50             261        9.7         72       20.2      160.4       20.2       21.9       15.0     1020.2       24.1       13.3        0.0        0.0        0.0       0.00       51.3       1.25       0.15       11.0
18:52             261       11.3         72       20.1      160.4       18.9       21.8       14.9     1020.3       24.1       13.3        0.0        0.0        0.0       0.00       51.4       1.25       0.15       11.0
18:54             261        6.4         72       20.0      160.4       20.0       21.8       14.8     1020.3       24.1       13.3        0.0        0.0        0.0       0.00       51.6       1.25       0.15       11.0
18:55             261        4.8         73       19.9      160.4       19.9       21.8       15.0     1020.3       24.1       13.3        0.0        0.0        0.0       0.00       51.7       1.25       0.15       11.0
18:58             261        4.8         73       19.9      160.4       19.9       21.7       14.9     1020.3       24.1       13.3        0.0        0.0        0.0       0.00       51.8       1.25       0.15       11.0
19:00             262        6.4         73       19.8      160.4       19.8       21.7       14.9     1020.3       24.1       13.3        0.0        0.0        0.0       0.00       52.0       1.25       0.15       11.0
19:01             262        9.7         73       19.8      160.4       19.8       21.6       14.8     1020.2       24.1       13.3        0.0        0.0        0.0       0.00       52.2       1.25       0.15       11.0
19:04             262        9.7         74       19.7      160.4       19.7       21.6       15.0     1020.3       24.1       13.3        0.0        0.0        0.0       0.00       52.4       1.25       0.15       11.0
19:06             262        6.4         74       19.7      160.4       19.7       21.6       14.9     1020.2       24.1       13.3        0.0        0.0        0.0       0.00       52.5       1.25       0.15       11.0
19:08             262        9.7         74       19.6      160.4       19.6       21.5       14.9     1020.3       24.1       13.3        0.0        0.0        0.0       0.00       52.8       1.25       0.15       11.0
19:10             262       12.9         75       19.6      160.4       17.3       21.5       15.0     1020.3       24.1       13.3        0.0        0.0        0.0       0.00       53.0       1.25       0.15       11.0
19:12             265        9.7         75       19.5      160.4       19.5       21.5       15.0     1020.3       24.1       13.3        0.0        0.0        0.0       0.00       53.2       1.25       0.15       11.0
19:14             265        4.8         75       19.4      160.4       19.4       21.4       14.9     1020.3       24.1       13.3        0.0        0.0        0.0       0.00       53.4       1.25       0.15       11.0
19:16             265       14.5         75       19.4      160.4       16.6       21.4       14.8     1020.3       24.1       13.3        0.0        0.0        0.0       0.00       53.6       1.25       0.15       11.0
19:17             265        6.4         75       19.3      160.4       19.3       21.3       14.8     1020.2       24.1       13.3        0.0        0.0        0.0       0.00       53.8       1.25       0.15       11.0
19:20             265        9.7         76       19.3      160.4       19.3       21.3       14.9     1020.3       24.1       13.3        0.0        0.0        0.0       0.00       54.0       1.25       0.15       11.0
19:22             265        6.4         76       19.2      160.4       19.2       21.3       14.9     1020.3       24.1       13.3        0.0        0.0        0.0       0.00       54.1       1.25       0.15       11.0
19:24             265       12.9         76       19.2      160.4       19.2       21.2       14.8     1020.4       24.1       13.3        0.0        0.0        0.0       0.00       54.3       1.25       0.15       11.0
19:25             265        6.4         76       19.1      160.4       19.1       21.2       14.8     1020.3       24.1       13.3        0.0        0.0        0.0       0.00       54.5       1.25       0.15       11.0
19:28             265        6.4         76       19.1      160.4       19.1       21.1       14.7     1020.4       24.1       13.3        0.0        0.0        0.0       0.00       54.7       1.25       0.15       11.0
19:30             267       11.3         76       19.0      160.4       19.0       21.1       14.7     1020.5       24.1       13.3        0.0        0.0        0.0       0.00       54.9       1.25       0.15       11.0
19:31             267       12.9         76       18.9      160.4       17.1       21.0       14.6     1020.5       24.1       13.3        0.0        0.0        0.0       0.00       55.1       1.25       0.15       11.0
19:34             267       11.3         76       18.9      160.4       18.9       20.9       14.6     1020.5       24.1       13.3        0.0        0.0        0.0       0.00       55.3       1.25       0.15       11.0
19:36             267        9.7         76       18.8      160.4       18.8       20.9       14.5     1020.6       24.1       13.3        0.0        0.0        0.0       0.00       55.5       1.25       0.15       11.0
19:37             267        6.4         76       18.8      160.4       18.8       20.8       14.5     1020.6       24.1       13.3        0.0        0.0        0.0       0.00       55.7       1.25       0.15       11.0
19:40             268        4.8         76       18.7      160.4       18.7       20.8       14.4     1020.6       24.1       13.3        0.0        0.0        0.0       0.00       55.9       1.25       0.15       11.0
19:42             268        9.7         77       18.7      160.4       18.7       20.9       14.6     1020.6       24.1       13.3        0.0        0.0        0.0       0.00       56.1       1.25       0.15       11.0
19:43             269        9.7         76       18.6      160.4       18.6       20.7       14.3     1020.6       24.1       13.3        0.0        0.0        0.0       0.00       56.3       1.25       0.15       11.0
19:46             269       11.3         76       18.6      160.4       18.6       20.7       14.3     1020.6       24.1       13.3        0.0        0.0        0.0       0.00       56.5       1.25       0.15       11.0
19:48             269       11.3         77       18.6      160.4       18.6       20.7       14.5     1020.7       24.1       13.3        0.0        0.0        0.0       0.00       56.8       1.25       0.15       11.0
19:50             269        9.7         77       18.5      160.4       18.5       20.6       14.4     1020.7       24.1       13.3        0.0        0.0        0.0       0.00       57.0       1.25       0.15       11.0
19:52             269       12.9         77       18.5      160.4       18.5       20.6       14.4     1020.7       24.1       13.3        0.0        0.0        0.0       0.00       57.2       1.25       0.15       11.0
19:54             269        6.4         77       18.4      160.4       18.4       20.6       14.3     1020.8       24.1       13.3        0.0        0.0        0.0       0.00       57.4       1.25       0.15       11.0
19:56             269        6.4         77       18.4      160.4       18.4       20.5       14.3     1020.8       24.1       13.3        0.0        0.0        0.0       0.00       57.6       1.25       0.15       11.0
19:57             269        9.7         77       18.3      160.4       18.3       20.5       14.2     1020.8       24.1       13.3        0.0        0.0        0.0       0.00       57.7       1.25       0.15       11.0
20:00             269       12.9         77       18.3      160.4       16.4       20.4       14.2     1020.8       24.1       13.3        0.0        0.0        0.0       0.00       58.0       1.25       0.15       11.0
20:02             269        9.7         77       18.3      160.4       18.3       20.4       14.2     1020.8       24.1       13.3        0.0        0.0        0.0       0.00       58.2       1.25       0.15       11.0
20:04             270       11.3         77       18.2      160.4       16.3       20.4       14.1     1020.7       24.1       13.3        0.0        0.0        0.0       0.00       58.4       1.25       0.15       11.0
20:06             270        9.7         77       18.2      160.4       16.9       20.4       14.1     1020.7       24.1       13.3        0.0        0.0        0.0       0.00       58.7       1.25       0.15       11.0
20:08             270        9.7         77       18.2      160.4       18.2       20.3       14.1     1020.8       24.1       13.3        0.0        0.0        0.0       0.00       58.9       1.25       0.15       11.0
20:10             270        6.4         77       18.2      160.4       18.2       20.3       14.1     1020.8       24.1       13.3        0.0        0.0        0.0       0.00       59.1       1.25       0.15       11.0
20:12             270        6.4         77       18.1      160.4       18.1       20.2       14.0     1021.0       24.1       13.3        0.0        0.0        0.0       0.00       59.3       1.25       0.15       11.0
20:14             270        6.4         77       18.1      160.4       18.1       20.2       14.0     1020.9       24.1       13.3        0.0        0.0        0.0       0.00       59.5       1.25       0.15       11.0
20:16             270        6.4         77       18.1      160.4       18.1       20.2       14.0     1021.0       24.1       13.3        0.0        0.0        0.0       0.00       59.7       1.25       0.15       11.0
20:18             270        6.4         78       18.1      160.4       18.1       20.3       14.2     1021.1       24.1       13.3        0.0        0.0        0.0       0.00       59.9       1.25       0.15       11.0
20:20             270        9.7         78       18.0      160.4       18.0       20.2       14.1     1021.1       24.1       13.3        0.0        0.0        0.0       0.00       60.1       1.25       0.15       11.0
20:22             270        6.4         78       18.0      160.4       18.0       20.2       14.1     1021.1       24.1       13.3        0.0        0.0        0.0       0.00       60.3       1.25       0.15       11.0
20:24             270        4.8         78       17.9      160.4       17.9       20.1       14.1     1021.1       24.1       13.3        0.0        0.0        0.0       0.00       60.5       1.25       0.15       11.0
20:26             270        9.7         78       17.9      160.4       17.9       20.1       14.1     1021.1       24.1       13.3        0.0        0.0        0.0       0.00       60.7       1.25       0.15       11.0
20:28             270        4.8         78       17.9      160.4       17.9       20.1       14.0     1021.1       24.1       13.3        0.0        0.0        0.0       0.00       60.9       1.25       0.15       11.0
20:30             270        9.7         78       17.9      160.4       17.9       20.1       14.0     1021.0       24.1       13.3        0.0        0.0        0.0       0.00       61.1       1.25       0.15       11.0
20:32             270       11.3         78       17.8      160.4       16.4       20.0       13.9     1021.0       24.1       13.3        0.0        0.0        0.0       0.00       61.3       1.25       0.15       11.0
20:34             270        4.8         78       17.8      160.4       17.8       20.0       13.9     1021.0       24.1       13.3        0.0        0.0        0.0       0.00       61.5       1.25       0.15       11.0
20:36             270        6.4         78       17.8      160.4       17.8       20.0       13.9     1021.1       24.1       13.3        0.0        0.0        0.0       0.00       61.7       1.25       0.15       11.0
20:38             270        9.7         79       17.8      160.4       17.8       20.1       14.1     1021.1       24.1       13.3        0.0        0.0        0.0       0.00       61.9       1.25       0.15       11.0
20:40             270        9.7         79       17.8      160.4       17.8       20.1       14.1     1021.1       24.1       13.3        0.0        0.0        0.0       0.00       62.0       1.25       0.15       11.0
20:42             270        9.7         79       17.7      160.4       17.7       20.0       14.0     1021.1       24.1       13.3        0.0        0.0        0.0       0.00       62.2       1.25       0.15       11.0
20:44             270        9.7         79       17.7      160.4       17.7       20.0       14.0     1021.1       24.1       13.3        0.0        0.0        0.0       0.00       62.4       1.25       0.15       11.0
20:46             270        4.8         79       17.7      160.4       17.7       20.0       14.0     1021.1       24.1       13.3        0.0        0.0        0.0       0.00       62.6       1.25       0.15       11.0
20:48             270        4.8         79       17.7      160.4       17.7       20.0       14.0     1021.1       24.1       13.3        0.0        0.0        0.0       0.00       62.8       1.25       0.15       11.0
20:50             270        4.8         79       17.7      160.4       17.7       20.0       14.0     1021.1       24.1       13.3        0.0        0.0        0.0       0.00       62.9       1.25       0.15       11.0
20:52             270        6.4         79       17.7      160.4       17.7       20.0       14.0     1021.1       24.1       13.3        0.0        0.0        0.0       0.00       63.0       1.25       0.15       11.0
20:53             270        4.8         80       17.7      160.4       17.7       20.0       14.2     1021.1       24.1       13.3        0.0        0.0        0.0       0.00       63.2       1.25       0.15       11.0
20:56             270        9.7         80       17.7      160.4       17.7       20.0       14.2     1021.1       24.1       13.3        0.0        0.0        0.0       0.00       63.4       1.25       0.15       11.0
20:58             270        4.8         80       17.6      160.4       17.6       20.0       14.1     1021.1       24.1       13.3        0.0        0.0        0.0       0.00       63.6       1.25       0.15       11.0
21:00             270       12.9         80       17.6      160.4       15.6       20.0       14.1     1021.2       24.1       13.3        0.0        0.0        0.0       0.00       63.8       1.25       0.15       11.0
21:02             270        9.7         80       17.6      160.4       17.6       19.9       14.1     1021.2       24.1       13.3        0.0        0.0        0.0       0.00       64.0       1.26       0.15       11.0
21:04             270        9.7         79       17.6      160.4       17.6       19.8       13.9     1021.1       24.1       13.3        0.0        0.0        0.0       0.00       64.1       1.26       0.15       11.0
21:06             270       11.3         79       17.6      160.4       17.6       19.8       13.9     1021.1       24.1       13.3        0.0        0.0        0.0       0.00       64.3       1.26       0.15       11.0
21:08             270        9.7         80       17.5      160.4       16.1       19.8       14.0     1021.1       24.1       13.3        0.0        0.0        0.0       0.00       64.5       1.26       0.15       11.0
21:10             270        9.7         80       17.5      160.4       17.5       19.8       14.0     1021.1       24.1       13.3        0.0        0.0        0.0       0.00       64.6       1.26       0.15       11.0
21:12             270       11.3         80       17.5      160.4       15.5       19.8       14.0     1021.2       24.1       13.3        0.0        0.0        0.0       0.00       64.8       1.26       0.15       11.0
21:14             270        6.4         80       17.5      160.4       17.5       19.8       14.0     1021.1       24.1       13.3        0.0        0.0        0.0       0.00       64.9       1.26       0.15       11.0
21:16             270        6.4         80       17.5      160.4       17.5       19.8       14.0     1021.1       24.1       13.3        0.0        0.0        0.0       0.00       65.1       1.26       0.15       11.0
21:18             270        6.4         80       17.5      160.4       17.5       19.8       14.0     1021.1       24.1       13.3        0.0        0.0        0.0       0.00       65.2       1.26       0.15       11.0
21:20             270        4.8         80       17.4      160.4       17.4       19.8       14.0     1021.1       24.1       13.3        0.0        0.0        0.0       0.00       65.4       1.26       0.15       11.0
21:22             270        3.2         80       17.4      160.4       17.4       19.8       14.0     1021.1       24.1       13.3        0.0        0.0        0.0       0.00       65.5       1.26       0.15       11.0
21:23             270        3.2         80       17.4      160.4       17.4       19.8       14.0     1021.1       24.1       13.3        0.0        0.0        0.0       0.00       65.5       1.26       0.15       11.0
21:26             270        3.2         80       17.4      160.4       17.4       19.8       14.0     1021.0       24.1       13.3        0.0        0.0        0.0       0.00       65.6       1.26       0.15       11.0
21:28             270        6.4         81       17.4      160.4       17.4       19.8       14.1     1021.1       24.1       13.3        0.0        0.0        0.0       0.00       65.8       1.26       0.15       11.0
21:30             270        4.8         81       17.4      160.4       17.4       19.8       14.1     1021.3       24.1       13.3        0.0        0.0        0.0       0.00       65.9       1.26       0.15       11.0
21:32             270        3.2         81       17.4      160.4       17.4       19.8       14.1     1021.2       24.1       13.3        0.0        0.0        0.0       0.00       66.0       1.27       0.15       11.0
21:34             270        4.8         81       17.4      160.4       17.4       19.8       14.1     1021.1       24.1       13.3        0.0        0.0        0.0       0.00       66.1       1.27       0.15       11.0
21:36             270        9.7         81       17.4      160.4       17.4       19.8       14.1     1021.1       24.1       13.3        0.0        0.0        0.0       0.00       66.3       1.27       0.15       11.0
21:38             270        3.2         81       17.4      160.4       17.4       19.8       14.1     1021.2       24.1       13.3        0.0        0.0        0.0       0.00       66.4       1.27       0.15       11.0
21:40             270        4.8         81       17.4      160.4       17.4       19.8       14.1     1021.1       24.1       13.3        0.0        0.0        0.0       0.00       66.5       1.27       0.15       11.0
21:42             270        4.8         81       17.3      160.4       17.3       19.8       14.0     1021.2       24.1       13.3        0.0        0.0        0.0       0.00       66.6       1.27       0.15       11.0
21:44             271        4.8         81       17.3      160.4       17.3       19.8       14.0     1021.1       24.1       13.3        0.0        0.0        0.0       0.00       66.8       1.27       0.15       11.0
21:46             270        6.4         81       17.3      160.4       17.3       19.8       14.0     1021.1       24.1       13.3        0.0        0.0        0.0       0.00       66.9       1.27       0.15       11.0
21:48             270        6.4         81       17.3      160.4       17.3       19.8       14.0     1021.1       24.1       13.3        0.0        0.0        0.0       0.00       67.1       1.27       0.15       11.0
21:50             270        9.7         81       17.3      160.4       17.3       19.7       14.0     1021.2       24.1       13.3        0.0        0.0        0.0       0.00       67.2       1.27       0.15       11.0
21:52             270        4.8         81       17.3      160.4       17.3       19.7       14.0     1021.1       24.1       13.3        0.0        0.0        0.0       0.00       67.4       1.27       0.15       11.0
21:53             270        9.7         81       17.2      160.4       17.2       19.6       13.9     1021.2       24.1       13.3        0.0        0.0        0.0       0.00       67.6       1.27       0.15       11.0
21:55             270        3.2         81       17.2      160.4       17.2       19.6       13.9     1021.2       24.1       13.3        0.0        0.0        0.0       0.00       67.7       1.27       0.15       11.0
21:58             270        4.8         81       17.2      160.4       17.2       19.6       13.9     1021.2       24.1       13.3        0.0        0.0        0.0       0.00       67.8       1.27       0.15       11.0
22:00             270        4.8         81       17.2      160.4       17.2       19.6       13.9     1021.2       24.1       13.3        0.0        0.0        0.0       0.00       67.9       1.27       0.15       11.0
22:02             270        9.7         81       17.2      160.4       17.2       19.6       13.9     1021.2       24.1       13.3        0.0        0.0        0.0       0.00       68.1       1.28       0.15       11.0
22:04             270        3.2         82       17.2      160.4       17.2       19.7       14.1     1021.2       24.1       13.3        0.0        0.0        0.0       0.00       68.2       1.28       0.15       11.0
22:06             270        3.2         82       17.1      160.4       17.1       19.6       14.0     1021.2       24.1       13.3        0.0        0.0        0.0       0.00       68.2       1.28       0.15       11.0
22:08             270        6.4         82       17.1      160.4       17.1       19.6       14.0     1021.3       24.1       13.3        0.0        0.0        0.0       0.00       68.4       1.28       0.15       11.0
22:10             270        6.4         82       17.1      160.4       17.1       19.6       14.0     1021.3       24.1       13.3        0.0        0.0        0.0       0.00       68.5       1.28       0.15       11.0
22:12             270        6.4         82       17.1      160.4       17.1       19.6       14.0     1021.2       24.1       13.3        0.0        0.0        0.0       0.00       68.6       1.28       0.15       11.0
22:14             270        4.8         82       17.1      160.4       17.1       19.6       14.0     1021.2       24.1       13.3        0.0        0.0        0.0       0.00       68.7       1.28       0.15       11.0
22:16             270        4.8         82       17.1      160.4       17.1       19.6       14.0     1021.2       24.1       13.3        0.0        0.0        0.0       0.00       68.9       1.29       0.15       11.0
22:18             270        6.4         82       17.1      160.4       17.1       19.6       14.0     1021.4       24.1       13.3        0.0        0.0        0.0       0.00       69.0       1.29       0.15       11.0
22:20             270        3.2         82       17.0      160.4       17.0       19.5       13.9     1021.3       24.1       13.3        0.0        0.0        0.0       0.00       69.1       1.29       0.15       11.0
22:22             270        6.4         82       17.0      160.4       17.0       19.5       13.9     1021.3       24.1       13.3        0.0        0.0        0.0       0.00       69.3       1.29       0.15       11.0
22:24             270        6.4         82       16.9      160.4       16.9       19.4       13.9     1021.3       24.1       13.3        0.0        0.0        0.0       0.00       69.4       1.29       0.15       11.0
22:26             270        6.4         82       16.9      160.4       16.9       19.4       13.9     1021.3       24.1       13.3        0.0        0.0        0.0       0.00       69.6       1.29       0.15       11.0
22:28             270        9.7         83       16.9      160.4       16.9       19.5       14.0     1021.3       24.1       13.3        0.0        0.0        0.0       0.00       69.8       1.29       0.15       11.0
22:30             270       11.3         83       16.9      160.4       14.9       19.5       14.0     1021.3       24.1       13.3        0.0        0.0        0.0       0.00       70.0       1.29       0.15       11.0
22:32             270        4.8         83       16.9      160.4       16.9       19.5       14.0     1021.2       24.1       13.3        0.0        0.0        0.0       0.00       70.2       1.30       0.15       11.0
22:34             270       11.3         83       16.9      160.4       16.9       19.5       14.0     1021.3       24.1       13.3        0.0        0.0        0.0       0.00       70.4       1.30       0.15       11.0
22:36             270        6.4         83       16.9      160.4       16.9       19.5       14.0     1021.3       24.1       13.3        0.0        0.0        0.0       0.00       70.6       1.30       0.15       11.0
22:37             270        6.4         83       16.9      160.4       16.9       19.5       14.0     1021.4       24.1       13.3        0.0        0.0        0.0       0.00       70.7       1.30       0.15       11.0
22:40             270        3.2         83       16.9      160.4       16.9       19.5       14.0     1021.4       24.1       13.3        0.0        0.0        0.0       0.00       70.8       1.30       0.15       11.0
22:42             270        3.2         83       16.9      160.4       16.9       19.5       14.0     1021.4       24.1       13.3        0.0        0.0        0.0       0.00       70.9       1.30       0.15       11.0
22:44             270        1.6         83       16.9      160.4       16.9       19.5       14.0     1021.4       24.1       13.3        0.0        0.0        0.0       0.00       70.9       1.30       0.15       11.0
22:46             270        4.8         83       16.9      160.4       16.9       19.5       14.0     1021.3       24.1       13.3        0.0        0.0        0.0       0.00       71.0       1.31       0.15       11.0
22:48             270        0.0         83       16.9      160.4       16.9       19.5       14.0     1021.4       24.1       13.3        0.0        0.0        0.0       0.00       71.0       1.31       0.15       11.0
22:50             270        0.0         83       16.9      160.4       16.9       19.5       14.0     1021.4       24.1       13.3        0.0        0.0        0.0       0.00       71.0       1.31       0.15       11.0
22:52             270        0.0         83       16.8      160.4       16.8       19.4       13.9     1021.4       24.1       13.3        0.0        0.0        0.0       0.00       71.0       1.31       0.15       11.0
22:54             270        0.0         83       16.8      160.4       16.8       19.4       13.9     1021.4       24.1       13.3        0.0        0.0        0.0       0.00       71.0       1.31       0.15       11.0
22:55             270        0.0         83       16.8      160.4       16.8       19.4       13.9     1021.4       24.1       13.3        0.0        0.0        0.0       0.00       71.0       1.31       0.15       11.0
22:58             270        6.4         83       16.8      160.4       16.8       19.4       13.9     1021.4       24.1       13.3        0.0        0.0        0.0       0.00       71.1       1.31       0.15       11.0
23:00             270       11.3         83       16.8      160.4       16.8       19.4       13.9     1021.5       24.1       13.3        0.0        0.0        0.0       0.00       71.3       1.31       0.15       11.0
23:02             270        4.8         83       16.7      160.4       16.7       19.3       13.8     1021.5       24.1       13.3        0.0        0.0        0.0       0.00       71.4       1.33       0.15       11.0
23:04             270        0.0         83       16.7      160.4       16.7       19.3       13.8     1021.4       24.1       13.3        0.0        0.0        0.0       0.00       71.4       1.33       0.15       11.0
23:06             270        1.6         83       16.7      160.4       16.7       19.2       13.8     1021.5       24.1       13.3        0.0        0.0        0.0       0.00       71.5       1.33       0.15       11.0
23:08             270        4.8         83       16.7      160.4       16.7       19.2       13.8     1021.5       24.1       13.3        0.0        0.0        0.0       0.00       71.6       1.33       0.15       11.0
23:10             270        1.6         83       16.6      160.4       16.6       19.2       13.7     1021.5       24.1       13.3        0.0        0.0        0.0       0.00       71.6       1.33       0.15       11.0
23:12             270        3.2         84       16.6      160.4       16.6       19.3       13.9     1021.5       24.1       13.3        0.0        0.0        0.0       0.00       71.7       1.33       0.15       11.0
23:14             270        4.8         83       16.6      160.4       16.6       19.1       13.7     1021.6       24.1       13.3        0.0        0.0        0.0       0.00       71.8       1.33       0.15       11.0
23:16             270        4.8         83       16.5      160.4       16.5       19.1       13.6     1021.6       24.1       13.3        0.0        0.0        0.0       0.00       71.9       1.34       0.15       11.0
23:18             270        4.8         83       16.4      160.4       16.4       19.0       13.6     1021.6       24.1       13.3        0.0        0.0        0.0       0.00       72.0       1.34       0.15       11.0
23:20             270        3.2         83       16.3      160.4       16.3       18.9       13.4     1021.5       24.1       13.3        0.0        0.0        0.0       0.00       72.0       1.34       0.15       11.0
23:21             270        6.4         84       16.3      160.4       16.3       18.9       13.6     1021.6       24.1       13.3        0.0        0.0        0.0       0.00       72.1       1.34       0.15       11.0
23:24             270        6.4         83       16.2      160.4       16.2       18.8       13.3     1021.5       24.1       13.3        0.0        0.0        0.0       0.00       72.2       1.34       0.15       11.0
23:26             270        6.4         84       16.1      160.4       16.1       18.8       13.4     1021.5       24.1       13.3        0.0        0.0        0.0       0.00       72.4       1.34       0.15       11.0
23:27             270        4.8         84       16.1      160.4       16.1       18.7       13.4     1021.5       24.1       13.3        0.0        0.0        0.0       0.00       72.5       1.34       0.15       11.0
23:30             270        9.7         84       16.0      160.4       16.0       18.7       13.3     1021.5       24.1       13.3        0.0        0.0        0.0       0.00       72.7       1.34       0.15       11.0
23:32             270        4.8         84       15.9      160.4       15.9       18.5       13.2     1021.5       24.1       13.3        0.0        0.0        0.0       0.00       72.8       1.36       0.15       11.0
23:34             270        6.4         84       15.8      160.4       15.8       18.5       13.1     1021.5       24.1       13.3        0.0        0.0        0.0       0.00       73.0       1.36       0.15       11.0
23:36             270        6.4         85       15.8      160.4       15.8       18.5       13.3     1021.6       24.1       13.3        0.0        0.0        0.0       0.00       73.2       1.36       0.15       11.0
23:38             270        6.4         85       15.7      160.4       15.7       18.5       13.2     1021.5       24.1       13.3        0.0        0.0        0.0       0.00       73.3       1.36       0.15       11.0
23:40             270        6.4         85       15.6      160.4       15.6       18.3       13.1     1021.6       24.1       13.3        0.0        0.0        0.0       0.00       73.5       1.36       0.15       11.0
23:41             270        6.4         85       15.6      160.4       15.6       18.3       13.0     1021.5       24.1       13.3        0.0        0.0        0.0       0.00       73.7       1.36       0.15       11.0
23:44             270        3.2         86       15.5      160.4       15.5       18.3       13.2     1021.5       24.1       13.3        0.0        0.0        0.0       0.00       73.8       1.36       0.15       11.0
23:46             270        0.0         86       15.4      160.4       15.4       18.3       13.1     1021.4       24.1       13.3        0.0        0.0        0.0       0.00       73.8       1.39       0.15       11.0
23:48             270        4.8         86       15.4      160.4       15.4       18.2       13.1     1021.4       24.1       13.3        0.0        0.0        0.0       0.00       73.9       1.39       0.15       11.0
23:50             270        6.4         86       15.4      160.4       15.4       18.2       13.1     1021.3       24.1       13.3        0.0        0.0        0.0       0.00       74.0       1.39       0.15       11.0
23:52             270        4.8         86       15.3      160.4       15.3       18.1       13.0     1021.3       24.1       13.3        0.0        0.0        0.0       0.00       74.1       1.39       0.15       11.0
23:54             270        6.4         87       15.3      160.4       15.3       18.2       13.2     1021.4       24.1       13.3        0.0        0.0        0.0       0.00       74.2       1.39       0.15       11.0
23:56             270        4.8         87       15.2      160.4       15.2       18.1       13.1     1021.3       24.1       13.3        0.0        0.0        0.0       0.00       74.2       1.39       0.15       11.0
23:58             270        4.8         87       15.2      160.4       15.2       18.1       13.1     1021.3       24.1       13.3        0.0        0.0        0.0       0.00       74.3       1.39       0.15       11.0